GFSGBSN_con_sbcape_000.txt.gz
CAPE
7 3 2 8 9 4 5 5 3 4 4 2 2 4 2 1 1 0 1 1 1 0 0 1 1 0 0 0 0 0 0 0 0 0 0 0 0 0 0 0 0 0 0 0 0 0 0
1 0 1 8 9 3 2 0 1 3 1 0 0 1 2 1 0 1 0 0 0 0 0 0 0 0 0 0 0 0 0 0 0 0 0 0 0 0 0 0 0 0 0 0 0 0 0
0 0 5 6 6 2 1 1 1 1 0 0 0 0 1 1 0 1 0 0 0 1 0 1 0 0 0 0 0 0 0 0 0 0 0 0 0 0 0 0 0 0 0 0 0 0 0
0 0 2 5 4 2 0 0 2 1 0 0 0 0 0 0 1 0 0 0 1 0 0 0 0 0 0 0 0 0 0 0 0 0 0 0 0 0 0 0 0 0 0 0 0 0 0
0 0 0 4 0 1 1 0 2 0 0 0 0 0 0 0 0 0 0 0 0 0 0 1 1 0 0 0 0 0 0 0 0 0 0 0 0 0 0 0 0 0 0 0 0 0 0
0 0 0 2 2 0 1 0 1 0 0 0 0 0 0 0 0 0 0 0 0 0 0 0 0 0 0 0 0 0 0 0 0 0 0 0 0 0 0 0 0 0 0 0 0 0 0
0 0 0 2 2 1 2 0 1 0 0 0 0 0 0 0 0 0 0 0 0 0 0 0 0 0 0 0 0 0 0 0 0 0 0 0 0 0 0 0 0 0 0 0 0 0 0
0 0 0 1 2 1 2 1 1 0 0 0 0 0 0 0 0 0 0 5 17 1 0 0 0 0 0 0 0 0 0 0 0 0 0 0 0 0 0 0 0 0 0 0 0 0 0
0 0 0 0 1 1 0 0 0 0 0 0 0 0 0 0 0 11 246 202 166 0 0 0 0 0 0 0 0 0 0 0 0 0 0 0 0 0 0 0 0 0 0 0 0 0 0
0 0 0 0 0 0 0 0 0 0 0 0 0 0 0 0 0 0 1 0 66 0 0 0 0 0 0 0 0 0 0 0 0 0 0 0 0 0 0 0 0 0 0 0 0 0 0
0 0 0 0 0 0 0 0 0 0 0 0 0 0 0 0 83 0 0 9 84 13 0 0 0 0 0 0 0 0 0 0 0 0 0 0 0 0 0 0 0 0 0 0 0 0 0
0 0 0 0 0 0 0 0 0 0 0 0 0 0 0 0 138 4 10 3 156 82 0 0 0 0 0 0 0 0 0 0 0 0 0 0 0 0 0 0 0 0 0 0 0 0 0
0 0 0 0 0 0 0 0 0 0 0 0 0 0 1 0 21 6 29 130 0 0 0 0 0 0 0 0 0 0 0 0 0 0 0 0 0 0 0 0 0 0 0 0 0 0 0
0 0 0 0 0 0 0 0 0 0 0 0 0 0 0 11 0 32 113 124 0 0 0 0 0 0 0 0 0 0 0 0 0 0 0 0 0 0 0 0 0 0 0 0 0 0 0
0 0 0 0 0 0 0 0 0 0 0 0 0 0 12 1 0 2 16 163 0 0 0 0 0 0 0 0 0 0 0 0 0 0 0 0 0 0 0 0 0 0 0 0 0 0 0
0 0 0 0 0 0 0 0 0 0 0 0 0 1 1 0 0 49 165 0 0 0 0 0 0 0 0 0 0 0 0 0 0 0 0 0 0 0 0 0 0 0 0 0 0 0 0
0 0 0 0 0 0 0 0 0 0 0 0 0 0 0 0 0 67 16 0 0 0 0 0 0 0 0 0 0 0 0 0 0 0 0 0 0 0 0 0 0 0 0 0 0 0 0
0 0 0 0 0 0 0 0 0 0 0 0 0 0 0 0 0 0 0 0 0 0 0 0 0 0 0 0 0 0 0 0 0 0 0 0 0 0 0 0 0 0 0 0 0 0 4
0 0 0 0 0 0 0 0 0 0 0 0 0 0 0 0 88 0 0 0 0 0 0 0 0 0 0 0 0 0 0 0 0 0 0 0 0 0 0 0 0 0 0 0 0 0 2
0 0 0 0 0 0 0 0 0 0 0 0 1 407 0 0 0 0 0 0 0 0 0 0 0 0 0 0 0 0 0 0 0 0 0 0 0 0 0 0 0 0 0 0 0 8 4
0 0 0 0 0 0 0 0 0 0 0 0 0 1 0 2 0 0 0 0 0 0 0 0 0 0 0 0 0 0 0 0 0 0 0 0 0 0 0 0 0 0 0 0 0 0 12
0 0 0 0 0 0 0 0 0 0 0 0 0 0 0 0 0 0 0 0 0 0 0 0 0 0 0 0 0 0 0 0 0 0 0 0 0 0 0 0 0 0 0 0 0 0 1
0 0 0 0 0 0 0 0 0 0 0 0 0 0 0 0 0 0 0 0 0 0 0 0 0 0 0 0 0 0 0 0 0 0 0 0 0 0 0 0 0 0 0 0 0 0 0
0 0 0 0 0 0 0 0 0 0 0 0 0 0 97 0 0 0 0 0 0 0 0 0 0 0 0 0 0 0 0 0 0 0 0 1 0 0 10 0 5 0 0 0 0 0 0
0 0 0 0 0 0 0 0 0 0 0 0 0 0 0 0 0 0 0 0 0 0 0 0 0 0 0 0 0 0 0 0 0 0 0 0 2 3 2 4 0 0 0 0 0 0 0
0 0 0 0 0 0 0 0 0 0 0 0 0 0 0 1 0 0 0 0 0 0 0 0 0 0 0 0 0 0 0 0 0 0 0 0 0 28 22 24 20 0 0 0 0 12 0
0 0 0 0 0 0 0 0 0 0 0 0 0 0 0 10 0 0 0 0 0 0 0 0 0 0 0 1 8 7 0 0 0 0 1 0 1 6 10 20 14 1 0 0 29 54 8
0 0 0 0 0 0 0 0 0 0 0 0 0 0 0 0 0 0 0 0 0 0 0 0 0 0 1 2 0 1 3 0 0 0 0 5 25 6 7 9 2 0 1 14 37 0 0
0 0 0 0 0 0 0 0 0 0 0 0 18 0 0 2 0 0 0 0 0 0 0 0 0 0 0 1 0 4 6 0 5 11 0 2 1 21 19 33 21 22 2 0 0 0 23

GFSGBSN_con_sbcape_003.txt.gz
CAPE
5 3 6 7 13 13 8 9 8 4 1 4 4 3 4 1 0 1 0 0 1 1 1 1 1 0 0 0 0 0 0 2 0 0 0 0 0 0 0 0 0 0 0 0 0 0 0
2 2 2 7 9 6 7 5 4 2 5 3 3 3 5 3 0 0 1 0 0 0 1 1 0 2 7 0 0 0 0 0 0 0 0 0 0 0 0 0 0 0 0 0 0 0 0
1 0 0 6 6 6 4 3 1 3 3 2 2 2 4 2 0 1 1 0 0 0 1 0 0 0 84 0 0 0 0 0 0 0 0 0 0 0 0 0 0 0 0 0 0 0 0
0 0 0 6 5 1 1 2 0 3 1 0 0 0 0 3 0 0 0 0 0 0 0 0 0 14 3 0 0 0 0 0 0 0 0 0 0 0 0 0 0 0 0 0 0 0 0
0 0 0 7 2 0 1 0 1 2 0 0 0 0 0 0 0 0 0 0 0 1 0 0 61 256 0 0 0 0 0 0 0 0 0 0 0 0 0 0 0 0 14 0 0 0 0
0 0 0 4 1 1 1 0 1 0 0 0 0 0 0 0 0 0 0 0 0 0 0 0 15 0 0 0 0 0 0 0 0 0 0 0 0 0 0 0 46 9 0 0 0 0 0
0 0 0 4 1 0 0 1 1 0 0 0 0 0 0 0 0 0 0 0 0 0 0 0 0 0 0 0 0 0 0 0 0 0 0 0 2 1 0 0 0 0 0 0 0 0 0
0 0 0 1 0 0 1 2 0 0 0 0 0 0 0 0 0 0 34 140 188 18 0 0 0 0 0 0 0 0 0 0 0 0 0 0 0 0 0 0 0 0 0 0 0 0 0
0 0 0 0 1 1 1 0 0 0 0 0 0 0 0 0 0 93 409 388 371 148 0 0 0 0 0 0 0 0 0 0 0 0 0 0 0 0 0 0 0 0 0 0 0 0 0
0 0 0 0 0 1 0 0 0 0 0 0 0 0 0 0 2 355 270 240 546 153 0 0 0 0 0 0 0 0 0 0 0 0 0 0 0 0 0 0 0 0 0 0 0 0 16
0 0 0 0 0 0 0 0 0 0 0 0 0 0 0 0 121 4 160 515 677 726 43 0 0 0 0 0 0 0 0 0 0 0 0 0 0 0 0 0 0 0 0 0 0 0 0
0 0 0 0 0 0 0 0 0 0 0 0 0 0 0 9 528 227 229 448 837 358 2 0 0 0 0 0 0 0 0 0 0 0 0 0 0 0 0 0 0 0 0 0 4 36 39
0 0 0 0 0 0 0 0 0 0 0 0 0 0 0 106 107 530 632 460 0 122 0 0 0 0 0 0 0 0 0 0 0 0 0 0 0 0 0 0 0 0 3 151 172 116 176
0 0 0 0 0 0 0 0 0 0 0 0 0 0 90 411 312 872 527 12 140 0 0 0 0 0 0 0 0 0 0 0 0 0 0 0 6 0 0 0 0 0 1 101 0 22 43
0 0 0 0 0 0 0 0 0 0 0 0 0 575 375 630 738 731 31 201 33 0 0 0 0 0 0 0 0 0 0 0 0 0 0 0 0 0 0 0 0 0 0 0 0 0 0
0 0 0 0 0 0 0 0 0 0 0 0 0 0 47 364 620 725 446 43 0 0 0 0 0 0 0 0 0 0 0 0 0 0 0 0 3 0 0 0 0 0 0 3 0 0 0
0 0 0 0 0 0 0 0 0 0 0 0 134 0 244 308 356 100 398 5 0 0 0 0 0 0 0 0 0 0 0 0 0 0 0 0 0 0 0 0 0 2 4 0 0 0 0
0 0 0 0 0 0 0 0 0 0 0 0 40 2 39 179 23 447 98 0 0 0 0 0 0 0 0 0 0 0 0 0 0 0 0 0 0 0 0 0 0 0 0 0 0 0 0
0 0 0 0 0 0 0 0 0 0 0 194 2 28 28 303 512 461 0 0 0 0 0 0 0 0 0 0 0 0 0 0 0 0 0 0 0 0 0 0 1 0 0 0 0 0 0
0 0 0 0 0 0 0 0 0 0 0 30 14 439 15 119 15 1 0 0 0 0 0 0 0 0 0 0 0 0 0 0 0 0 0 0 0 0 0 0 0 0 0 0 1 7 13
0 0 0 0 0 0 0 0 0 0 0 33 68 133 27 118 99 3 0 0 0 0 0 0 0 0 0 0 0 0 0 0 0 0 0 0 0 0 0 0 0 0 0 0 0 3 24
0 0 0 0 0 0 0 0 0 0 0 35 1 9 0 13 0 0 0 0 0 0 0 0 0 0 0 0 0 0 0 0 0 0 0 0 0 0 0 0 0 0 0 0 0 3 12
0 0 0 0 0 0 0 0 0 0 0 24 0 0 61 0 5 1 0 0 0 0 0 0 0 0 0 0 0 0 0 0 0 0 0 0 0 0 0 0 0 0 0 0 4 13 15
0 0 0 0 0 0 0 0 0 0 0 68 7 1 314 1 1 0 0 0 0 0 0 0 0 0 0 0 0 0 0 0 0 0 0 0 0 1 3 0 1 1 0 0 0 0 8
0 0 0 0 0 0 0 0 0 0 0 25 0 28 28 83 0 0 0 0 0 0 0 0 0 0 0 0 0 0 0 0 0 0 0 0 4 3 19 3 0 0 0 0 0 0 1
0 0 0 0 0 0 0 0 0 0 0 22 0 0 48 3 27 0 0 0 0 0 0 0 0 0 0 0 0 0 0 0 0 0 0 0 2 26 27 16 24 24 9 0 0 7 5
0 0 0 0 0 0 0 0 0 0 0 32 34 0 85 213 0 0 7 0 0 0 0 0 0 0 0 0 54 2 0 0 0 0 1 2 2 25 9 47 11 10 0 0 18 48 43
0 0 0 0 0 0 0 0 0 0 0 0 56 0 136 126 0 0 0 0 0 0 13 0 0 0 1 0 1 2 1 0 0 0 0 0 16 0 25 21 10 0 14 36 61 50 19
0 0 0 0 0 0 0 0 0 0 0 0 190 0 1 144 46 0 0 0 0 0 5 0 0 0 0 7 0 2 11 1 0 0 0 0 2 26 34 35 37 38 17 60 36 25 18

GFSGBSN_con_sbcape_006.txt.gz
CAPE
1 2 1 1 3 10 10 12 10 3 1 1 0 6 5 4 1 1 0 0 1 1 1 0 0 0 0 37 0 0 0 99 0 3 0 1 6 13 6 1 0 0 0 0 0 0 0
5 0 0 0 8 8 9 9 1 5 4 1 5 6 5 4 1 0 1 0 0 0 0 0 0 1 7 1 0 0 0 0 0 6 0 0 7 1 0 0 0 0 0 0 0 0 0
2 0 0 0 6 6 5 6 6 4 2 3 5 4 4 3 0 0 0 0 0 0 1 1 0 0 56 1 0 0 0 0 0 0 0 0 0 0 0 0 0 0 0 0 0 0 0
0 0 0 1 3 3 4 5 2 3 1 3 3 1 1 2 0 0 0 0 0 1 1 0 0 3 38 0 0 0 0 0 0 0 0 0 0 0 0 0 0 0 0 0 0 0 0
0 0 0 0 3 3 3 3 0 0 2 0 0 0 0 0 0 0 0 0 1 1 0 0 10 201 21 0 0 0 0 0 0 0 0 0 0 0 0 0 0 0 0 5 0 0 0
0 0 0 0 5 1 3 2 0 2 1 0 0 0 0 0 0 0 0 0 0 0 0 0 15 112 0 0 0 0 0 0 0 0 0 0 0 0 0 0 0 0 1 0 0 0 0
0 0 0 0 2 1 1 0 0 1 0 0 0 0 0 0 0 0 0 0 0 0 41 0 0 0 0 0 0 0 0 0 0 0 0 0 0 1 0 0 0 0 0 0 3 0 0
0 0 0 0 1 0 1 1 1 0 0 0 0 0 0 0 0 0 0 501 180 20 0 0 0 0 0 0 0 0 0 0 0 0 0 0 0 0 0 0 0 0 0 0 0 0 0
0 0 0 0 1 1 1 0 0 0 0 0 0 0 0 0 0 0 458 446 336 466 0 0 0 0 0 0 0 0 0 0 0 0 0 0 0 0 0 0 0 0 0 0 0 0 0
0 0 0 0 0 0 0 0 0 0 0 0 0 0 0 0 2 426 355 235 499 645 11 0 0 0 0 0 0 0 0 0 0 0 0 0 0 0 0 0 0 0 0 0 0 0 2
0 0 0 0 0 0 0 0 0 0 0 0 0 0 0 0 75 81 296 457 585 903 146 0 0 0 0 0 0 0 0 0 0 0 0 0 0 0 0 0 0 0 0 0 0 0 0
0 0 0 0 0 0 0 0 0 0 0 0 0 0 0 10 599 273 419 791 877 703 125 0 0 0 0 0 0 0 0 0 0 0 0 0 0 0 0 0 0 0 0 0 1 19 339
0 0 0 0 0 0 0 0 0 0 0 0 0 0 0 426 494 669 1137 602 4 294 0 0 0 0 0 0 0 0 0 0 3 0 0 0 0 0 0 1 3 0 17 406 598 622 434
0 0 0 0 0 0 0 0 0 0 0 0 0 0 284 652 629 1291 877 111 212 2 0 0 0 0 0 0 0 0 0 0 0 0 1 15 2 0 0 0 0 0 0 436 43 180 147
0 0 0 0 0 0 0 0 0 0 0 0 0 1203 1051 1162 1264 1149 358 300 232 0 0 0 0 0 0 0 0 0 0 0 0 0 0 2 0 0 0 0 0 2 0 0 0 2 6
0 0 0 0 0 0 0 0 0 0 0 0 34 46 57 828 1209 967 583 336 96 0 0 0 0 0 1 0 0 0 0 0 0 0 0 0 5 0 0 0 0 0 0 0 122 6 0
0 0 0 0 0 0 0 0 0 0 0 0 739 0 562 748 902 20 513 487 0 0 0 0 0 0 8 0 0 0 0 0 0 0 0 0 0 0 0 0 0 0 4 0 0 0 0
0 0 0 0 0 0 0 0 0 0 0 0 642 2 656 1237 0 30 541 13 0 0 0 0 0 0 0 0 0 0 0 0 0 0 0 0 0 0 0 0 0 0 0 0 0 0 26
0 0 0 0 0 0 0 0 0 0 0 253 17 268 354 731 341 1483 53 0 0 0 0 0 0 0 0 0 0 0 0 0 0 0 0 0 31 6 0 0 0 0 0 0 0 0 0
0 0 0 0 0 0 0 0 0 0 0 0 360 398 0 4 548 312 80 0 0 0 0 0 0 0 0 0 0 0 0 0 0 0 0 0 0 0 0 0 0 0 0 0 0 38 1
0 0 0 0 0 0 0 0 0 0 0 0 434 122 0 83 222 75 34 0 0 0 0 0 0 0 0 0 0 0 0 0 0 0 0 0 0 0 0 0 0 0 0 0 0 0 8
0 0 0 0 0 0 0 0 0 0 0 92 312 74 81 160 105 9 13 0 0 0 0 0 0 0 0 0 0 0 0 0 0 0 0 0 0 0 0 0 0 0 0 0 0 0 3
0 0 0 0 0 0 0 0 0 0 0 281 30 168 204 22 48 186 139 0 0 0 0 0 0 0 0 0 0 0 0 0 0 0 0 0 3 0 0 0 0 3 0 0 0 2 1
0 0 0 0 0 0 0 0 0 0 0 487 330 71 846 275 247 7 3 0 3 0 0 0 0 0 0 0 0 0 0 0 0 0 0 0 0 0 0 0 0 0 0 0 0 0 1
0 0 0 0 0 0 0 0 0 0 0 120 14 392 158 11 139 6 0 0 3 0 0 0 0 0 0 0 0 0 0 0 0 0 0 0 0 0 7 0 0 0 0 0 0 0 0
0 0 0 0 0 0 0 0 0 0 0 168 41 57 426 6 260 3 4 0 10 12 0 0 0 0 0 24 0 0 0 0 0 0 0 0 0 8 0 0 0 0 5 0 0 0 12
0 0 0 0 0 0 0 0 0 0 0 11 130 81 592 801 26 32 107 86 29 24 3 0 0 0 0 1 1 36 0 0 0 0 1 0 1 1 7 9 0 0 0 0 0 18 8
0 0 0 0 0 0 0 0 0 0 0 0 224 44 418 396 32 42 38 92 29 85 132 4 0 95 186 0 1 1 1 0 0 0 0 0 1 1 8 4 2 0 0 0 51 47 19
0 0 0 0 0 0 0 0 0 0 0 0 432 30 115 512 122 85 25 22 16 15 113 81 9 0 53 0 4 2 3 0 0 0 0 1 0 9 0 0 15 14 12 12 3 32 0

GFSGBSN_con_sbcape_009.txt.gz
CAPE
0 2 10 6 4 6 1 2 2 0 0 1 0 1 0 4 2 0 0 0 0 0 0 0 0 0 0 64 0 0 266 124 0 0 0 1 0 0 0 0 0 0 0 0 0 0 0
2 8 9 4 0 3 2 2 0 1 0 0 0 1 3 2 4 0 0 0 0 0 0 0 0 0 0 0 0 0 0 0 0 0 12 0 0 0 0 0 0 0 0 0 0 0 0
0 11 4 0 2 1 1 1 0 0 0 2 0 2 2 3 3 0 0 0 0 0 1 0 0 0 4 90 0 0 0 0 0 0 0 0 0 0 0 0 0 0 0 0 0 0 0
0 1 0 0 1 0 0 0 0 2 3 0 3 1 0 0 0 0 0 0 0 0 0 0 0 0 31 0 0 0 0 0 0 0 0 0 0 0 0 0 0 0 0 0 0 0 0
0 0 0 0 2 0 0 0 0 1 0 2 0 0 0 0 0 0 0 0 0 0 0 0 0 62 6 0 0 0 0 0 0 0 0 0 0 0 0 0 0 0 0 0 0 0 0
0 0 0 0 1 1 0 3 0 0 2 0 0 0 0 0 0 0 0 0 0 0 0 0 0 24 71 0 0 0 0 0 0 0 0 0 0 0 0 0 0 0 0 0 0 0 0
0 0 0 0 1 1 0 0 0 1 0 0 0 0 0 0 0 0 0 0 0 0 0 0 0 0 0 0 0 0 0 0 0 0 0 0 0 0 0 0 0 0 0 0 0 0 0
0 0 0 0 0 0 1 0 0 0 0 0 0 0 0 0 0 0 0 170 147 120 0 2 0 0 0 0 0 0 0 0 0 0 0 0 0 0 0 0 0 0 0 0 0 0 0
0 0 0 0 0 0 0 0 0 0 0 0 0 0 0 0 0 0 0 291 315 355 1 0 0 0 0 0 0 0 0 0 0 0 0 0 0 0 0 0 0 0 0 0 0 0 0
0 0 0 0 0 0 0 0 0 0 0 0 0 0 0 0 0 173 367 228 479 632 0 0 0 0 0 0 0 0 0 0 0 0 0 0 0 0 0 0 0 0 0 0 0 0 0
0 0 0 0 0 0 0 0 0 0 0 0 0 0 0 0 0 405 239 434 366 463 15 0 0 0 0 0 0 0 0 0 0 0 0 0 0 0 0 0 0 0 0 0 0 0 0
0 0 0 0 0 0 0 0 0 0 0 0 0 0 0 0 0 476 626 818 134 387 35 0 0 0 0 0 0 0 0 0 0 0 0 0 0 0 0 0 0 0 0 0 0 0 4
0 0 0 0 0 0 0 0 0 0 0 0 0 0 0 1 614 790 851 200 0 179 0 0 0 0 0 0 0 0 0 0 0 0 0 0 0 0 0 0 0 0 0 8 14 9 24
0 0 0 0 0 0 0 0 0 0 0 0 0 0 135 1087 1115 1015 779 161 79 8 0 0 0 0 0 0 0 0 0 0 0 0 0 0 0 0 0 0 0 0 0 0 0 0 0
0 0 0 0 0 0 0 0 0 0 0 0 0 127 935 916 1085 703 473 220 240 19 0 0 0 0 0 0 0 0 0 0 0 0 0 0 0 0 0 0 0 0 0 0 0 0 0
0 0 0 0 0 0 0 0 0 0 0 0 1 495 359 676 946 623 291 342 132 0 0 0 0 0 0 0 0 0 0 0 0 0 0 0 0 0 0 0 0 0 0 0 0 0 0
0 0 0 0 0 0 0 0 0 0 0 0 63 0 286 810 401 3 177 512 0 0 0 0 0 0 0 0 0 0 0 0 0 0 0 0 0 0 0 0 0 0 0 0 0 0 0
0 0 0 0 0 1 0 0 0 0 0 0 91 0 466 529 0 0 31 236 0 0 0 0 0 0 0 0 0 0 0 0 0 0 0 0 0 0 0 0 0 0 0 0 0 0 0
0 0 0 0 0 0 0 0 0 0 0 16 17 132 319 686 0 0 74 0 0 0 0 0 0 0 0 0 0 0 0 0 0 0 0 0 0 0 0 0 0 0 0 0 0 0 0
0 0 0 0 0 0 0 0 0 0 0 0 238 0 56 41 113 322 162 0 0 0 0 0 0 0 0 0 0 0 0 0 0 0 0 0 0 0 0 0 0 0 0 0 0 0 0
0 0 0 0 0 0 0 0 0 0 0 0 134 12 0 0 0 11 78 0 0 0 0 0 0 0 0 0 0 0 0 0 0 0 0 0 0 0 0 0 0 0 0 0 0 0 0
0 0 0 0 0 0 0 0 0 0 0 8 230 166 0 5 0 4 41 1 0 0 0 0 0 0 0 0 0 0 0 0 0 0 0 0 0 0 0 0 0 0 0 0 0 0 0
0 0 0 0 0 0 0 0 0 0 0 79 20 68 222 9 0 0 3 0 1 0 0 0 0 0 0 0 0 0 0 0 0 0 0 0 0 0 0 0 0 0 0 0 0 0 0
0 0 0 0 0 0 0 0 0 0 0 138 68 310 0 0 7 0 17 0 0 0 0 0 0 0 0 0 0 0 0 0 0 0 0 0 0 0 0 0 0 0 0 0 0 0 0
0 0 0 0 0 0 0 0 0 0 0 42 18 364 0 0 21 10 0 0 0 0 0 0 0 0 0 0 0 0 0 0 0 0 0 0 0 0 0 0 0 0 0 0 0 0 0
0 0 0 0 0 0 0 0 0 0 0 49 0 2 21 0 11 72 0 0 0 0 0 0 0 0 0 0 0 0 0 0 0 0 0 0 0 0 0 0 0 0 0 0 0 0 0
0 0 0 0 0 0 0 0 0 0 0 17 11 4 381 39 0 4 5 0 0 0 0 0 0 0 0 0 0 0 0 0 0 0 0 0 0 0 0 0 0 0 0 0 0 0 0
0 0 0 0 0 0 0 0 0 0 0 17 23 0 171 17 0 10 11 17 0 0 0 0 0 0 0 0 0 0 0 0 0 0 0 0 0 0 0 0 0 0 0 0 0 0 0
0 0 0 0 0 0 0 0 0 0 0 0 163 9 44 102 25 16 0 0 0 1 3 0 0 0 0 0 0 0 0 0 0 0 0 0 0 0 0 0 0 0 0 0 0 0 0

GFSGBSN_con_sbcape_012.txt.gz
CAPE
0 0 0 3 10 8 5 1 1 1 1 1 0 0 0 0 0 1 0 0 0 0 0 0 1 0 0 34 0 0 44 204 49 0 0 0 0 0 0 0 0 0 0 0 0 0 0
0 0 0 12 10 0 2 1 3 0 1 0 0 0 3 4 7 5 0 0 0 0 0 0 0 0 0 0 0 0 0 0 0 0 0 0 0 0 0 0 0 0 0 0 0 0 0
0 0 0 7 2 1 1 0 0 0 1 1 0 0 2 6 4 3 0 0 0 0 0 0 1 0 0 0 0 0 0 0 0 0 0 0 0 0 0 0 0 0 0 0 0 0 0
0 0 0 3 0 1 0 1 1 0 0 0 0 3 1 0 1 1 0 0 0 0 0 0 0 0 0 0 0 0 0 0 0 0 0 0 0 0 0 0 0 0 0 0 0 0 0
0 0 0 0 0 2 0 1 0 0 0 0 2 0 0 0 0 0 0 0 0 0 0 0 0 0 0 0 0 0 0 0 0 0 0 0 0 0 0 0 0 0 0 0 0 0 0
0 0 0 0 0 1 0 0 0 0 0 1 0 0 0 0 0 0 0 0 0 0 0 0 0 0 0 24 0 0 0 0 0 0 0 0 0 0 0 0 0 0 0 0 0 0 0
0 1 0 0 0 1 0 1 0 0 0 0 0 0 0 0 0 0 0 0 0 0 0 0 0 0 0 0 0 0 0 0 0 0 0 0 0 0 0 0 0 0 0 0 0 0 0
0 0 0 0 0 1 1 0 0 0 0 0 0 0 0 0 0 0 0 216 75 34 0 0 0 0 0 0 0 0 0 0 0 0 0 0 0 0 0 0 0 0 0 0 0 0 0
0 0 0 0 0 0 0 0 0 0 0 0 0 0 0 0 0 0 0 0 83 140 18 0 0 0 0 0 0 0 0 0 0 0 0 0 0 0 0 0 0 0 0 0 0 0 0
0 0 0 0 0 0 0 0 0 0 0 0 0 0 0 0 0 0 0 0 0 29 0 0 0 0 0 0 0 0 0 0 0 0 0 0 0 0 0 0 0 0 0 0 0 0 0
0 0 0 0 0 0 0 0 0 0 0 0 0 0 0 0 0 104 157 251 166 22 0 0 0 0 0 0 0 0 0 0 0 0 0 0 0 0 0 0 0 0 0 0 0 0 0
0 0 0 0 0 0 0 0 0 0 0 0 0 0 0 0 0 2 285 248 0 85 0 0 0 0 0 0 0 0 0 0 0 0 0 0 0 0 0 0 0 0 0 0 0 0 0
0 0 0 0 0 0 0 0 0 0 0 0 0 0 0 0 511 261 286 0 0 1 0 0 0 0 0 0 0 0 0 0 0 0 0 0 0 0 0 0 0 0 0 0 0 0 4
0 0 0 0 0 0 0 0 0 0 0 0 0 0 0 5 529 294 0 0 29 0 0 0 0 0 0 0 0 0 0 0 0 0 0 0 0 0 0 0 0 0 0 0 0 0 0
0 0 0 0 0 0 0 0 0 0 0 0 0 0 347 310 465 0 0 10 47 9 0 0 0 0 0 0 0 0 0 0 0 0 0 0 0 0 0 0 0 0 0 0 0 0 0
0 0 0 0 0 0 0 0 0 0 0 0 0 30 0 165 77 0 79 139 68 0 0 0 0 0 0 0 0 0 0 0 0 0 0 0 0 0 0 0 0 0 0 0 0 0 0
0 0 0 0 0 0 0 0 0 0 0 0 0 0 0 218 0 0 28 78 51 0 1 0 0 0 0 0 0 0 0 0 0 0 0 0 0 0 0 0 0 0 0 0 0 0 0
0 0 0 0 0 0 0 0 0 0 0 0 0 0 0 0 0 0 0 62 0 0 0 0 0 0 0 0 0 0 0 0 0 0 0 0 0 0 0 0 0 0 0 0 0 0 0
0 0 0 0 0 0 0 0 0 0 0 0 0 18 1 0 0 0 0 0 0 0 0 0 0 0 0 0 0 0 0 0 0 0 0 0 0 0 0 0 0 0 0 0 0 0 0
0 0 0 0 0 0 0 0 0 0 0 0 6 0 0 0 0 0 0 0 0 0 0 0 0 0 0 0 0 0 0 0 0 0 0 0 0 0 0 0 0 0 0 0 0 0 0
0 0 0 0 0 0 0 0 0 0 0 0 9 0 0 0 0 3 6 0 0 0 0 0 0 0 0 0 0 0 0 0 0 0 0 0 0 0 0 0 0 0 0 0 0 0 0
0 0 0 0 0 0 0 0 0 0 0 0 17 11 0 0 0 0 0 0 0 0 0 0 0 0 0 0 0 0 0 0 0 0 0 0 0 0 0 0 0 0 0 0 0 0 0
0 0 0 0 0 0 0 0 0 0 0 0 0 0 0 0 0 0 0 0 0 0 0 0 0 0 0 0 0 0 0 0 0 0 0 0 0 0 0 0 0 0 0 0 0 0 0
0 0 0 0 0 0 0 0 0 0 0 57 17 0 0 0 0 0 0 0 0 0 0 0 0 0 0 0 0 0 0 0 0 0 0 0 0 0 0 0 0 0 0 0 0 0 0
0 0 0 0 0 0 0 0 0 0 0 0 0 0 0 0 0 0 0 0 0 0 0 0 0 0 0 0 0 0 0 0 0 0 0 0 0 0 0 0 0 0 0 0 0 0 0
0 0 0 0 0 0 0 0 0 0 0 0 0 0 0 0 0 0 0 0 0 0 0 0 0 0 0 0 0 0 0 0 0 0 0 0 0 0 0 0 0 0 0 0 0 0 0
0 0 0 0 0 0 0 0 0 0 0 0 0 0 0 0 0 0 0 0 0 0 0 0 0 0 0 0 0 0 0 0 0 0 0 0 0 0 0 0 0 0 0 0 0 0 0
0 0 0 0 0 0 0 0 0 0 0 0 0 0 1 0 0 0 0 0 0 0 0 0 0 0 0 0 0 0 0 0 0 0 0 0 0 0 0 0 0 0 0 0 0 0 0
0 0 0 0 0 0 0 0 0 0 0 0 0 0 0 0 0 0 0 0 0 0 0 0 0 0 0 0 0 0 0 0 0 0 0 0 0 0 0 0 0 0 0 0 0 0 0

GFSGBSN_con_sbcape_015.txt.gz
CAPE
14 9 0 0 0 4 7 9 5 2 1 3 2 0 1 0 1 1 2 0 2 0 2 0 0 0 0 10 0 0 322 273 0 0 0 0 0 0 0 0 0 0 0 0 0 0 0
0 3 0 0 0 1 6 7 0 2 1 0 0 0 1 1 0 3 2 1 0 0 0 0 0 0 0 0 0 0 0 0 0 0 0 0 0 0 0 0 0 0 0 0 0 0 0
0 0 0 0 0 3 3 3 0 1 2 1 0 0 0 0 0 4 1 0 0 0 0 0 0 0 0 0 0 0 0 0 0 0 0 0 0 0 0 0 0 0 0 0 0 0 0
0 0 0 0 0 0 0 1 0 1 1 1 0 0 0 2 1 0 0 0 0 0 0 0 0 0 0 0 0 0 0 0 0 0 0 0 0 0 0 0 0 0 0 0 0 0 0
0 0 0 0 0 0 0 0 1 0 0 2 0 2 1 0 0 0 0 0 0 1 0 0 0 0 0 0 0 0 0 0 0 0 0 0 0 0 0 0 0 0 0 0 0 0 0
0 0 0 0 0 0 0 1 1 0 0 1 3 0 0 0 0 0 0 0 0 0 0 0 0 0 0 0 0 0 0 0 0 0 0 0 0 0 0 0 0 0 0 0 0 0 0
0 0 0 0 0 0 1 1 0 0 1 0 1 0 0 0 0 0 0 0 0 0 0 0 0 0 0 0 0 0 0 0 0 0 0 0 0 0 0 0 0 0 0 0 0 0 0
0 0 0 0 0 0 0 2 0 0 0 0 0 0 0 0 0 0 0 10 2 112 0 0 0 0 0 0 0 0 0 0 0 0 0 0 0 0 0 0 0 0 0 0 0 0 0
0 0 0 0 0 0 0 0 0 0 0 0 0 0 0 0 0 0 0 0 3 0 34 0 0 0 0 0 0 0 0 0 0 0 0 0 0 0 0 0 0 0 0 0 0 0 0
0 0 0 0 0 0 0 0 0 0 0 0 0 0 0 0 0 0 0 0 0 0 0 0 0 0 0 0 0 0 0 0 0 0 0 0 0 0 0 0 0 0 0 0 0 0 0
0 0 0 0 0 0 0 0 0 0 0 0 0 0 0 0 0 50 107 141 3 0 0 0 0 0 0 0 0 0 0 0 0 0 0 0 0 0 0 0 0 0 0 0 0 0 0
0 0 0 0 0 0 0 0 0 0 0 0 0 0 0 0 0 0 9 0 0 0 0 0 0 0 0 0 0 0 0 0 0 0 0 0 0 0 0 0 0 0 0 0 0 0 0
0 0 0 0 0 0 0 0 0 0 0 0 0 0 0 0 339 59 9 0 0 23 0 0 0 0 0 0 0 0 0 0 0 0 0 0 0 0 0 0 0 0 0 0 5 9 3
0 0 0 0 0 0 0 0 0 0 0 0 0 0 0 0 65 16 0 0 0 0 0 0 0 0 0 0 0 0 0 0 0 0 0 0 0 0 0 0 0 0 0 0 0 0 0
0 0 0 0 0 0 0 0 0 0 0 0 0 0 14 60 66 0 0 0 0 0 0 0 0 0 0 0 0 0 0 0 0 0 0 0 0 0 0 0 0 0 0 0 0 0 0
0 0 0 0 0 0 0 0 0 0 0 0 0 0 0 0 0 0 0 0 21 0 0 0 0 0 0 0 0 0 0 0 0 0 0 0 0 0 0 0 0 0 0 0 0 0 0
0 0 0 0 0 0 0 0 0 0 0 0 0 0 0 0 0 0 0 0 118 0 0 0 0 0 0 0 0 0 0 0 0 0 0 0 0 0 0 0 0 0 0 0 0 0 0
0 0 0 0 0 0 0 0 0 0 0 0 0 0 0 0 0 0 0 0 4 0 0 0 0 0 0 0 0 0 0 0 0 0 0 0 0 0 0 0 0 0 0 0 0 0 0
0 0 0 0 0 0 0 0 0 0 0 0 0 19 0 0 0 0 0 0 0 0 0 0 0 0 0 0 0 0 0 0 0 0 0 0 0 0 0 0 0 0 0 0 0 0 0
0 0 0 0 1 0 0 0 0 0 0 0 0 0 0 0 0 0 0 0 0 0 0 0 0 0 0 0 0 0 0 0 0 0 0 0 0 0 0 0 0 0 0 0 0 0 0
0 0 0 0 0 0 0 0 0 0 0 0 0 0 0 0 0 0 0 0 0 0 0 0 0 0 0 0 0 0 0 0 0 0 0 0 0 0 0 0 0 0 0 0 0 0 0
0 0 1 0 0 0 0 0 0 0 0 0 0 0 0 0 0 0 0 0 0 0 0 0 0 0 0 0 0 0 0 0 0 0 0 0 0 0 0 0 0 0 0 0 0 0 0
0 0 0 0 1 0 0 0 0 0 0 0 0 0 0 0 0 0 0 0 0 0 0 0 0 0 0 0 0 0 0 0 0 0 0 0 0 0 0 0 0 0 0 0 0 0 0
0 0 1 0 0 0 0 0 0 0 0 16 0 0 0 0 0 0 0 0 0 0 0 0 0 0 0 0 0 0 0 0 0 0 0 0 0 0 0 0 0 0 0 0 0 0 0
0 0 0 0 0 0 0 0 0 0 0 0 0 0 0 0 0 0 0 0 0 0 0 0 0 0 0 0 0 0 0 0 0 0 0 0 0 0 0 0 0 0 0 0 0 0 0
0 0 0 0 0 0 0 0 0 0 0 0 0 0 0 0 0 0 0 0 0 0 0 0 0 0 0 0 0 0 0 0 0 0 0 0 0 0 0 0 0 0 0 0 0 0 0
0 0 0 0 0 0 0 0 0 0 0 0 0 0 0 0 0 0 0 0 0 0 0 0 0 0 0 0 0 0 0 0 0 0 0 0 0 0 0 0 0 0 0 0 0 0 0
0 0 0 0 0 0 0 0 0 0 0 0 0 0 0 0 0 0 0 0 0 0 0 0 0 0 0 0 0 0 0 0 0 0 0 0 0 0 0 0 0 0 0 0 0 0 0
0 0 0 0 0 0 0 0 0 0 0 0 2 0 0 0 0 0 0 0 0 0 0 0 0 0 0 0 0 0 0 0 0 0 0 0 0 0 0 0 0 0 0 0 0 0 0

GFSGBSN_con_sbcape_018.txt.gz
CAPE
3 3 0 0 2 0 0 5 10 1 1 2 1 1 1 1 4 7 4 3 1 1 0 0 1 1 0 4 0 29 352 280 1 0 0 0 0 0 0 0 0 0 0 0 0 0 0
0 0 0 0 0 0 0 5 8 2 1 1 3 1 1 5 2 3 2 2 0 0 0 1 0 0 0 0 0 1 13 0 0 0 0 0 0 0 0 0 0 0 0 0 0 0 0
0 0 0 0 0 0 0 0 1 4 2 1 1 0 1 2 1 3 2 1 0 0 0 0 0 0 0 0 0 0 0 0 0 0 0 0 0 0 0 0 0 0 0 0 0 0 0
0 0 0 0 0 0 0 0 0 2 1 1 1 0 0 0 1 1 1 0 0 0 1 1 2 0 0 0 0 0 0 0 0 0 0 0 0 0 0 0 0 0 0 0 0 0 0
0 0 0 0 0 0 0 0 0 1 0 0 0 0 0 2 1 0 0 0 0 0 0 1 0 0 0 0 0 0 0 0 0 0 0 0 0 0 0 0 0 0 0 0 0 0 0
0 0 0 0 0 0 0 0 0 0 0 0 0 0 2 0 0 0 0 0 1 0 0 0 0 0 0 0 0 0 0 0 0 0 0 0 0 0 0 0 0 0 0 0 0 0 0
0 0 0 0 0 0 0 0 0 0 0 1 2 3 0 0 0 0 2 0 0 0 0 0 0 0 0 0 0 0 0 0 0 0 0 0 0 0 0 0 0 0 0 0 0 0 0
0 0 0 0 0 0 0 0 0 0 1 0 0 0 0 0 0 0 0 0 0 42 47 0 0 0 0 0 0 0 0 0 0 0 0 0 0 0 0 0 0 0 0 0 0 0 0
0 0 0 0 0 0 0 0 0 0 0 0 0 0 0 0 0 1 0 0 0 0 18 0 0 0 0 0 0 0 0 0 0 0 0 0 0 0 0 0 0 0 0 0 0 0 0
0 0 0 0 0 0 0 0 0 0 0 0 0 0 0 0 0 0 0 0 0 0 0 0 0 0 0 0 0 0 0 0 0 0 0 0 0 0 0 0 0 0 0 0 0 0 0
0 0 0 0 0 0 0 0 0 0 0 0 0 0 0 0 0 0 27 91 0 0 0 0 0 0 0 0 0 0 0 0 0 0 0 0 0 0 0 0 0 0 0 0 0 0 0
0 0 0 0 0 0 0 0 0 0 0 0 0 0 0 0 0 0 0 0 0 0 0 0 0 0 0 0 0 0 0 0 0 0 0 0 0 0 0 0 0 0 0 0 0 0 0
0 0 0 0 0 0 0 0 0 0 0 0 0 0 0 0 96 1 0 0 0 0 0 0 0 0 0 0 0 0 0 0 0 0 0 0 0 0 0 0 0 0 0 0 0 0 0
0 0 0 0 0 0 0 0 0 0 0 0 0 0 0 0 0 0 0 0 0 0 0 0 0 0 0 0 0 0 0 0 0 0 0 0 0 0 0 0 0 0 0 0 0 0 0
1 0 0 0 0 0 0 0 0 0 0 0 0 0 0 0 0 0 0 0 0 0 0 0 0 0 0 0 0 0 0 0 0 0 0 0 0 0 0 0 0 0 0 0 0 0 0
13 0 0 0 0 0 0 0 0 0 0 0 0 0 0 0 0 0 0 0 10 0 0 0 0 0 0 0 0 0 0 0 0 0 0 0 0 0 0 0 0 0 0 0 0 0 0
1 0 0 0 0 0 0 0 0 0 0 0 0 0 0 0 0 0 0 0 22 20 0 0 0 0 0 0 0 0 0 0 0 0 0 0 0 0 0 0 0 0 0 0 0 0 0
0 0 0 0 0 0 0 0 0 0 0 0 0 0 0 0 0 0 0 0 6 0 0 0 0 0 0 0 0 0 0 0 0 0 0 0 0 0 0 0 0 0 0 0 0 0 0
0 0 0 0 0 0 0 0 0 0 0 0 0 50 0 0 0 0 0 0 0 0 0 0 0 0 0 0 0 0 0 0 0 0 0 0 0 0 0 0 0 0 0 0 0 0 0
0 0 0 0 0 0 0 0 0 0 0 0 0 26 0 0 0 0 0 0 0 0 0 0 0 0 0 0 0 0 0 0 0 0 0 0 0 0 0 0 0 0 0 0 0 0 0
0 0 0 0 0 0 0 0 0 0 0 0 0 0 0 0 0 0 0 0 0 0 0 0 0 0 0 0 0 0 0 0 0 0 0 0 0 0 0 0 0 0 0 0 0 0 0
0 0 0 0 0 0 0 0 0 0 0 0 13 0 0 0 0 0 0 0 0 0 0 0 0 0 0 0 0 0 0 0 0 0 0 0 0 0 0 0 0 0 0 0 0 0 0
0 0 0 0 0 1 0 0 0 0 0 0 0 0 0 0 0 0 0 0 0 0 0 0 0 0 0 0 0 0 0 0 0 0 0 0 0 0 0 0 0 0 0 0 0 0 0
0 0 0 0 0 0 0 0 0 0 0 0 0 0 0 0 0 0 0 0 0 0 0 0 0 0 0 0 0 0 0 0 0 0 0 0 0 0 0 0 0 0 0 0 0 0 0
0 0 1 0 0 0 0 0 0 0 0 0 0 0 0 0 0 0 0 0 0 0 0 0 0 0 0 0 0 0 0 0 0 0 0 0 0 0 0 0 0 0 0 0 0 0 0
0 0 0 0 0 0 0 0 0 0 0 0 0 0 0 0 0 0 0 0 0 0 0 0 0 0 0 0 0 0 0 0 0 0 0 0 0 0 0 0 0 0 0 0 0 0 0
0 0 0 0 0 0 0 0 0 0 0 0 0 0 0 0 0 0 0 0 0 0 0 0 0 0 0 0 0 0 0 0 0 0 0 0 0 0 0 0 0 0 0 0 0 0 0
0 0 0 0 0 0 0 0 0 0 0 0 0 0 0 0 0 0 0 0 0 0 0 0 0 0 0 0 0 0 0 0 0 0 0 0 0 0 0 0 0 0 0 0 0 0 0
0 0 0 0 0 0 0 0 0 0 0 20 0 0 0 0 0 0 0 0 0 0 0 0 0 0 0 0 0 0 0 0 0 0 0 0 0 0 0 0 0 0 0 0 0 0 0

GFSGBSN_con_sbcape_024.txt.gz
CAPE
5 0 0 0 0 0 0 0 0 0 0 0 3 7 6 3 4 7 6 3 3 4 3 1 2 2 0 7 0 154 294 188 0 0 0 0 0 0 0 0 0 0 0 0 0 4 237
9 0 0 0 0 0 0 0 0 0 0 0 1 1 6 2 1 7 5 4 0 4 3 3 2 1 0 0 0 133 182 0 0 0 0 0 0 0 0 2 0 0 0 0 0 0 45
0 7 0 0 0 0 0 0 0 0 0 0 0 4 3 7 1 7 5 3 2 0 3 2 1 1 0 4 0 116 14 5 0 0 0 0 0 0 0 0 0 0 0 0 0 0 8
0 8 4 0 0 0 0 0 0 0 0 0 0 3 1 1 1 3 4 0 0 1 1 0 1 1 37 0 0 0 0 0 0 0 0 0 0 0 0 0 0 0 0 0 0 0 0
7 0 10 0 0 0 0 0 0 0 0 0 0 2 1 1 1 0 0 0 0 1 0 0 2 0 27 0 0 0 0 0 0 0 0 0 0 0 0 0 0 0 0 0 0 0 0
43 2 17 0 0 0 0 0 0 0 0 0 0 0 1 1 0 0 0 0 0 1 1 1 0 90 95 0 4 0 0 0 0 0 0 0 0 0 0 0 0 0 1 0 0 0 0
61 22 1 12 0 0 0 0 0 0 0 0 0 1 0 3 1 0 1 0 0 0 0 1 0 9 0 0 0 0 0 0 0 0 24 0 0 0 0 0 0 0 0 0 0 0 85
46 23 0 14 1 0 0 0 0 0 0 0 0 2 1 1 1 0 0 0 0 63 85 18 0 0 0 0 0 0 0 1 23 0 0 5 0 0 0 0 1 1 0 14 0 0 91
55 45 2 0 13 0 0 0 0 0 0 0 0 0 0 1 0 3 0 0 0 2 404 9 6 0 0 0 0 0 6 6 16 7 12 62 40 0 0 13 30 51 69 33 31 9 85
50 50 32 0 1 0 0 0 0 0 0 0 0 0 0 0 0 0 0 0 0 0 14 0 0 0 0 0 0 0 0 18 18 1 130 82 1 47 78 45 60 91 0 27 53 93 124
56 49 52 0 0 8 0 0 0 0 0 0 0 0 0 0 0 0 0 16 262 17 4 0 0 0 0 0 0 0 0 32 48 25 43 123 51 86 124 45 14 70 3 72 22 92 91
54 62 48 20 0 14 0 0 0 0 0 0 0 0 0 3 0 0 0 0 58 124 0 0 0 0 1 0 0 0 4 12 8 65 90 75 2 59 65 2 4 1 41 43 39 58 109
68 68 64 53 0 2 1 0 0 0 0 0 0 0 2 0 0 28 221 17 0 2 0 0 0 0 0 0 0 37 65 78 82 153 192 96 53 9 15 66 41 74 131 98 161 122 65
95 72 86 73 9 1 2 0 0 0 0 0 0 0 1 0 0 0 0 0 0 0 0 0 0 0 0 0 0 6 60 85 15 90 172 132 105 0 0 40 33 56 74 33 0 6 3
137 128 111 77 30 7 10 0 0 0 0 0 0 8 5 0 0 0 0 0 0 0 5 0 0 0 0 0 2 17 37 76 1 25 75 40 0 0 0 0 0 0 0 3 22 0 5
194 150 93 70 42 15 14 0 0 0 0 0 1 2 0 0 0 0 0 0 0 17 0 0 0 0 0 0 0 33 43 0 0 0 0 6 7 0 0 0 0 0 0 0 3 0 0
233 184 124 80 63 15 11 0 0 0 0 0 0 0 36 143 28 66 0 2 0 135 5 0 0 0 0 0 0 2 11 0 0 0 0 0 2 1 0 0 0 0 0 0 0 0 0
237 161 127 112 80 32 28 0 0 0 0 0 0 0 50 0 74 8 0 0 53 56 18 0 3 9 0 3 19 0 0 0 0 0 0 0 0 7 0 0 0 0 0 0 0 0 0
215 184 157 140 57 7 27 0 0 0 0 0 0 134 13 0 56 1 0 0 111 0 0 27 27 20 34 78 36 39 7 0 0 0 0 0 0 2 0 0 0 0 0 0 0 0 0
217 177 153 136 83 0 2 0 0 0 0 13 40 132 175 5 0 0 0 0 0 0 0 11 37 85 103 47 8 34 0 0 0 0 0 0 0 0 16 0 0 0 0 0 0 0 0
231 201 141 52 2 0 1 0 0 0 0 3 118 73 74 31 0 0 0 0 0 19 1 20 51 116 105 97 25 30 0 0 0 0 0 0 0 0 0 0 0 0 0 0 0 0 0
257 172 101 37 23 15 1 0 0 0 0 42 90 93 13 22 0 0 0 0 0 2 48 69 167 82 102 145 39 95 6 0 0 0 0 0 0 0 0 0 0 0 0 0 0 0 0
201 71 90 37 48 37 0 0 0 0 0 60 73 2 82 0 0 0 0 0 0 128 2 4 148 98 75 11 0 0 0 0 0 0 0 0 0 0 0 0 0 0 0 0 0 0 0
112 72 47 19 15 19 0 0 0 0 0 166 265 81 191 4 0 0 0 0 9 135 145 0 18 99 0 0 0 0 0 0 0 0 0 0 0 0 0 0 0 0 0 0 0 0 0
45 59 9 32 3 1 0 0 0 0 0 238 206 171 103 5 0 0 0 0 8 0 3 0 0 0 0 0 0 0 0 0 0 0 0 0 0 0 4 0 0 0 0 0 0 0 0
46 74 30 0 1 0 0 0 0 0 0 176 242 37 283 50 0 0 0 0 61 103 2 0 0 0 0 0 0 15 1 0 0 0 0 0 0 0 0 26 91 0 0 0 0 0 0
56 6 1 1 0 0 0 0 0 0 0 147 146 3 279 515 0 2 0 0 2 41 139 0 0 0 0 0 442 92 1 0 0 0 0 0 0 0 0 1 0 0 0 0 0 0 0
0 1 1 0 0 0 0 0 0 0 0 201 180 16 476 319 0 3 0 0 0 63 196 0 0 0 0 48 226 7 97 0 0 0 0 0 0 3 0 7 0 0 0 3 0 0 0
0 0 0 0 0 0 0 0 0 0 0 67 213 0 73 371 52 0 0 0 0 7 24 0 95 2 1 18 1 0 2 1 0 0 0 0 0 0 0 0 0 0 0 0 0 0 0

GFSGBSN_con_sbcape_027.txt.gz
CAPE
1 0 3 1 0 0 0 0 0 0 0 0 0 0 2 5 4 10 7 1 7 13 5 1 0 1 0 81 63 399 486 194 0 0 0 0 0 0 0 0 0 0 4 0 22 87 8
0 0 1 1 0 0 0 0 0 0 0 0 0 0 0 8 3 5 7 3 5 8 1 0 0 0 0 34 0 172 88 0 0 0 0 0 0 0 0 0 0 1 0 0 0 35 190
11 5 0 6 0 0 0 0 0 0 0 0 0 0 0 4 7 1 6 5 4 7 0 0 2 0 0 81 5 230 60 10 0 0 0 0 0 0 1 0 0 0 0 0 0 1 17
24 6 0 0 0 0 0 0 0 0 0 0 0 0 0 2 4 2 5 3 2 1 1 1 0 0 15 0 12 51 151 75 39 0 0 8 4 0 0 0 0 0 0 2 0 0 69
28 32 22 0 6 0 0 0 0 0 0 0 0 0 1 1 1 1 3 0 0 0 1 0 0 0 126 0 2 7 26 4 12 6 0 0 0 0 1 1 1 0 0 1 0 0 10
42 35 37 16 0 0 0 0 0 0 0 0 0 0 0 1 0 0 0 0 0 0 0 0 0 125 239 14 28 0 2 21 137 38 4 17 0 0 17 16 1 0 1 5 8 4 82
45 45 40 31 0 5 0 0 0 0 0 0 0 0 0 2 1 0 0 0 0 0 0 0 0 11 0 0 0 0 0 0 63 71 108 29 14 1 8 1 0 3 2 5 12 29 3
31 46 30 45 10 12 4 0 0 0 0 0 0 0 1 2 2 0 0 0 0 24 110 0 0 0 0 0 0 0 0 32 48 17 27 10 0 13 0 0 0 0 0 24 4 1 54
30 36 49 37 30 1 16 0 0 0 0 0 0 0 0 1 0 1 0 0 3 0 315 0 0 0 0 0 0 22 0 30 15 10 4 54 32 0 0 0 5 12 21 33 45 48 31
40 34 43 41 38 3 7 6 0 0 0 0 0 0 0 0 0 0 0 0 0 0 264 0 0 0 0 0 0 1 0 39 23 7 22 28 45 23 17 20 36 39 67 56 102 109 73
44 44 40 45 25 5 0 3 0 0 0 0 0 0 0 0 4 0 32 7 123 523 88 0 5 0 0 0 3 0 0 10 12 0 43 14 107 156 112 115 100 44 65 143 156 145 18
56 50 50 59 46 12 0 0 0 0 0 0 0 0 0 5 0 0 0 348 486 328 56 0 0 0 0 0 0 5 0 5 26 44 20 55 38 188 223 116 133 109 179 175 201 140 159
70 67 56 59 52 28 0 0 0 0 0 0 0 0 4 0 0 0 296 418 154 63 3 0 0 0 0 0 0 0 0 0 10 38 65 134 113 111 113 149 140 134 194 266 181 202 199
80 86 78 60 52 44 11 13 0 0 0 0 0 0 4 0 0 22 629 185 65 2 10 0 0 0 0 0 0 0 0 8 2 66 51 151 151 119 107 196 188 156 174 249 89 98 109
28 20 81 68 58 57 26 25 0 0 0 0 0 14 8 0 0 12 467 102 5 6 2 0 0 0 0 0 0 0 9 14 28 14 29 170 40 37 43 82 50 117 66 122 173 165 49
74 37 74 78 74 65 41 13 5 0 0 0 5 14 0 0 0 75 268 11 5 8 0 0 0 0 15 28 0 1 46 97 134 105 198 136 167 16 2 17 21 43 30 33 6 0 6
63 54 87 90 76 77 66 17 14 0 0 0 30 12 19 3 20 51 97 6 8 0 2 0 0 0 2 1 0 11 96 130 109 131 164 121 57 102 0 2 20 55 0 0 20 74 26
40 55 93 104 85 76 91 24 26 0 0 0 50 33 130 596 17 82 31 6 2 14 141 0 0 0 0 5 0 1 62 80 59 89 44 45 36 116 63 0 0 7 28 16 0 0 0
45 76 68 121 101 89 95 33 34 1 0 21 97 155 588 214 95 425 34 1 23 40 105 30 0 13 0 2 11 0 0 12 0 93 18 81 0 39 28 11 1 0 0 0 0 0 0
31 63 124 157 120 118 131 36 30 4 0 107 142 158 270 216 82 87 39 8 0 11 55 30 0 94 102 105 127 84 63 0 0 1 0 0 0 22 100 72 27 0 0 0 0 0 0
44 117 152 173 224 172 63 25 41 2 0 69 290 68 21 148 339 254 35 11 0 5 73 122 135 95 100 140 183 182 145 0 0 0 0 10 17 2 1 0 0 0 0 0 0 0 5
62 120 136 191 164 156 66 10 58 2 0 33 129 171 58 166 194 59 34 14 1 69 140 169 99 32 70 113 135 134 234 70 56 6 15 0 0 0 0 0 0 0 0 0 0 0 0
155 153 187 185 173 121 28 22 14 0 0 16 183 282 299 169 360 45 123 10 6 194 287 226 141 163 221 301 351 291 186 119 79 160 107 14 0 0 0 0 0 0 0 0 0 0 0
163 166 198 198 111 56 2 2 1 0 0 119 189 359 167 277 276 8 22 12 11 250 275 214 300 306 193 26 28 19 0 0 0 0 24 0 0 0 0 0 0 0 0 0 0 0 0
129 153 190 196 106 39 7 10 16 0 0 280 664 546 368 325 55 16 8 7 19 276 361 288 87 161 52 111 83 6 1 0 0 0 0 0 0 0 0 0 0 0 0 0 0 0 0
140 175 147 105 71 22 12 10 4 0 0 33 809 647 489 695 62 2 9 4 159 442 319 0 0 2 0 269 280 83 41 0 0 0 0 0 0 0 0 0 0 0 0 0 0 0 0
86 77 50 42 32 12 8 0 0 0 0 8 858 611 265 120 21 0 9 4 27 299 456 2 0 1 0 537 1131 418 116 0 0 0 0 0 0 0 0 0 0 0 0 0 0 0 0
22 7 33 29 8 0 1 0 0 0 0 9 1014 657 578 417 102 92 6 0 2 227 595 108 67 19 55 283 864 377 669 12 0 0 0 0 0 0 0 3 0 0 0 0 0 0 0
11 13 1 12 1 0 0 0 0 0 0 0 916 521 1045 555 392 253 150 60 62 178 415 101 218 278 287 316 632 595 215 0 64 0 0 0 5 0 0 0 0 0 0 0 0 0 0

GFSGBSN_con_sbcape_030.txt.gz
CAPE
9 4 0 0 0 0 0 0 0 0 0 0 0 0 0 0 1 6 4 3 9 5 2 0 0 0 0 28 42 340 556 235 0 0 2 5 0 0 0 0 0 0 0 0 0 97 54
11 8 0 0 0 0 0 0 0 0 0 0 0 0 0 0 5 9 6 5 5 5 5 0 0 0 0 5 0 215 59 0 0 0 15 0 0 0 0 3 1 0 9 0 0 79 33
9 16 12 9 0 1 0 0 0 0 0 0 0 0 0 0 1 8 2 6 1 4 0 0 0 0 0 0 9 126 4 0 0 0 0 0 0 1 2 19 3 16 0 0 0 1 51
9 20 22 14 1 0 3 0 0 0 0 0 0 0 0 0 0 5 3 4 4 0 0 0 0 0 0 0 0 18 109 94 38 0 1 3 14 1 0 1 4 0 0 0 0 1 27
15 13 18 13 14 0 0 0 0 0 0 0 0 0 0 0 1 3 2 4 0 0 0 0 0 0 2 0 0 0 1 16 53 11 0 0 0 9 0 5 12 0 0 0 0 0 36
19 22 19 10 2 7 0 0 0 0 0 0 0 0 0 0 0 1 3 0 0 0 0 0 0 0 91 8 0 1 0 3 83 56 27 3 2 17 10 38 9 0 0 0 0 0 0
33 25 20 27 11 18 7 0 3 0 0 0 0 0 0 0 0 1 0 0 0 0 0 0 0 0 0 0 0 0 0 36 99 119 123 52 58 17 0 3 0 0 0 7 0 0 0
30 29 28 25 21 3 22 15 4 0 0 0 0 0 0 0 3 1 1 0 7 0 14 0 0 0 0 0 0 0 0 3 118 28 42 85 62 1 0 0 0 1 2 16 0 2 0
37 34 28 30 30 11 18 0 7 0 0 0 0 0 0 0 1 1 0 0 0 0 8 0 0 0 0 0 0 0 0 3 25 1 3 4 2 4 6 0 0 0 5 15 4 0 0
26 32 31 31 36 27 5 0 0 1 0 0 0 0 0 0 0 0 0 0 0 0 0 0 0 0 0 0 0 0 0 0 19 10 62 0 0 0 0 0 0 7 16 2 17 8 7
33 23 41 40 32 19 7 1 0 2 0 0 0 0 0 0 0 0 83 2 241 405 61 0 0 0 0 0 1 0 0 0 21 17 25 67 3 23 0 1 64 1 2 49 26 39 130
52 49 52 49 34 25 12 2 0 0 0 0 0 0 0 4 1 0 0 235 495 314 1 0 0 0 3 0 0 0 0 0 5 3 24 11 0 0 2 61 67 87 81 105 49 68 78
75 75 70 66 50 40 33 11 0 0 0 0 0 0 1 0 0 0 0 432 84 7 0 0 0 0 0 0 0 0 0 0 0 3 27 0 16 52 69 72 38 3 38 234 122 178 280
71 93 88 77 63 56 39 26 0 0 0 0 0 0 1 0 0 8 382 535 12 0 0 0 0 0 0 11 0 0 0 0 0 0 16 31 143 60 41 39 32 65 5 188 28 0 231
93 122 101 58 75 66 59 39 7 5 0 0 0 10 15 0 0 10 270 119 0 0 0 4 0 2 1 6 0 0 0 0 0 0 20 30 4 0 20 9 11 63 62 24 31 314 522
105 117 92 60 56 73 57 56 28 15 0 0 2 21 2 2 0 12 129 16 0 0 19 3 0 0 2 0 0 0 0 0 1 14 74 3 0 26 27 1 15 7 1 111 26 11 0
136 130 103 79 75 58 57 75 38 30 0 0 5 16 0 0 30 58 57 10 24 0 7 16 0 2 12 42 4 1 0 12 64 66 72 113 84 95 20 11 0 39 7 0 0 204 304
143 99 115 101 73 28 72 80 54 50 0 0 18 10 60 170 11 0 51 0 0 7 2 21 34 32 0 47 14 0 4 67 59 41 65 35 59 197 71 22 12 0 59 0 530 3 154
146 142 146 111 94 15 77 59 67 66 0 3 17 67 242 203 0 10 4 0 0 3 36 69 11 9 0 10 5 0 16 219 192 153 101 122 56 73 26 90 39 0 0 0 11 49 45
137 151 169 153 105 5 86 54 80 59 10 13 79 110 283 254 0 20 1 1 0 7 13 77 26 0 39 4 21 35 30 66 50 86 0 88 8 0 168 36 23 36 0 0 0 184 0
144 162 154 138 75 46 97 68 61 67 18 2 121 46 25 34 74 72 212 5 2 16 6 83 37 0 99 151 23 115 46 109 2 2 0 0 0 0 0 10 4 18 2 0 0 0 0
61 111 109 29 101 105 74 91 60 49 26 19 111 86 192 30 45 47 81 55 11 31 37 115 63 30 146 123 142 127 118 172 11 10 0 0 99 0 37 22 0 0 0 0 0 0 0
2 47 105 38 65 60 111 97 67 56 56 48 26 145 164 83 43 68 116 253 54 97 133 123 126 202 218 278 412 412 544 360 160 242 159 185 216 100 0 0 0 0 0 0 0 0 0
42 35 69 60 64 79 143 94 41 40 48 78 51 398 135 138 27 5 154 171 43 83 444 222 289 392 337 258 268 235 137 129 190 171 217 200 258 284 168 0 0 0 0 0 0 0 0
63 66 65 107 118 75 63 86 8 1 2 98 194 397 166 86 68 136 498 389 77 59 375 334 393 438 487 448 335 100 174 0 0 0 3 26 64 70 27 0 0 0 0 0 0 0 0
69 82 101 103 79 60 50 8 4 11 0 5 15 308 496 410 261 43 171 268 163 629 377 53 243 522 568 773 946 292 336 18 2 0 0 0 0 64 0 4 0 0 0 0 0 0 0
70 76 82 71 48 86 55 6 1 0 0 4 32 33 470 103 331 189 132 209 466 698 418 198 19 54 172 1204 695 1042 458 6 167 49 0 0 7 0 0 0 0 0 0 0 0 0 0
91 94 84 85 63 107 40 2 0 0 0 5 17 10 87 292 503 463 242 188 347 697 524 326 212 201 883 568 1031 1040 778 440 165 0 0 0 68 0 78 1 0 0 0 0 1 0 0
103 111 122 107 82 57 51 7 1 0 0 8 6 0 2 340 770 630 284 276 300 490 908 421 629 440 598 793 1146 1368 356 3 307 150 0 24 62 241 5 13 0 0 0 0 0 0 0

GFSGBSN_con_sbcape_036.txt.gz
CAPE
7 7 3 10 3 0 0 3 0 0 0 0 0 0 0 0 0 0 0 0 3 5 1 0 5 1 0 0 0 0 57 140 0 0 0 0 0 0 0 0 0 0 0 8 78 24 45
14 13 12 11 10 3 0 0 3 0 0 0 0 0 0 0 0 0 0 0 0 1 2 2 3 0 0 0 0 0 0 0 0 0 0 0 0 0 0 0 0 0 0 37 35 2 12
18 14 16 12 16 12 10 0 0 0 0 0 0 0 0 0 0 0 0 0 0 0 0 0 0 0 0 0 0 0 0 0 0 0 0 0 0 0 0 0 0 0 0 141 85 29 69
22 22 16 14 19 11 10 0 0 0 1 0 0 0 0 0 0 0 0 0 0 0 1 0 0 0 0 0 0 0 0 0 0 0 0 0 0 0 0 0 0 0 0 0 110 6 4
10 25 21 18 15 16 10 2 0 0 2 0 0 0 0 0 0 0 0 0 0 0 0 0 0 0 0 0 0 0 0 0 0 0 0 0 0 0 0 0 0 0 0 0 17 1 11
11 7 20 22 16 14 21 9 0 0 0 0 0 0 0 0 0 0 0 0 0 0 0 0 0 0 0 0 0 0 0 0 0 0 0 0 0 0 0 0 32 11 0 0 0 3 2
26 12 21 10 26 21 22 25 15 0 0 0 0 0 0 0 0 0 0 0 0 0 0 0 0 0 0 0 0 0 0 0 0 0 0 2 6 1 0 0 0 1 0 0 0 0 51
44 37 39 26 24 32 25 22 24 6 0 0 0 0 0 0 0 0 0 0 0 0 0 0 0 0 0 0 0 0 0 0 0 0 0 0 0 0 0 26 11 0 0 0 0 0 0
71 45 43 36 39 18 33 23 15 20 12 0 0 0 0 0 0 0 0 0 0 0 0 0 0 0 0 0 0 0 0 0 0 0 0 0 0 0 0 2 0 0 0 0 0 0 0
74 62 55 49 41 30 26 27 19 22 11 5 2 0 0 0 0 0 0 0 0 0 0 0 0 0 0 0 0 0 0 0 0 0 0 0 0 0 2 0 0 0 0 0 0 0 0
67 58 62 57 44 15 30 25 21 25 18 0 0 0 0 0 0 0 0 0 0 0 0 0 0 0 0 0 0 0 0 0 0 0 0 0 0 0 0 0 0 0 0 0 0 0 0
95 74 54 71 62 34 22 24 27 21 23 2 0 0 0 0 0 0 0 0 0 0 0 0 0 0 0 0 0 0 0 0 0 1 0 0 0 0 0 0 0 0 0 0 0 0 0
75 88 76 62 83 80 47 25 28 24 29 15 0 0 0 0 0 0 0 0 0 1 0 0 0 0 0 0 0 0 0 0 0 0 0 0 0 0 0 0 0 3 0 0 5 0 0
72 21 99 75 58 96 79 42 32 32 30 29 7 0 0 0 0 0 2 81 1 0 0 0 0 0 0 0 0 0 0 0 0 0 0 0 0 0 0 0 0 0 0 0 1 0 0
61 53 130 98 70 76 91 66 44 34 32 34 24 5 1 0 0 0 41 30 0 0 0 0 0 0 0 0 0 0 0 0 0 0 0 5 2 1 0 0 0 0 0 0 0 0 0
76 64 102 107 82 83 74 87 70 59 40 49 42 34 10 0 0 0 31 5 0 0 0 0 0 0 0 0 0 0 0 0 0 0 0 0 8 0 3 0 0 0 0 1 3 0 1
60 70 137 120 92 80 87 38 60 57 62 61 39 34 24 0 1 5 7 6 0 0 0 0 0 0 0 0 0 0 0 0 0 0 0 2 1 0 0 0 2 0 0 0 0 0 0
44 81 123 117 103 102 99 54 55 61 59 62 32 23 8 1 7 0 13 6 0 0 0 0 3 0 0 0 0 0 0 0 0 0 0 0 0 0 0 0 0 0 0 0 0 0 0
43 74 108 120 115 109 116 83 46 64 59 29 43 74 20 0 0 0 3 20 0 0 0 0 0 0 0 0 0 0 0 21 3 0 0 0 0 1 0 0 0 0 0 0 0 0 0
45 87 90 105 124 116 112 86 59 64 79 41 82 60 60 16 0 0 0 1 0 0 0 0 0 0 0 0 0 0 4 5 1 0 0 1 0 0 0 0 0 0 0 0 0 0 0
45 66 79 85 124 134 138 118 36 61 83 72 60 37 6 23 1 0 0 0 0 0 0 3 0 0 0 0 0 0 0 0 0 0 0 0 0 0 0 0 0 0 0 0 0 0 0
55 71 76 77 115 130 155 110 67 59 66 49 50 40 43 0 5 0 0 0 0 0 0 0 0 0 0 0 0 5 0 0 0 0 0 0 0 0 0 0 0 0 0 0 0 0 0
74 80 79 76 129 140 142 109 53 73 70 23 29 15 42 0 1 1 0 0 0 0 0 0 0 0 0 0 1 1 0 0 0 0 0 0 0 0 0 0 0 0 0 0 0 0 0
74 92 80 81 125 176 153 23 109 74 48 77 22 47 83 6 27 2 0 0 0 0 0 9 0 0 0 0 0 0 0 0 0 0 0 0 0 0 0 0 0 0 0 0 0 0 0
65 83 94 98 130 145 115 85 69 74 48 18 41 11 54 25 17 28 2 0 0 0 0 0 0 0 0 0 5 0 0 0 0 0 0 0 0 0 0 0 0 0 0 0 0 0 0
76 91 99 98 113 110 117 108 64 68 34 5 29 4 3 11 6 36 30 0 0 0 0 4 62 8 36 0 0 0 0 0 0 0 0 0 0 0 0 0 0 0 0 0 0 0 0
78 78 91 90 99 110 125 126 92 61 35 10 10 7 5 13 59 41 21 0 0 0 21 62 55 58 0 0 4 0 0 0 0 0 0 0 0 0 0 0 0 0 0 0 0 0 0
77 60 54 66 99 113 125 109 72 47 28 35 7 20 35 10 0 10 14 0 0 0 0 2 40 4 0 0 1 0 0 0 0 0 0 0 0 0 0 0 0 0 0 0 0 0 0
22 3 13 27 51 70 110 101 44 50 56 38 12 26 33 7 5 1 0 0 0 0 0 0 1 3 0 0 0 0 15 0 0 0 0 0 0 0 0 0 0 0 0 0 0 0 0

GFSGBSN_con_sbcape_039.txt.gz
CAPE
21 15 19 4 11 9 0 0 0 0 0 0 0 0 0 0 0 0 0 0 0 0 0 2 5 1 0 0 0 0 0 5 0 0 0 0 0 0 0 0 0 0 0 3 93 35 48
8 28 23 22 15 14 5 0 0 0 0 0 0 0 0 0 0 0 0 0 0 0 0 2 3 0 0 0 0 0 0 0 0 0 0 0 0 0 0 0 0 0 0 39 29 23 13
8 10 29 21 24 21 19 15 6 0 0 0 0 0 0 0 0 0 0 0 0 0 0 3 0 0 0 0 0 0 0 0 0 0 0 0 0 0 0 0 0 0 6 98 77 27 14
19 13 21 33 21 22 23 14 8 3 0 1 0 0 0 0 0 0 0 0 0 0 0 0 0 0 0 0 0 0 0 0 0 0 0 0 0 0 0 0 0 0 0 41 119 75 16
17 19 9 17 27 23 18 29 10 11 1 0 2 0 0 0 0 0 0 0 0 0 0 0 0 0 0 0 0 0 0 0 0 0 0 0 0 0 0 0 0 0 0 0 0 6 0
50 31 28 12 24 26 30 18 26 6 0 0 0 0 0 0 0 0 0 0 0 0 0 0 0 0 0 0 0 0 0 0 0 0 0 0 0 0 0 0 12 15 8 0 0 6 0
80 51 17 36 11 23 32 27 18 22 2 0 0 0 0 0 0 0 0 0 0 0 0 0 0 0 0 0 0 0 0 0 0 0 0 0 0 5 0 0 0 13 2 0 0 0 0
76 70 50 47 38 28 29 32 20 18 17 3 0 0 0 0 0 0 0 0 0 0 0 0 0 0 0 0 0 0 0 0 0 0 0 0 0 0 0 0 5 1 4 0 0 0 0
44 68 66 62 49 49 26 37 28 19 12 10 3 0 1 0 0 0 0 0 0 0 0 0 0 0 0 0 0 0 0 0 0 0 0 0 0 0 5 0 0 0 0 0 0 0 0
69 66 70 58 61 53 52 27 34 22 22 10 4 0 0 0 0 0 0 0 0 0 0 0 0 0 0 0 0 0 0 0 0 0 0 0 0 0 0 0 0 0 0 0 0 0 0
68 66 62 70 43 51 44 26 39 33 23 20 5 0 0 0 0 0 0 0 0 0 0 0 0 0 0 0 0 0 0 0 0 0 0 0 0 0 0 0 0 0 0 0 0 0 0
37 72 65 59 63 41 47 38 30 23 22 24 9 0 0 0 0 0 0 0 0 0 0 0 0 0 0 0 0 0 0 0 0 0 0 0 0 0 0 0 0 0 0 0 0 0 0
48 27 45 62 85 52 41 46 35 26 30 22 20 6 1 0 0 0 0 0 11 0 0 0 0 0 0 0 0 0 0 0 0 0 0 0 0 0 0 0 0 0 0 0 0 0 0
50 44 36 64 54 82 53 55 39 28 14 26 18 22 3 0 0 0 15 68 3 0 0 0 0 0 0 0 0 0 0 0 0 0 0 0 0 0 0 0 0 0 0 0 0 0 0
73 50 46 46 75 57 72 61 63 37 19 29 32 42 32 1 0 0 51 40 0 0 0 0 0 0 0 0 0 0 0 0 0 0 0 0 0 0 0 0 0 0 0 0 0 0 0
95 70 47 39 60 48 89 71 77 61 41 37 27 43 43 0 0 0 17 7 6 0 0 0 0 0 0 0 0 0 0 0 0 0 0 0 0 0 0 0 0 0 0 0 0 0 0
86 74 56 39 33 70 115 81 86 58 58 52 33 55 11 2 0 0 3 7 4 0 0 0 0 0 0 0 0 0 0 0 0 0 0 0 0 0 0 0 0 0 0 0 0 0 0
75 55 48 37 26 53 111 101 90 64 63 49 39 20 14 9 16 2 0 0 0 0 0 0 0 0 0 0 0 0 0 0 0 0 0 0 0 0 0 0 0 0 0 0 0 0 0
79 39 39 33 45 75 112 80 83 84 69 47 39 63 46 13 1 7 0 0 0 0 0 0 0 0 0 0 0 0 0 0 0 0 0 0 0 0 0 0 0 0 0 0 0 0 0
84 36 29 36 52 91 65 46 65 98 87 42 77 56 82 70 0 2 2 0 0 0 0 0 0 0 0 0 0 0 0 0 0 0 0 0 0 0 0 0 0 11 2 0 0 0 0
64 27 20 35 75 107 53 61 73 52 50 62 54 34 5 47 16 6 0 0 0 0 0 0 0 0 0 0 0 0 0 0 0 0 0 0 0 0 0 0 0 0 0 0 0 0 0
56 22 20 37 72 90 70 108 87 36 13 57 40 68 37 8 18 14 4 4 0 0 0 0 0 0 0 0 0 0 0 0 0 0 0 0 0 0 0 0 0 0 0 0 0 0 0
37 26 29 61 73 77 79 91 76 76 12 31 10 3 49 12 6 22 4 0 0 0 0 0 0 0 0 0 0 0 0 0 0 0 0 0 0 0 0 0 0 0 0 0 0 0 0
35 34 41 71 77 91 82 65 69 72 0 10 1 19 58 8 17 1 1 7 0 0 0 0 0 0 0 0 0 0 0 0 0 0 0 0 0 0 0 0 0 0 0 0 0 0 0
39 44 56 90 77 77 61 56 75 36 11 8 3 44 71 28 1 14 4 3 1 0 0 0 0 0 0 0 0 15 4 1 0 0 0 0 0 0 0 0 0 0 0 0 0 0 0
47 51 70 95 80 62 53 58 69 49 10 27 7 6 33 35 1 31 0 0 0 0 0 0 0 0 0 0 0 4 40 0 0 0 0 0 0 0 0 0 0 0 0 0 0 0 0
43 55 76 78 61 61 70 66 44 22 53 42 4 4 46 37 61 52 59 4 0 0 0 0 0 36 0 0 0 0 0 0 0 0 0 0 0 0 0 0 0 0 0 0 0 0 0
55 64 63 74 73 67 93 92 80 56 37 18 5 35 35 30 0 17 15 64 3 0 0 0 37 5 0 9 0 0 0 0 0 0 0 0 0 0 0 0 0 0 0 0 0 0 0
57 63 72 76 71 82 105 110 95 82 80 31 19 32 57 8 1 0 0 0 0 0 0 0 0 1 1 1 0 0 0 0 0 0 0 0 0 0 0 0 0 0 0 0 0 0 0

GFSGBSN_con_sbcape_042.txt.gz
CAPE
10 23 28 30 10 12 11 13 2 0 0 0 0 0 0 0 0 0 0 0 0 0 0 1 3 0 0 0 0 0 0 0 0 0 0 0 0 0 0 0 0 0 0 0 0 66 20
18 18 26 26 26 25 14 15 18 8 0 0 1 0 0 0 0 0 0 0 0 0 0 1 4 0 0 0 0 0 0 0 0 0 0 0 0 0 0 0 0 0 0 12 60 58 23
21 19 28 28 28 27 23 19 25 19 8 0 0 0 0 0 0 0 0 0 0 0 0 0 2 0 0 0 0 0 0 0 0 0 0 0 0 0 0 0 0 0 81 95 98 9 35
34 23 27 34 22 29 26 22 18 22 16 9 0 0 0 0 0 0 0 0 0 0 0 0 0 0 0 0 0 0 0 0 0 0 0 0 0 0 0 0 0 0 2 92 51 53 3
50 43 29 36 36 25 25 25 23 21 21 11 1 0 1 0 0 0 0 0 0 0 1 0 0 0 0 0 0 0 0 0 0 0 0 0 0 0 0 0 0 0 0 0 1 11 15
22 62 41 38 36 36 25 28 18 18 15 0 0 0 4 1 0 0 0 0 0 0 0 0 0 0 0 0 0 0 0 0 0 0 0 0 0 0 0 0 0 10 5 0 0 16 0
64 60 48 45 44 37 26 28 27 22 16 10 0 0 0 0 0 0 0 0 0 0 0 0 0 0 0 0 0 0 0 0 0 0 0 0 0 0 0 0 0 7 8 0 0 0 58
78 78 62 38 46 46 30 37 31 29 19 21 18 0 0 3 0 0 0 0 0 0 0 0 0 0 0 0 0 0 0 0 0 0 0 0 0 0 0 0 0 0 2 1 0 0 0
67 68 74 61 38 48 52 50 34 26 24 15 14 15 1 3 0 0 0 0 0 0 0 0 0 0 0 0 0 0 0 0 0 0 0 0 0 0 0 0 1 0 0 0 0 0 0
59 50 57 80 50 41 45 47 45 29 21 16 11 13 9 0 0 0 0 0 0 0 0 0 0 0 0 0 0 0 0 0 0 0 0 0 0 0 0 0 0 0 0 0 0 0 0
69 57 38 47 86 68 53 42 45 41 38 19 8 7 2 0 0 0 0 0 0 0 0 0 0 0 0 0 0 0 0 0 0 0 0 0 0 0 0 0 0 0 0 0 0 0 0
77 71 58 38 40 54 77 52 35 33 33 35 15 2 1 2 0 0 0 0 0 0 0 0 0 0 0 0 0 0 0 0 0 0 0 0 0 0 0 0 0 0 0 0 0 0 0
79 76 67 62 45 47 62 66 34 39 36 29 17 11 26 6 0 0 0 0 73 0 0 0 0 0 0 0 0 0 0 0 0 0 0 0 0 0 0 0 0 0 0 0 0 0 0
86 87 75 68 61 63 60 80 50 39 42 33 27 15 26 21 0 0 16 43 5 0 0 0 0 0 0 0 0 0 0 0 0 0 0 0 0 0 0 0 0 0 0 0 0 0 0
106 107 97 72 67 59 52 71 83 43 52 33 16 14 23 13 0 0 19 23 11 0 0 0 0 0 0 0 0 0 0 0 0 0 0 0 0 0 0 0 0 0 0 0 0 0 0
98 106 110 85 66 65 44 57 90 54 62 47 13 16 2 30 1 0 3 5 13 0 0 0 0 0 0 0 0 0 0 0 0 0 0 0 0 0 0 0 0 0 0 0 0 0 0
122 85 108 105 50 55 44 67 117 62 60 69 23 21 0 40 6 5 2 3 1 0 0 0 0 0 0 0 0 0 0 0 0 0 0 0 0 0 0 0 0 0 0 0 0 0 0
141 100 75 100 59 55 49 48 82 72 45 53 48 2 7 9 44 11 14 0 0 0 0 0 0 0 0 0 0 0 0 0 0 0 0 0 0 0 0 0 0 0 0 0 0 0 0
149 156 70 93 58 34 39 56 61 82 42 29 33 24 75 0 7 0 13 13 0 0 0 0 0 0 0 0 0 0 0 0 0 0 0 0 0 0 0 0 0 0 0 0 0 0 0
138 138 112 96 68 24 27 45 75 114 65 10 49 13 69 51 0 0 8 8 0 0 0 0 0 0 0 0 0 0 0 0 0 0 0 0 0 0 0 0 0 0 0 0 0 0 0
146 94 70 82 63 25 23 42 99 87 64 31 75 9 21 35 8 0 0 0 1 0 0 0 0 0 0 0 0 0 0 0 0 0 0 0 0 0 0 0 0 0 0 0 0 0 0
205 108 4 67 45 25 36 42 96 72 94 36 34 30 58 0 0 10 14 7 0 0 0 0 0 0 0 0 0 0 0 0 0 0 0 0 3 0 0 0 0 0 0 0 0 0 0
264 123 16 58 39 34 39 54 66 48 69 16 52 4 48 4 5 9 1 0 0 0 0 0 0 0 0 0 0 0 0 0 0 0 0 0 0 0 0 0 0 0 0 0 0 0 0
257 153 44 54 28 41 52 67 64 67 65 0 31 21 70 21 23 0 0 3 0 0 0 0 0 0 0 0 0 0 0 0 0 0 0 0 0 0 0 0 0 0 0 0 0 0 0
141 124 52 55 34 38 62 66 52 59 43 0 0 50 49 26 2 10 17 0 2 0 0 0 0 0 0 0 0 1 0 0 0 0 0 0 0 0 0 0 0 0 0 0 0 0 0
77 80 77 44 32 36 72 57 34 59 51 0 0 4 17 65 0 12 19 8 0 0 0 0 0 0 4 0 0 0 6 0 0 0 0 0 0 0 0 0 0 0 0 0 0 0 0
55 64 39 37 48 58 51 58 55 45 55 0 0 1 7 21 30 2 12 0 7 0 0 0 0 46 3 0 0 0 0 0 0 0 0 0 0 0 0 0 0 0 0 0 0 0 0
37 28 42 50 51 50 44 30 43 41 49 1 0 23 17 32 3 12 17 2 1 0 0 0 0 0 0 0 0 5 0 0 0 0 0 0 2 0 0 0 0 0 0 0 0 0 0
33 44 47 43 51 50 37 43 72 51 69 4 7 49 36 23 24 0 0 0 0 0 0 0 0 0 0 1 0 0 0 0 0 0 0 0 0 0 0 0 0 0 0 0 0 0 0

GFSGBSN_con_sbcape_045.txt.gz
CAPE
13 7 11 18 20 11 5 7 8 12 1 0 0 0 1 0 0 0 0 0 0 0 0 0 2 0 0 0 0 0 0 0 0 0 0 0 0 0 0 0 0 0 0 0 0 41 52
26 25 20 27 20 7 4 7 12 15 20 13 1 0 0 0 0 0 0 0 0 0 0 0 3 0 0 0 0 0 0 0 0 0 0 0 0 0 0 0 0 0 0 0 34 45 81
35 28 34 36 36 11 8 17 19 15 13 17 7 0 0 1 0 0 0 0 0 0 0 0 2 0 0 0 0 0 0 0 0 0 0 0 0 0 0 0 0 0 18 80 143 52 62
28 41 42 32 33 33 25 23 28 12 17 21 23 0 0 0 0 0 0 0 0 0 0 0 0 0 0 0 0 0 0 0 0 0 0 0 0 0 0 0 0 0 3 119 7 94 42
31 41 37 51 31 31 33 26 25 24 20 19 18 3 0 0 0 1 0 0 0 0 1 0 0 0 0 0 0 0 0 0 0 0 0 0 0 0 0 0 0 0 3 0 0 65 49
41 37 53 69 40 30 34 34 24 25 21 19 19 7 0 0 0 0 0 0 0 0 0 0 0 0 0 0 0 0 0 0 0 0 0 0 0 0 0 0 0 25 0 0 0 56 46
35 27 46 63 65 37 40 34 37 23 25 17 12 19 3 1 1 0 0 0 0 0 0 0 0 0 0 0 0 0 0 0 0 0 0 0 0 0 0 0 0 0 1 12 3 0 86
72 70 57 51 65 46 34 53 41 30 26 26 15 11 13 4 2 0 0 0 0 0 0 0 0 0 0 0 0 0 0 0 0 0 0 0 0 0 0 0 0 0 0 7 0 0 0
47 64 68 50 42 46 60 30 38 36 27 24 19 14 10 5 1 0 0 0 0 0 0 0 0 0 0 0 0 0 0 0 0 0 0 0 0 0 0 0 0 0 0 0 10 0 0
61 60 62 68 62 57 64 75 51 39 31 23 26 13 6 19 0 0 0 0 0 0 0 0 0 0 0 0 0 0 0 0 0 0 0 0 0 0 0 0 0 0 0 0 0 2 5
57 60 70 77 71 48 41 61 76 51 43 28 21 24 7 15 0 0 0 0 0 0 0 0 0 0 0 0 0 0 0 0 0 0 0 0 0 0 0 0 0 0 0 0 0 0 0
91 84 77 73 69 54 29 40 83 65 47 45 30 29 13 21 1 0 0 0 0 1 0 0 0 0 0 0 0 0 0 0 0 0 0 0 0 0 0 0 0 0 0 0 0 0 0
81 89 95 95 77 69 50 33 56 50 68 53 39 34 35 47 3 0 0 4 34 5 0 0 0 0 0 0 0 0 0 0 0 0 0 0 0 0 0 0 0 0 0 0 0 0 5
83 80 94 97 95 79 66 46 21 63 73 59 55 33 22 21 9 0 37 14 5 0 0 0 0 0 0 0 0 0 0 0 0 0 0 0 0 0 0 0 0 0 0 14 0 0 0
102 85 81 87 90 96 80 60 44 30 89 54 60 34 23 25 10 0 25 39 7 0 0 0 0 0 0 0 0 0 0 0 0 0 0 0 0 0 0 0 0 0 0 0 0 0 0
90 92 85 76 80 86 85 72 62 42 84 71 16 57 46 32 35 11 16 11 0 0 0 0 0 0 0 0 0 0 0 0 0 0 0 0 0 0 0 0 0 0 0 0 1 0 0
76 107 118 88 75 81 86 78 65 53 79 88 30 52 13 47 63 31 3 7 0 0 0 0 0 2 0 0 0 0 0 0 0 0 0 0 0 0 0 0 0 0 0 0 0 0 0
79 88 111 135 101 106 94 75 43 54 99 79 23 15 0 75 60 6 2 0 0 0 0 0 0 6 15 0 0 0 0 0 0 0 0 0 0 0 0 0 0 0 0 0 6 0 0
35 75 117 145 164 117 97 58 34 59 92 17 5 19 46 93 4 2 1 8 0 0 0 0 0 0 1 0 0 0 0 0 0 0 0 0 0 0 0 0 0 0 0 0 0 0 0
92 102 93 126 183 174 119 55 32 60 84 26 35 20 75 76 12 0 16 14 18 0 0 0 0 1 3 0 0 0 0 0 0 0 0 0 0 0 0 0 0 0 0 0 0 0 0
83 101 97 95 146 122 133 55 33 79 91 16 47 39 20 25 19 5 5 0 5 2 0 0 0 0 3 0 0 0 0 0 0 0 0 0 0 0 0 0 0 0 0 0 0 0 0
126 99 138 103 99 118 106 47 30 82 121 9 21 19 56 1 5 33 43 20 0 0 0 0 0 0 0 0 0 6 0 0 0 0 0 0 0 0 0 0 0 0 0 0 0 0 0
169 200 225 113 103 136 117 41 42 82 110 11 15 0 13 8 7 2 9 19 12 3 0 0 0 0 2 3 1 0 0 0 0 0 0 0 0 0 0 0 0 0 0 0 0 0 0
192 134 132 96 129 122 112 39 41 88 40 19 35 0 42 43 13 1 5 28 18 0 0 0 0 0 0 5 0 0 0 0 0 0 0 0 0 0 0 0 0 0 0 0 0 0 0
58 49 66 126 127 71 61 31 42 77 80 0 0 0 36 41 26 1 16 17 46 8 0 0 0 0 0 0 0 1 0 0 0 0 0 0 0 0 0 0 0 0 0 0 0 0 0
147 130 211 106 22 31 29 26 50 74 64 2 0 0 43 34 38 15 4 10 26 5 0 0 0 0 0 0 0 0 7 7 0 0 0 0 0 5 0 0 0 0 0 0 0 0 0
205 229 225 61 25 42 28 33 51 73 47 4 2 0 15 104 57 70 47 7 19 9 0 0 0 0 0 0 0 0 0 0 1 0 0 0 0 0 0 0 0 0 0 0 0 0 0
169 135 65 40 34 30 24 34 35 62 65 24 2 0 0 11 13 40 23 45 34 3 0 0 2 0 0 0 0 0 0 0 0 0 0 0 0 0 0 0 0 0 0 0 0 0 0
49 53 42 17 23 28 36 42 60 59 76 6 0 7 6 6 17 20 3 0 1 11 0 0 0 0 0 0 0 0 0 0 0 0 0 0 0 0 0 0 0 0 0 0 0 0 0

GFSGBSN_con_sbcape_048.txt.gz
CAPE
19 18 20 18 17 19 11 16 19 5 8 2 0 0 0 0 11 1 0 0 0 0 0 0 0 0 0 0 0 0 0 0 0 0 0 0 0 0 0 0 0 0 0 0 2 23 419
17 34 28 23 21 19 15 15 19 18 11 15 13 10 1 0 1 0 0 0 0 0 0 0 0 0 0 0 0 0 0 0 0 0 0 0 0 0 0 0 0 5 0 60 89 152 338
25 25 36 47 31 23 22 23 20 18 18 15 13 20 16 2 0 0 0 0 0 0 0 0 0 0 0 0 0 0 0 0 0 0 0 0 0 0 0 5 0 7 41 184 204 367 245
29 29 25 38 42 33 26 24 26 9 14 8 17 13 3 0 0 0 0 0 0 0 0 0 1 0 0 0 0 0 0 0 0 0 0 0 0 0 0 0 1 8 46 101 254 329 265
26 30 33 44 48 43 42 24 28 24 11 14 7 13 4 0 0 0 0 0 0 0 0 0 0 0 0 0 0 0 0 0 0 0 0 0 0 0 0 0 0 12 63 21 41 248 312
30 26 36 49 48 48 54 42 26 27 20 21 15 16 13 0 0 0 0 0 0 0 1 0 0 0 0 0 0 0 0 0 0 0 0 0 0 0 0 0 1 16 22 34 52 233 337
27 52 55 56 39 22 24 45 46 29 25 21 19 15 17 8 0 0 0 5 0 0 0 0 0 0 0 0 0 0 0 0 0 0 0 0 0 0 0 0 0 14 26 63 93 68 194
49 45 37 47 61 34 7 28 40 36 31 27 19 18 17 19 0 0 3 2 0 0 0 0 0 0 0 0 0 0 0 0 0 0 0 0 0 0 0 0 0 27 55 62 65 10 48
56 53 55 53 56 64 40 36 15 18 37 30 22 20 14 12 10 9 16 0 0 0 2 0 0 0 0 0 0 0 0 0 0 0 0 0 0 0 0 0 5 46 80 80 79 42 7
67 61 58 65 68 73 67 57 38 19 35 37 25 22 15 4 12 3 1 0 0 0 3 0 0 0 0 0 0 0 0 0 0 0 0 0 0 0 0 0 1 34 48 37 81 87 57
68 73 74 73 66 68 58 56 42 24 31 45 38 29 25 25 40 15 0 0 0 1 0 0 0 0 0 0 0 0 0 0 0 0 0 0 0 0 0 0 0 9 1 18 46 71 49
72 64 68 79 74 61 73 67 49 27 19 53 32 45 34 40 26 6 0 4 0 3 0 0 0 0 0 0 0 0 0 0 0 0 0 0 0 0 0 0 0 0 5 13 24 67 125
63 70 73 63 66 79 84 82 64 40 30 44 53 31 55 52 15 8 16 101 46 2 0 0 0 0 0 0 0 0 0 0 0 0 0 0 0 0 0 0 0 0 37 91 115 141 154
73 71 72 73 65 69 89 86 59 46 44 58 48 42 8 48 20 84 109 130 1 0 0 0 0 0 0 0 0 0 0 0 0 0 0 0 0 0 0 0 2 10 37 113 81 131 143
77 86 81 70 73 79 73 87 84 41 39 70 74 88 70 10 41 78 120 83 0 0 0 0 0 0 0 0 0 0 0 0 0 0 0 0 0 0 0 0 0 4 20 28 97 19 122
79 77 71 73 66 72 71 70 79 80 36 63 126 67 77 27 26 23 37 7 0 0 0 0 0 0 0 0 0 0 0 0 0 0 0 0 0 0 0 0 0 6 12 46 107 78 50
75 76 81 72 72 61 67 67 73 73 54 60 144 63 33 81 81 25 28 10 0 3 0 5 0 0 0 0 0 0 0 0 0 0 0 0 1 2 4 9 17 6 31 12 45 52 72
50 44 46 76 84 87 75 80 69 68 48 110 79 39 105 206 60 24 9 12 0 1 60 0 22 16 19 0 0 0 0 0 0 0 0 0 0 10 1 2 1 11 24 73 51 14 8
45 51 48 72 82 97 100 99 90 53 50 84 25 53 177 117 29 15 0 31 48 31 46 0 9 44 43 19 0 0 0 0 0 0 0 0 0 7 3 0 0 0 0 0 5 0 3
70 62 59 52 108 114 132 126 99 60 52 68 29 24 89 67 41 2 0 27 45 46 3 18 12 60 66 37 8 0 0 0 0 0 0 1 0 0 2 0 7 0 0 0 14 76 11
65 83 70 59 42 41 155 139 160 61 35 81 28 81 26 36 67 39 5 1 23 50 23 24 22 25 84 63 15 13 0 2 0 0 0 5 9 0 0 0 2 0 0 3 19 23 40
60 50 65 57 51 75 116 133 152 94 31 33 2 71 130 28 13 16 44 1 15 30 8 23 1 0 85 88 54 41 0 1 17 0 0 5 1 5 0 0 0 0 0 0 1 1 39
86 51 68 80 67 92 115 131 139 101 30 21 46 80 104 42 33 29 93 11 0 35 36 7 0 0 47 36 75 26 0 0 0 1 14 16 9 4 0 0 0 0 0 0 0 18 66
38 67 75 82 89 108 113 99 103 103 22 81 53 47 106 61 115 16 2 25 30 8 25 46 39 30 17 25 28 4 0 0 0 17 6 23 30 28 13 1 44 0 0 8 7 13 44
137 193 285 108 105 131 102 96 81 90 33 51 106 88 91 126 32 40 22 29 45 73 62 16 59 0 37 11 0 0 5 0 2 9 41 35 63 43 124 12 1 0 0 0 8 18 34
98 55 199 199 142 135 128 93 53 54 46 48 98 182 133 136 47 35 87 34 73 120 133 35 18 121 70 80 59 23 0 0 6 3 0 0 11 154 0 40 137 0 0 0 0 57 41
45 38 125 139 179 93 68 61 74 38 51 48 58 153 211 78 75 95 121 39 54 86 99 43 73 139 108 114 172 51 1 3 1 27 0 0 0 33 92 94 25 0 0 0 11 119 0
29 43 47 65 59 49 52 48 43 46 61 48 35 69 249 115 91 123 125 89 126 199 196 44 211 185 150 116 112 108 130 22 48 3 19 6 32 36 91 116 28 0 0 0 94 3 0
51 73 57 34 29 29 42 25 37 64 44 50 37 35 66 103 9 6 4 5 15 131 154 152 0 15 34 46 130 66 150 23 15 69 13 7 55 145 37 57 81 0 4 0 13 3 0

GFSGBSN_con_sbcape_054.txt.gz
CAPE
9 5 3 2 15 23 26 30 32 14 10 18 6 17 7 0 0 2 0 0 0 0 0 0 0 0 0 0 0 0 0 0 0 0 0 0 0 0 0 0 0 0 0 0 1 0 0
4 6 16 15 9 4 2 24 45 27 22 5 14 11 10 16 2 0 0 0 0 0 0 0 0 0 0 0 0 0 0 0 0 0 0 0 0 0 0 0 0 0 1 0 0 0 0
15 13 23 29 36 20 8 16 8 40 26 20 9 10 21 15 17 2 0 0 0 0 0 0 0 0 0 0 0 0 0 0 0 0 0 0 0 0 0 0 0 0 0 0 4 0 0
26 33 30 35 29 31 29 26 27 11 41 28 30 11 14 18 11 7 0 0 0 0 1 0 0 0 0 0 0 0 0 0 0 0 0 0 0 0 0 0 0 0 0 0 0 10 6
14 23 34 56 42 34 33 35 31 34 18 37 28 23 9 12 15 10 0 0 0 0 1 0 0 0 0 0 0 0 0 0 0 0 0 0 0 0 0 0 0 0 0 0 7 14 69
17 31 39 37 30 52 42 37 32 31 33 14 33 25 19 15 9 10 0 0 0 1 0 0 0 0 0 0 0 0 0 0 0 0 0 0 0 0 0 0 0 0 0 1 0 18 29
26 26 33 48 48 46 19 55 42 23 28 44 43 45 26 14 16 12 0 0 0 2 3 0 0 0 0 0 0 0 0 0 0 0 0 0 0 0 0 0 1 1 0 0 20 33 29
55 57 44 49 66 55 23 31 46 35 18 22 46 25 44 22 17 10 3 0 0 0 0 0 0 0 0 0 0 0 0 0 0 0 0 0 0 0 0 7 0 0 0 0 3 17 0
60 66 53 40 53 62 47 59 41 25 41 21 27 20 27 26 25 1 0 0 0 0 1 0 0 0 0 0 0 0 0 0 0 0 0 0 0 0 0 0 0 0 0 0 8 3 0
60 55 54 54 56 61 61 63 74 58 33 43 16 30 14 20 0 0 0 0 0 0 2 0 0 0 0 0 0 0 0 0 0 0 0 0 0 0 0 0 0 0 0 0 1 11 6
48 47 50 52 63 67 75 80 89 81 67 60 33 39 29 8 6 3 28 0 15 58 0 0 0 0 0 0 0 0 0 0 0 0 0 0 0 0 0 0 0 0 7 1 0 0 7
56 48 45 53 50 47 55 64 68 70 76 62 60 48 43 38 29 0 3 0 152 25 0 0 0 0 0 0 0 0 0 0 0 0 0 0 0 0 0 0 0 3 1 0 0 5 22
58 60 52 44 42 42 47 55 63 66 73 73 72 59 55 16 32 6 28 76 93 0 0 0 0 0 0 0 0 0 0 0 0 0 0 0 0 0 1 1 1 0 9 12 21 13 57
57 55 53 51 44 36 36 45 52 60 57 74 51 48 43 15 17 10 88 141 9 0 0 0 0 1 0 0 0 0 0 0 0 0 0 0 0 0 0 0 0 0 0 28 12 56 93
61 56 53 47 41 45 46 47 55 61 55 53 61 78 82 83 18 80 48 41 0 0 0 0 0 5 5 0 0 0 0 0 0 0 0 0 1 0 0 0 0 11 0 0 70 57 191
62 56 51 45 44 47 45 46 51 66 75 55 117 95 68 75 131 159 61 12 0 0 0 0 0 3 29 6 0 0 0 0 0 0 0 0 31 3 1 2 0 0 2 38 33 30 61
53 53 61 57 43 34 46 55 54 66 64 45 59 47 32 70 182 81 34 6 0 0 0 0 0 0 0 22 0 0 0 0 0 0 0 1 12 20 2 4 0 0 0 44 66 37 103
37 43 40 51 54 53 54 58 52 54 55 51 22 18 68 68 61 20 24 0 0 0 0 0 0 0 1 13 13 13 0 4 0 0 0 1 33 22 3 2 0 1 7 33 98 47 145
41 39 46 52 65 55 42 61 47 47 59 41 11 26 61 103 24 21 15 0 0 0 0 0 0 0 0 23 35 83 77 7 9 1 13 0 24 26 8 29 18 0 12 19 59 100 124
45 55 29 41 50 44 43 60 27 44 65 39 4 3 69 52 19 16 14 0 0 0 0 0 2 36 24 0 31 32 13 43 43 0 1 5 29 30 17 4 22 24 27 38 71 91 64
82 78 63 69 95 84 79 74 67 43 54 34 10 8 19 13 22 24 47 0 2 10 0 0 0 20 38 56 2 0 39 58 6 2 4 55 38 81 33 13 49 39 5 1 34 37 74
75 82 89 96 100 95 78 49 94 92 69 41 0 28 59 26 27 29 28 29 5 2 1 0 0 0 26 17 10 0 44 56 15 16 5 52 51 95 77 3 5 3 4 0 0 3 13
73 66 63 61 60 62 75 64 55 59 82 50 3 18 62 15 85 75 32 9 1 8 17 0 0 47 125 0 144 160 0 0 52 38 54 69 126 100 41 47 25 0 0 5 6 16 19
56 60 61 58 60 68 66 71 60 75 84 5 9 34 22 29 108 35 5 7 4 19 9 3 31 63 28 172 318 130 0 0 0 27 49 48 113 117 104 56 19 0 1 0 1 0 9
47 55 66 60 57 64 59 63 74 72 92 43 30 32 48 112 118 65 8 28 27 43 68 69 62 3 119 532 214 53 4 0 0 13 0 2 31 112 93 57 21 0 0 0 13 0 3
61 60 64 74 77 76 72 80 89 89 104 76 21 67 159 117 253 33 89 52 74 68 83 26 7 141 216 94 220 4 7 0 0 0 11 25 1 21 234 41 0 0 0 9 36 7 15
41 46 57 79 92 111 160 131 104 90 104 87 37 55 225 94 237 291 242 251 147 61 80 98 61 273 491 243 158 124 65 7 10 12 1 9 0 31 88 76 21 0 4 15 31 7 150
17 40 43 64 87 136 160 188 175 112 93 91 30 34 96 61 369 194 79 93 174 207 99 124 204 331 100 216 197 126 172 28 2 0 92 41 25 65 102 74 20 16 35 55 50 162 306
41 31 32 51 83 123 127 175 203 121 55 63 43 58 371 361 131 139 171 233 195 159 238 254 187 166 93 30 174 197 454 294 30 50 116 78 3 10 109 76 127 28 59 135 184 303 342

GFSGBSN_con_sbcape_057.txt.gz
CAPE
12 11 12 13 6 0 0 0 12 29 22 11 2 11 4 15 17 15 5 0 0 0 0 1 3 1 0 0 0 0 0 0 0 0 0 0 0 0 0 0 0 0 0 0 0 0 0
16 17 15 15 15 7 0 0 16 6 21 24 16 8 4 4 6 10 14 0 0 0 0 0 4 1 0 0 0 0 0 0 0 0 0 0 0 0 0 0 0 0 0 0 0 0 0
11 21 33 30 19 13 4 19 15 19 9 25 25 21 3 4 4 4 12 7 0 0 0 0 4 5 4 0 0 0 0 0 0 0 0 0 0 0 0 0 0 0 0 0 0 0 0
15 15 11 24 38 31 27 28 27 19 32 21 33 26 22 4 4 4 7 2 0 0 0 0 4 0 1 0 0 0 0 0 0 0 0 0 0 0 0 0 0 0 0 0 0 0 0
16 24 24 34 40 27 38 35 33 27 31 35 31 17 22 18 10 7 2 0 0 0 0 0 4 0 0 0 0 0 0 0 0 0 0 0 0 0 0 0 0 0 0 0 0 0 29
21 22 30 45 46 37 38 24 37 30 33 30 35 36 36 27 14 4 0 0 0 0 0 0 3 0 0 0 0 0 0 0 0 0 0 0 0 0 0 0 0 0 0 0 0 0 33
19 28 26 39 53 47 25 41 37 29 35 39 33 48 43 37 20 7 0 0 0 0 0 0 0 0 0 0 0 0 0 0 0 0 0 0 0 0 0 0 0 0 0 0 0 11 1
26 28 27 38 59 40 42 51 47 29 17 47 32 47 36 18 28 10 1 0 0 0 0 0 0 0 0 0 0 0 0 0 0 0 0 0 0 0 0 0 0 0 0 0 0 1 0
44 57 40 43 45 46 46 59 57 53 45 48 46 36 40 16 11 0 0 0 0 0 0 0 0 0 0 0 0 0 0 0 0 0 0 0 0 0 0 0 0 0 0 0 0 4 0
56 62 63 46 53 66 58 59 63 54 54 53 56 39 20 14 0 0 0 0 0 0 0 0 0 0 0 0 0 0 0 0 0 0 0 0 0 0 0 0 0 0 0 0 0 0 0
64 56 61 77 81 66 60 53 69 68 70 70 53 56 43 27 0 0 0 0 0 0 0 0 0 0 0 0 0 0 0 0 0 0 0 0 0 0 0 0 0 0 0 0 0 0 0
57 55 63 77 75 66 56 52 67 79 84 73 61 72 65 25 0 0 0 0 7 18 0 0 0 0 0 0 0 0 0 0 0 0 0 0 0 0 0 0 0 0 0 0 0 0 0
65 66 71 67 69 64 54 56 64 68 81 80 71 68 66 10 0 0 3 7 29 11 0 0 0 0 0 0 0 0 0 0 0 0 0 0 0 0 0 0 0 0 0 0 0 0 0
79 77 73 62 61 64 55 51 54 56 61 71 72 74 68 19 0 0 6 52 19 0 0 0 0 0 0 0 0 0 0 0 0 0 0 0 0 0 0 0 0 0 0 0 0 0 0
80 72 64 63 81 76 61 55 49 55 55 65 45 66 55 9 0 14 28 33 0 0 0 0 0 0 0 0 0 0 0 0 0 0 0 0 0 0 0 0 0 0 0 0 0 48 0
73 67 79 72 68 69 68 63 61 55 53 49 43 59 21 11 1 16 12 8 0 0 0 0 0 0 0 2 1 0 0 0 0 0 0 0 0 0 0 0 0 0 0 0 0 5 9
77 81 77 69 61 56 62 72 80 73 58 40 30 44 9 4 47 48 18 1 0 0 0 0 0 0 0 0 0 0 0 0 0 0 0 0 0 0 0 0 0 0 0 0 11 9 15
75 74 68 59 52 41 60 66 75 86 51 42 29 16 5 8 22 22 4 0 0 0 0 0 0 0 0 0 0 0 0 0 0 0 0 0 0 0 0 0 0 0 0 0 8 0 7
63 61 58 52 50 41 35 61 83 69 62 32 17 8 17 7 1 4 5 1 0 0 0 0 0 0 0 0 0 21 17 0 13 0 0 0 0 0 0 0 0 0 0 0 0 20 6
59 56 52 55 53 44 53 65 55 59 69 33 1 1 15 28 0 0 3 2 6 0 0 0 0 0 0 0 0 32 2 0 0 0 0 0 0 0 0 0 0 0 0 0 0 0 0
62 57 53 52 56 48 41 39 65 61 51 41 1 1 2 1 8 1 0 0 2 6 0 0 0 0 0 0 1 3 39 4 0 0 0 0 0 0 0 0 0 0 0 0 0 0 4
59 61 56 55 55 81 66 60 40 33 63 50 0 5 17 0 10 18 17 3 0 0 0 0 0 0 0 0 0 0 135 20 6 0 0 1 0 0 0 0 0 0 0 0 1 14 15
76 80 85 94 88 89 97 89 94 90 85 27 2 0 0 6 4 26 4 0 1 0 0 0 0 0 0 0 7 323 122 1 0 5 1 0 0 3 0 0 0 0 0 0 0 0 0
86 83 80 80 87 99 103 92 93 87 102 34 0 1 1 22 7 0 2 1 1 20 6 0 1 0 0 232 402 58 0 3 0 0 0 1 1 5 0 0 0 0 0 0 0 0 0
67 62 62 67 71 72 61 62 56 62 70 63 2 4 1 0 2 0 0 0 0 0 0 0 0 0 0 0 28 66 17 6 0 0 0 0 3 4 11 3 0 0 0 0 0 0 0
62 67 74 68 72 65 64 60 63 73 65 65 20 11 22 2 5 0 0 0 0 0 0 0 0 0 1 0 6 10 9 15 2 0 0 0 4 0 4 26 1 0 0 0 0 0 0
52 43 56 62 64 63 70 69 57 60 77 54 39 1 19 3 12 1 2 0 0 0 1 0 0 0 2 0 7 10 41 45 0 0 0 0 0 0 1 0 5 5 0 1 0 0 0
44 44 46 43 42 50 56 68 74 38 62 74 34 10 20 9 8 26 139 0 7 13 3 0 8 30 63 0 0 0 3 7 0 0 0 1 1 0 0 6 2 30 22 3 0 0 0
49 26 21 27 29 38 64 80 106 104 64 67 32 25 12 74 39 22 128 30 80 254 128 8 8 34 6 18 8 0 56 1 0 0 41 49 0 12 0 0 0 0 22 0 0 0 87

GFSGBSN_con_sbcape_060.txt.gz
CAPE
15 11 7 2 4 3 6 7 22 15 8 7 9 7 10 10 8 5 4 9 7 1 0 0 0 10 0 0 0 0 0 0 0 0 0 0 0 0 0 0 0 0 0 0 0 0 3
17 26 30 26 20 12 7 5 26 24 28 11 11 9 12 4 15 6 7 7 3 3 0 0 0 20 1 0 0 0 0 0 0 0 0 0 0 0 0 0 0 0 0 0 0 0 2
15 15 36 32 35 28 20 31 36 41 34 35 26 15 9 7 16 9 7 1 0 0 0 0 0 22 3 0 0 0 0 0 0 0 0 0 0 0 0 0 0 0 0 0 0 0 0
16 16 16 31 28 29 22 32 30 34 38 34 27 27 13 4 3 4 0 0 0 0 0 0 0 19 0 0 0 0 0 0 0 0 0 0 0 0 0 0 0 0 0 0 0 0 0
7 21 20 23 31 29 22 25 23 28 33 30 26 15 18 12 5 0 0 0 0 0 0 0 2 0 0 0 0 0 0 0 0 0 0 0 0 0 0 0 0 0 0 0 0 0 0
11 24 33 24 32 36 37 32 35 31 35 44 32 28 30 30 13 0 0 0 0 0 0 0 5 0 0 0 0 0 0 0 0 0 0 0 0 0 0 0 0 0 0 0 0 0 2
32 15 27 25 18 20 26 31 38 41 37 41 54 35 32 32 4 0 0 0 0 0 0 0 0 0 0 0 0 0 0 0 0 0 0 0 0 0 0 0 0 0 0 0 0 0 20
27 15 20 23 24 30 30 40 56 51 43 44 46 54 32 35 0 0 0 0 0 0 0 0 0 0 0 0 0 0 0 0 0 0 0 0 0 0 0 0 0 0 0 0 0 0 2
28 11 20 27 38 42 47 54 57 56 55 58 48 59 48 20 0 0 0 0 0 0 0 0 0 0 0 0 0 0 0 0 0 0 0 0 0 0 0 0 0 0 0 0 0 0 0
14 48 49 39 42 51 72 62 66 60 52 52 60 48 48 11 0 0 0 0 0 0 0 0 0 0 0 0 0 0 0 0 0 0 0 0 0 0 0 0 0 0 0 0 0 0 0
59 66 68 51 57 85 86 74 81 65 56 70 57 59 52 29 0 0 0 0 0 0 0 0 0 0 0 0 0 0 0 0 0 0 0 0 0 0 0 0 0 0 0 0 0 0 0
63 75 59 80 81 86 93 88 63 60 58 69 76 65 59 6 0 0 0 0 2 1 0 0 0 0 0 0 0 0 0 0 0 0 0 0 0 0 0 0 0 0 0 0 0 0 0
65 56 53 79 92 101 101 89 71 62 55 69 76 76 61 0 0 0 0 0 36 2 0 0 0 0 0 0 0 0 0 0 0 0 0 0 0 0 0 0 0 0 0 0 0 0 0
66 67 76 89 94 98 91 78 66 51 56 49 45 59 40 0 0 0 4 28 2 0 0 0 0 0 0 0 0 0 0 0 0 0 0 0 0 0 0 0 0 0 0 0 0 0 0
62 62 77 95 91 76 76 68 58 61 52 41 45 31 32 0 0 1 12 1 0 0 0 0 0 0 0 0 0 0 0 0 0 0 0 0 0 0 0 0 0 0 0 0 0 0 0
64 66 82 73 73 79 75 70 70 59 61 45 34 35 11 0 0 16 13 0 0 0 0 0 0 0 0 0 0 0 0 0 0 0 0 0 0 0 0 0 0 0 0 0 0 0 0
66 85 86 75 70 66 74 87 59 63 63 44 25 19 13 0 13 34 0 4 0 0 0 0 0 0 0 0 0 0 0 0 0 0 0 0 0 0 0 0 0 0 0 0 0 0 0
87 89 77 71 80 89 96 94 89 75 46 49 24 3 6 6 7 10 4 0 0 0 0 0 0 0 0 0 0 0 0 0 0 0 0 0 0 0 0 0 0 0 0 0 0 0 0
91 81 72 75 82 75 76 84 74 77 56 50 21 10 2 0 2 6 0 0 1 0 0 0 0 0 0 0 0 0 0 0 0 0 0 0 0 0 0 0 0 0 0 0 0 0 0
76 71 81 101 89 78 75 66 65 75 78 58 2 1 18 7 0 0 0 5 9 6 0 0 0 0 0 0 0 0 0 1 4 10 0 0 0 0 0 0 0 0 0 0 0 0 0
94 90 87 82 75 72 70 71 66 72 65 61 2 0 0 2 10 8 0 0 2 10 10 0 0 0 0 0 0 0 0 12 45 23 0 1 0 0 0 0 0 0 0 0 0 0 0
98 91 76 66 69 70 70 63 62 58 66 37 0 2 6 0 12 13 12 0 0 2 12 0 0 0 0 0 0 0 0 0 14 23 0 1 3 0 0 0 0 0 0 0 0 0 0
92 82 72 72 73 80 79 69 63 54 57 26 20 0 0 1 12 5 1 0 5 1 0 0 0 0 0 0 0 0 17 107 130 22 1 0 15 6 0 0 0 0 0 0 0 0 0
77 80 76 78 86 91 88 71 61 40 53 4 0 8 0 0 0 0 0 3 0 4 2 0 0 0 0 0 26 17 0 1 2 15 12 0 1 12 0 0 0 0 0 0 0 0 0
84 83 77 88 95 101 98 92 58 64 64 11 7 16 12 0 0 0 0 0 0 0 0 0 0 0 0 0 2 0 0 0 0 0 65 38 5 0 16 0 0 0 0 0 0 0 0
70 78 88 77 65 61 64 68 84 65 61 35 13 8 13 5 2 0 0 0 0 0 0 0 0 0 0 0 0 0 0 0 1 2 9 0 0 0 0 1 17 0 0 0 0 0 0
65 63 65 78 86 80 71 68 62 56 65 28 31 1 11 3 1 0 0 0 0 0 0 0 0 0 0 0 0 0 0 1 0 0 1 0 0 0 0 12 0 0 0 0 3 0 0
31 36 27 37 48 59 67 66 72 54 64 62 15 2 8 4 0 2 12 0 0 0 0 0 0 0 10 1 0 0 0 4 14 2 0 6 0 0 1 6 1 0 13 0 0 0 0
49 42 41 48 52 53 61 69 73 82 46 69 44 32 37 13 9 23 0 22 1 0 0 0 0 0 3 0 0 0 0 0 0 1 3 40 0 0 0 0 17 0 0 0 0 0 0

GFSGBSN_con_sbcape_063.txt.gz
CAPE
19 30 33 30 23 16 14 13 29 31 24 25 16 0 0 4 16 8 2 1 0 0 0 0 0 0 0 0 0 0 0 0 0 0 0 0 0 0 0 0 0 0 0 0 0 0 0
16 15 17 14 19 23 34 29 32 36 40 23 24 32 18 0 0 10 4 0 0 0 0 0 0 0 2 0 0 0 0 0 0 0 0 0 0 0 0 0 0 0 0 0 0 0 0
12 16 27 33 28 23 17 43 39 40 46 40 21 18 29 0 0 0 0 0 0 0 0 0 0 2 2 0 0 0 0 0 0 0 0 0 0 0 0 0 0 0 0 0 0 0 1
24 28 9 36 37 39 35 36 39 32 28 49 34 31 21 25 1 0 0 0 0 0 0 0 0 8 1 0 0 0 0 0 0 0 0 0 0 0 0 0 0 0 0 0 0 0 0
18 28 31 39 40 39 34 33 36 21 38 33 38 33 19 12 9 0 0 0 0 0 0 0 0 2 0 0 0 0 0 0 0 0 0 0 0 0 0 0 0 0 0 0 0 0 0
29 23 28 26 39 38 28 28 29 28 34 37 37 31 17 1 0 0 0 0 0 0 0 1 7 0 0 0 0 0 0 0 0 0 0 0 0 0 0 0 0 0 0 0 0 0 0
35 33 39 29 22 24 25 18 27 38 36 36 42 31 27 1 0 0 0 0 0 0 0 0 0 0 0 0 0 0 0 0 0 0 0 0 0 0 0 0 0 0 0 0 0 0 0
36 33 39 26 23 23 32 33 45 49 45 52 60 43 39 25 0 0 0 0 0 0 4 0 0 0 0 0 0 0 0 0 0 0 0 0 0 0 0 0 0 0 0 0 0 0 0
36 35 31 17 26 32 36 34 60 53 47 41 49 55 51 21 5 0 0 0 0 0 2 0 0 0 0 0 0 0 0 0 0 0 0 0 0 0 0 0 0 0 0 0 0 0 0
42 57 30 23 34 38 46 49 58 66 59 51 50 49 29 15 0 0 0 0 0 0 2 0 0 0 0 0 0 0 0 0 0 0 0 0 0 0 0 0 0 0 0 0 0 0 0
47 42 50 49 55 66 74 80 78 71 62 57 53 68 50 29 0 0 0 0 0 0 0 0 0 0 0 0 0 0 0 0 0 0 0 0 0 0 0 0 0 0 0 0 0 0 0
58 45 65 61 63 72 91 106 77 66 68 62 68 78 43 21 0 0 0 0 1 10 0 0 0 0 0 0 0 0 0 0 0 0 0 0 0 0 0 0 0 0 0 0 0 0 0
66 49 52 52 63 70 108 114 92 75 68 63 57 80 43 0 0 0 0 0 27 5 0 0 0 0 0 0 0 0 0 0 0 0 0 0 0 0 0 0 0 0 0 0 0 0 0
59 60 70 58 56 73 102 113 104 87 63 67 50 47 16 0 0 0 0 18 13 0 0 0 0 0 0 0 0 0 0 0 0 0 0 0 0 0 0 0 0 0 0 0 0 0 0
53 42 58 74 49 73 96 95 72 76 69 56 54 35 14 0 0 0 5 15 10 0 0 0 0 0 0 0 0 0 0 0 0 0 0 0 0 0 0 0 0 0 0 0 0 0 0
39 45 61 69 62 78 85 85 93 75 71 74 59 41 10 0 0 0 13 8 3 0 0 0 0 0 0 0 0 0 0 0 0 0 0 0 0 0 0 0 0 0 0 0 0 0 0
46 36 47 64 77 86 94 90 91 78 81 71 53 23 10 0 0 12 7 8 3 0 0 0 0 0 0 0 0 0 0 0 0 0 0 0 0 0 0 0 0 0 0 0 0 0 0
69 67 71 82 87 91 93 94 87 83 77 68 47 4 1 0 2 5 0 5 4 0 0 0 0 0 0 0 0 0 0 0 0 0 4 0 0 0 0 0 0 0 0 0 0 0 0
68 76 84 86 102 101 100 84 81 74 91 54 19 8 3 0 1 6 0 0 0 0 0 0 0 0 0 0 0 0 0 0 25 35 11 1 0 0 0 0 0 0 0 0 0 0 0
89 100 97 96 98 92 84 72 83 80 83 45 2 1 16 6 0 0 3 1 5 0 0 0 0 0 0 0 0 0 0 0 6 88 23 20 7 1 0 0 0 0 0 0 0 0 0
82 92 90 85 89 85 81 74 97 84 84 48 1 1 2 1 7 1 2 1 5 2 0 0 0 0 0 0 0 0 0 0 11 80 36 17 7 0 0 0 0 0 0 0 0 0 0
129 126 112 117 98 110 107 104 92 87 92 41 0 2 5 0 13 10 8 3 2 1 3 0 0 0 0 0 0 0 0 0 0 26 76 10 0 0 0 0 0 0 0 0 0 0 0
117 112 98 94 93 101 102 90 78 86 94 22 16 1 8 4 3 7 5 6 6 12 1 0 0 0 0 0 0 0 0 0 0 74 3 0 0 0 0 0 0 0 0 0 0 0 0
96 95 88 92 88 90 88 75 67 66 89 27 22 18 11 2 0 3 7 1 0 5 0 0 0 0 0 0 11 15 21 4 0 45 38 3 0 0 0 0 0 0 0 0 0 0 0
83 81 86 92 85 82 76 69 67 67 80 33 0 20 16 10 12 2 9 0 0 0 2 0 0 0 0 0 0 0 0 0 0 6 37 0 0 0 0 0 0 0 0 0 0 0 0
79 79 82 80 74 44 48 70 69 75 90 67 23 3 0 16 3 6 4 0 0 0 0 0 0 0 0 0 0 0 0 0 0 6 11 45 4 0 0 0 0 0 0 0 0 0 0
85 113 105 98 97 93 89 59 43 51 57 60 15 7 1 0 3 10 0 0 0 0 0 0 0 0 0 0 0 2 0 0 0 0 8 0 0 7 0 1 0 0 0 10 3 0 0
69 78 76 77 58 56 61 60 70 92 54 49 6 11 2 6 2 11 10 4 0 0 0 0 0 0 0 0 0 0 0 0 0 0 1 0 0 0 0 0 0 0 0 1 0 0 0
44 62 61 57 51 44 63 66 56 60 63 56 13 19 10 4 4 0 0 0 0 0 0 0 0 0 0 0 0 0 0 0 0 0 0 4 0 0 0 0 0 0 0 0 0 0 0

GFSGBSN_con_sbcape_066.txt.gz
CAPE
23 22 28 30 27 23 32 32 34 34 26 15 6 0 0 0 1 2 0 0 0 0 0 0 0 0 0 0 0 0 0 0 0 0 0 0 0 0 0 0 0 0 0 0 0 0 0
23 25 21 19 25 22 18 14 10 35 37 36 32 16 0 0 0 0 0 0 0 0 0 0 0 1 0 0 0 0 0 0 0 0 0 0 0 0 0 0 0 0 0 0 0 0 0
16 13 18 23 29 32 24 20 17 31 42 38 37 39 34 4 0 0 0 0 0 0 0 0 0 2 3 0 0 0 0 0 0 0 0 0 0 0 0 0 0 0 0 0 0 0 0
30 21 16 12 50 38 32 25 16 18 28 26 25 35 34 38 18 1 0 0 0 0 0 1 2 3 0 0 0 0 0 0 0 0 0 0 0 0 0 0 0 0 0 0 0 0 0
30 30 33 34 26 49 50 31 29 17 23 54 47 44 44 35 10 0 0 0 0 0 1 6 0 2 0 0 0 0 0 0 0 0 0 0 0 0 0 0 0 0 0 0 0 0 0
30 18 30 35 33 29 25 37 44 41 38 44 55 47 40 23 18 4 0 0 0 0 0 0 8 0 0 0 0 0 0 0 0 0 0 0 0 0 0 0 0 0 0 0 0 0 0
35 33 34 28 28 17 20 28 40 45 47 48 55 57 47 20 14 12 0 0 0 0 0 0 0 0 0 0 0 0 0 0 0 0 0 0 0 0 0 0 0 0 0 0 0 0 0
37 33 30 19 21 19 14 19 39 49 59 47 50 52 48 24 30 13 0 0 0 0 2 0 0 0 0 0 0 0 0 0 0 0 0 0 0 0 0 0 0 0 0 0 0 0 0
51 33 15 28 29 16 27 33 52 61 59 51 47 54 42 29 18 0 0 0 0 0 5 0 0 0 0 0 0 0 0 0 0 0 0 0 0 0 0 0 0 0 0 0 0 0 0
55 40 42 50 39 24 47 41 37 46 72 62 64 56 42 31 0 0 0 0 0 0 2 0 0 0 0 0 0 0 0 0 0 0 0 0 0 0 0 0 0 0 0 0 0 0 0
55 53 49 55 40 45 54 42 40 51 77 64 56 59 40 47 0 0 0 0 0 0 0 0 0 0 0 0 0 0 0 0 0 0 0 0 0 0 0 0 0 0 0 0 0 0 0
66 54 53 52 55 58 49 46 62 80 89 79 77 82 64 14 2 0 0 0 3 0 0 0 0 0 0 0 0 0 0 0 0 0 0 0 0 0 0 0 0 0 0 0 0 0 0
88 66 62 65 53 40 36 39 74 79 75 77 73 96 64 0 0 0 0 0 16 1 0 0 0 0 0 0 0 0 0 0 0 0 0 0 0 0 0 0 0 0 0 0 0 0 0
77 60 67 61 52 53 38 49 82 70 80 78 67 60 21 0 0 0 0 8 12 0 0 0 0 0 0 0 0 0 0 0 0 0 0 0 0 0 0 0 0 0 0 0 0 0 0
69 55 80 66 60 46 43 46 79 69 78 75 68 37 33 0 0 0 0 4 1 1 0 0 0 0 0 0 0 0 0 0 0 0 0 0 0 0 0 0 0 0 0 0 0 0 0
73 86 64 83 89 55 62 46 72 89 96 95 27 64 41 0 0 0 4 0 7 2 0 0 0 0 0 0 0 0 0 0 0 0 0 0 0 0 0 0 0 0 0 0 0 0 0
73 63 53 79 56 73 44 55 93 102 104 93 62 49 26 0 0 5 0 0 0 0 0 0 0 0 0 0 0 0 0 0 0 0 0 0 0 0 0 0 0 0 0 0 0 0 0
63 51 57 46 43 51 46 68 87 112 103 92 65 32 6 0 1 1 6 0 0 0 0 0 0 0 0 0 0 0 0 4 0 0 0 0 0 0 0 0 0 0 0 0 0 0 0
67 54 42 41 58 62 75 73 128 120 110 52 44 18 6 0 1 0 1 0 0 0 0 0 0 0 0 0 0 0 0 0 19 19 20 0 0 0 0 0 0 0 0 0 0 0 0
50 59 43 38 62 102 117 128 158 100 109 75 1 1 18 9 2 3 0 2 0 0 0 0 0 0 0 0 0 0 0 0 0 11 36 25 27 32 5 3 0 0 0 0 0 0 0
63 67 78 84 96 104 116 128 117 92 114 85 1 0 2 0 2 0 0 4 1 7 0 0 0 0 0 0 0 0 0 0 0 0 33 21 6 13 17 0 0 0 0 0 0 0 0
68 71 75 87 102 108 105 84 109 102 114 91 0 5 14 7 8 8 1 1 4 1 2 0 0 0 0 0 0 0 0 0 0 0 31 21 0 0 0 2 0 0 0 0 0 0 0
90 107 109 105 94 97 93 91 89 99 78 30 8 8 52 32 13 7 0 5 1 6 1 0 0 0 0 0 0 0 0 0 0 0 0 7 6 0 0 0 0 0 0 0 0 0 0
118 106 80 74 84 98 89 84 112 96 72 34 12 28 13 17 7 4 11 0 4 0 0 0 0 0 0 0 0 0 0 0 0 0 0 2 2 1 0 0 0 0 0 0 0 0 0
71 76 72 86 73 90 92 92 99 115 102 49 45 49 18 2 67 4 17 2 0 0 2 0 0 0 0 0 2 0 0 0 0 0 0 0 0 8 21 0 0 0 0 0 0 0 0
99 73 73 57 93 76 72 78 85 97 112 73 55 36 48 21 1 31 10 17 2 0 0 0 0 0 0 6 16 21 5 0 0 1 1 2 1 35 2 14 0 0 0 0 1 0 0
95 89 64 54 28 61 78 78 78 79 94 73 26 21 2 0 27 16 18 32 1 0 0 0 0 0 0 0 13 27 10 1 0 1 1 3 16 9 24 12 0 0 0 25 54 0 0
41 49 58 55 52 44 51 43 43 46 75 64 21 21 8 4 12 35 18 2 2 0 0 0 0 1 0 1 8 9 0 0 0 0 14 6 0 0 2 2 0 0 0 6 5 0 0
33 29 39 58 47 49 56 59 61 46 26 31 5 29 16 4 4 0 0 0 0 0 0 0 0 0 0 0 0 0 0 0 0 0 0 1 2 1 0 0 0 0 0 0 0 0 0

GFSGBSN_con_sbcape_069.txt.gz
CAPE
28 21 22 19 17 23 21 20 19 29 30 26 17 5 3 2 1 0 1 0 0 0 0 0 1 1 0 0 0 0 0 0 0 0 0 0 0 0 0 0 0 0 0 0 0 0 0
18 16 22 23 25 9 17 24 20 33 35 35 37 31 7 0 3 1 0 0 0 0 0 0 1 3 0 0 0 0 0 0 0 0 0 0 0 0 0 0 0 0 0 0 0 0 0
19 11 22 24 24 27 25 29 29 24 22 30 31 30 28 0 0 0 0 0 0 0 0 0 0 9 0 0 0 0 0 0 0 0 0 0 0 0 0 0 0 0 0 0 0 0 0
46 27 34 41 42 44 42 44 33 27 21 22 15 34 28 27 21 11 9 2 0 0 0 0 4 3 0 0 0 0 0 0 0 0 0 0 0 0 0 0 0 0 0 0 0 0 0
40 43 23 36 48 48 40 39 38 31 27 42 42 50 43 26 24 23 11 0 0 0 0 4 2 2 0 0 0 0 0 0 0 0 0 0 0 0 0 0 0 0 0 0 0 0 0
34 35 34 29 26 37 26 30 43 43 50 57 59 60 43 35 33 20 2 0 0 0 0 0 4 0 0 0 0 0 0 0 0 0 0 0 0 0 0 0 0 0 0 0 0 0 0
41 35 44 26 28 21 25 19 28 41 54 64 55 47 37 32 49 22 0 0 0 0 0 0 0 0 0 0 0 0 0 0 0 0 0 0 0 0 0 0 0 0 0 0 0 0 0
53 56 52 28 26 33 23 20 42 60 51 47 71 70 47 51 37 3 0 0 2 1 5 0 0 0 0 0 0 0 0 0 0 0 0 0 0 0 0 0 0 0 0 0 0 0 0
45 43 50 41 14 29 33 26 48 60 70 52 67 77 62 52 23 0 0 0 0 0 12 0 0 0 0 0 0 0 0 0 0 0 0 0 0 0 0 0 0 0 0 0 0 0 0
55 61 53 41 42 52 22 24 40 42 44 70 71 65 51 48 0 0 0 0 0 0 6 0 0 0 0 0 0 0 0 0 0 0 0 0 0 0 0 0 0 0 0 0 0 0 0
61 62 75 51 48 59 54 29 32 38 45 58 74 74 54 57 0 0 0 0 0 0 0 0 0 0 0 0 0 0 0 0 0 0 0 0 0 0 0 0 0 0 0 0 0 0 0
55 58 68 59 63 74 72 51 39 33 40 68 70 75 69 13 8 0 0 0 3 2 0 0 0 0 0 0 0 0 0 0 0 0 0 0 0 0 0 0 0 0 0 0 0 0 0
56 61 62 60 68 62 61 62 54 36 36 53 73 60 64 20 6 0 0 0 7 5 0 0 0 0 0 0 0 0 0 0 0 0 0 0 0 0 0 0 0 0 0 0 0 0 0
55 54 49 58 56 46 65 72 68 61 52 70 60 54 18 46 0 0 0 1 4 0 0 0 0 0 0 0 0 0 0 0 0 0 0 0 0 0 0 0 0 0 0 0 0 0 0
58 42 76 52 86 70 68 62 57 59 63 71 64 0 16 4 0 0 0 2 0 0 0 0 0 0 0 0 0 0 0 0 0 0 0 0 0 0 0 0 0 0 0 0 0 0 0
70 65 81 77 57 58 57 59 47 38 56 76 20 47 19 0 2 1 7 0 0 3 0 0 0 0 0 0 0 0 0 0 0 0 0 0 0 0 0 0 0 0 0 0 0 0 0
43 56 63 64 57 50 52 51 37 34 58 85 44 54 34 0 28 2 1 0 0 0 0 0 0 0 0 0 0 0 0 0 0 0 0 0 0 0 0 0 0 0 0 0 0 0 0
64 31 61 73 79 62 52 44 39 40 78 54 53 48 23 4 16 3 1 0 0 0 0 0 0 0 0 0 0 0 0 0 0 4 0 0 0 0 0 0 0 0 0 0 1 0 0
60 58 70 73 69 67 55 54 59 81 65 29 79 51 66 106 16 21 13 1 0 0 0 0 0 0 0 0 0 0 0 0 0 0 6 3 7 0 0 0 0 0 0 0 0 0 0
64 57 62 66 66 50 33 58 68 68 71 48 39 42 41 45 32 6 3 2 0 0 0 0 0 0 0 0 0 0 0 0 0 0 0 39 24 9 6 2 0 0 0 0 0 0 0
82 74 75 58 49 43 42 53 74 85 122 56 43 4 48 1 0 6 6 1 0 0 0 0 0 0 0 0 0 0 0 0 0 0 30 33 11 12 0 0 0 0 0 0 0 0 0
64 58 70 70 64 55 54 81 102 81 158 42 25 44 74 52 3 8 21 34 0 0 1 0 0 0 0 0 0 0 0 0 0 0 0 0 6 17 0 0 0 0 0 0 0 0 0
71 56 54 62 62 63 82 109 123 146 95 41 35 35 93 4 37 33 10 11 2 0 0 0 0 0 1 0 0 0 0 0 0 0 0 0 22 17 4 0 0 0 0 0 0 0 0
95 78 81 79 83 63 75 69 90 109 108 35 49 84 22 1 11 35 107 3 0 0 0 0 0 7 1 0 0 0 0 0 0 0 0 0 1 9 18 4 0 0 0 0 0 0 0
58 68 65 78 70 68 63 61 62 97 110 52 43 88 46 21 13 58 88 3 0 1 4 0 0 0 0 2 29 3 0 0 0 0 0 0 0 20 43 12 0 0 0 0 0 0 0
69 47 52 74 71 78 78 75 53 64 90 58 42 66 106 24 23 32 142 23 3 5 4 0 2 14 12 50 67 14 6 0 0 0 0 0 0 21 26 8 0 0 0 7 8 0 0
80 81 94 100 85 63 54 53 67 67 85 56 46 54 48 16 50 29 35 52 13 1 4 0 1 8 7 59 22 18 1 4 0 1 0 1 2 9 28 3 0 0 0 84 4 0 0
47 45 41 51 71 70 52 44 62 73 76 54 38 55 55 4 54 49 38 44 22 3 0 0 6 8 16 17 35 6 15 7 0 2 3 0 4 14 5 15 1 0 4 42 0 0 0
41 53 25 38 33 43 52 50 28 66 67 71 32 62 47 8 18 9 20 22 20 0 3 4 0 0 0 0 0 0 0 0 0 0 0 9 1 3 2 0 0 0 2 0 0 0 0

GFSGBSN_con_sbcape_072.txt.gz
CAPE
12 13 24 22 23 15 19 18 19 24 17 22 16 10 8 3 2 3 13 6 0 0 0 0 0 2 0 0 0 0 0 0 0 0 0 0 0 0 0 0 0 0 0 0 0 0 0
21 15 28 30 29 21 24 23 29 31 33 30 33 26 8 0 1 0 0 2 0 0 0 0 1 1 0 0 0 0 0 0 0 0 0 0 0 0 0 0 0 0 0 0 0 0 0
43 36 13 25 33 26 19 33 31 35 39 30 37 34 32 14 13 4 6 1 0 0 0 0 1 0 0 0 0 0 0 0 0 0 0 0 0 0 0 0 0 0 0 0 0 0 0
21 41 40 31 43 53 55 28 27 34 33 29 24 41 36 37 31 22 6 0 0 0 1 0 0 1 0 0 0 0 0 0 0 0 0 0 0 0 0 0 0 0 0 0 0 0 0
29 19 27 33 45 30 43 25 32 31 37 26 27 54 44 32 24 13 1 0 0 0 0 0 0 1 0 0 0 0 0 0 0 0 0 0 0 0 0 0 0 0 0 0 0 0 0
26 33 31 38 26 28 30 31 32 36 31 56 45 59 48 42 27 4 0 0 0 0 3 2 1 0 0 0 0 0 0 0 0 0 0 0 0 0 0 0 0 0 0 0 0 0 0
35 44 42 38 39 27 30 30 28 43 49 36 48 50 60 56 36 9 0 0 0 0 0 0 0 0 0 0 0 0 0 0 0 0 0 0 0 0 0 0 0 0 0 0 0 0 0
35 39 35 35 45 19 21 35 27 41 42 39 41 70 76 66 32 6 0 3 2 1 2 0 0 0 0 0 0 0 0 0 0 0 0 0 0 0 0 0 0 0 0 0 0 0 0
40 43 50 33 51 42 16 44 24 35 46 45 54 62 74 53 26 2 1 5 0 2 7 0 0 0 0 0 0 0 0 0 0 0 0 0 0 0 0 0 0 0 0 0 0 0 0
42 56 49 49 59 47 22 41 21 34 32 62 72 71 68 23 6 5 19 3 0 5 5 0 0 0 0 0 0 0 0 0 0 0 0 0 0 0 0 0 0 0 0 0 0 0 0
50 56 58 64 61 44 77 50 32 37 43 35 63 68 57 38 50 17 13 0 0 24 0 0 0 0 0 0 0 0 0 0 0 0 0 0 0 0 0 0 0 0 0 0 0 0 0
57 53 44 52 64 67 88 71 59 40 35 32 47 49 57 34 37 25 10 0 4 33 0 0 0 0 0 0 0 0 0 0 0 0 0 0 0 0 0 0 0 0 0 0 0 0 0
69 40 46 58 58 62 50 47 47 45 35 31 38 52 35 42 33 11 16 1 22 0 0 0 0 0 0 0 0 0 0 0 0 0 0 0 0 0 0 0 0 0 0 0 0 0 0
33 27 26 41 38 48 50 54 56 58 33 26 50 48 32 36 54 7 63 34 5 0 0 0 0 0 0 0 0 0 0 0 0 0 0 0 0 0 0 0 0 0 0 0 0 6 1
55 49 43 54 34 31 46 58 65 44 47 35 54 50 72 47 81 61 43 34 0 0 0 0 0 0 0 0 0 0 4 0 0 0 0 0 0 0 0 2 0 0 0 0 0 1 1
47 51 54 45 59 53 44 46 52 41 29 38 69 68 23 49 135 73 54 12 1 14 0 0 0 0 0 0 0 3 19 0 7 0 0 0 0 0 0 0 3 20 3 1 6 8 10
56 37 43 41 33 47 57 47 56 30 25 43 76 68 17 83 170 61 23 28 13 0 0 0 0 0 0 0 0 0 6 0 0 0 0 0 1 2 3 0 1 5 6 1 7 7 13
72 74 64 47 30 38 66 61 53 35 51 52 54 46 80 167 81 69 50 23 12 1 0 0 0 0 0 0 0 0 0 0 0 0 8 18 10 26 15 0 0 0 4 2 10 17 9
73 76 54 72 63 57 63 67 70 68 59 67 44 46 100 129 58 55 39 48 25 12 1 5 3 0 1 0 0 0 0 0 0 0 0 2 27 2 0 0 1 1 0 0 3 5 10
65 59 60 57 67 67 60 66 69 83 78 117 60 48 57 87 29 46 54 50 46 1 0 15 10 0 5 7 6 0 0 0 0 0 0 13 8 29 34 18 9 11 1 0 0 15 14
75 62 87 57 45 59 79 75 64 104 114 106 100 37 48 57 23 74 49 43 52 37 1 0 4 5 11 17 15 9 0 0 0 0 0 107 10 0 0 0 0 0 0 0 0 0 7
86 81 65 52 76 51 49 49 82 113 138 106 65 58 44 26 17 101 168 17 81 46 28 7 13 15 12 28 17 12 7 4 0 0 0 0 10 19 0 0 0 0 0 0 0 0 1
48 55 86 68 42 54 47 79 88 111 141 69 82 75 68 29 25 42 12 35 125 124 61 29 13 9 25 15 24 15 12 6 2 0 0 0 21 12 0 0 0 0 0 0 0 0 8
49 97 88 87 84 60 64 70 84 102 154 127 84 107 83 18 30 39 16 19 39 115 122 79 25 13 16 16 12 8 4 6 11 7 2 0 37 37 26 6 0 0 0 0 0 0 0
80 101 68 79 56 79 82 81 83 95 131 179 153 144 89 62 41 12 1 125 184 104 120 77 24 5 11 6 41 27 19 22 2 3 13 4 18 48 25 10 0 0 0 0 0 0 0
70 60 74 76 73 65 55 62 60 67 74 52 55 195 90 105 70 5 8 11 52 97 136 67 4 21 10 60 41 23 27 12 9 26 8 12 12 46 50 9 1 0 0 5 2 0 0
71 77 85 89 76 72 59 62 63 69 100 42 26 61 60 42 0 51 79 38 54 89 77 41 32 34 22 115 65 39 31 17 21 31 13 16 33 47 31 38 22 0 0 106 27 31 0
49 48 46 49 60 66 77 66 54 66 62 50 19 25 30 44 11 24 87 75 83 107 55 52 49 13 12 82 67 43 44 36 16 22 3 10 21 32 43 25 18 0 14 29 18 0 0
44 28 38 42 38 39 50 71 58 51 46 35 12 41 40 166 49 67 34 66 50 59 109 33 35 9 19 49 52 52 49 37 15 23 17 57 38 59 15 37 49 62 22 0 0 0 0

GFSGBSN_con_sbcape_078.txt.gz
CAPE
23 20 22 16 14 13 10 16 25 25 19 19 22 18 19 10 12 12 16 6 3 0 0 0 1 3 0 0 0 0 0 0 0 0 0 0 0 0 0 0 0 0 0 0 0 0 0
13 17 15 37 19 24 22 26 22 27 35 36 36 21 22 17 15 3 2 0 0 0 0 0 1 3 0 0 0 0 0 0 0 0 0 0 0 0 0 0 0 0 0 0 0 0 0
27 29 26 34 30 30 9 15 22 21 21 19 30 34 21 13 11 8 0 0 0 0 0 0 1 0 0 0 0 0 0 0 0 0 0 0 0 0 0 0 0 0 0 0 0 0 0
20 26 30 31 34 33 28 13 16 19 13 26 19 35 50 39 17 11 0 0 0 0 0 0 0 0 0 0 0 0 0 0 0 0 0 0 0 0 0 0 0 0 0 0 0 0 0
22 22 30 34 35 53 35 19 16 20 18 14 18 42 50 41 20 0 0 0 0 0 0 0 0 0 0 0 0 0 0 0 0 0 0 0 0 0 0 0 0 0 0 0 0 0 0
23 32 33 32 32 33 40 46 40 40 25 23 21 30 41 32 20 0 0 0 0 0 0 0 0 0 0 0 0 0 0 0 0 0 0 0 0 0 0 0 0 0 0 0 0 0 0
22 29 35 30 26 26 26 38 38 50 35 19 22 22 21 30 15 0 0 0 0 0 5 0 0 0 0 0 0 0 0 0 0 0 0 0 0 0 0 0 0 0 0 0 0 0 0
32 25 29 45 43 38 35 25 55 55 38 9 11 15 21 21 0 0 0 2 0 0 0 0 0 0 0 0 0 0 0 0 0 0 0 0 0 0 0 0 0 0 0 0 0 0 0
40 37 43 36 42 40 47 53 67 58 38 21 17 35 18 23 0 0 5 3 0 10 0 0 0 0 0 0 0 0 0 0 0 0 0 3 0 0 0 0 0 1 1 0 0 0 0
30 27 24 23 31 43 53 44 45 49 47 40 29 31 36 17 0 5 7 8 7 21 5 0 0 0 0 0 0 0 0 0 0 0 0 9 4 0 0 0 0 14 2 0 1 2 7
12 36 37 47 40 32 44 49 35 47 47 46 37 26 26 13 1 0 3 0 16 26 4 0 0 0 0 0 0 0 0 0 0 0 0 0 0 0 0 1 0 1 0 2 0 5 6
12 23 38 45 46 32 38 50 55 45 44 64 50 34 13 0 8 0 4 18 31 16 1 0 0 0 0 0 0 0 0 0 0 0 3 1 1 0 0 1 6 0 5 2 0 11 12
21 45 33 31 45 25 6 24 48 55 46 53 62 48 12 1 1 11 44 13 41 4 0 0 0 0 0 0 0 0 0 0 0 0 0 0 1 0 10 2 0 3 1 0 3 14 6
24 35 40 34 44 40 24 29 55 19 40 42 67 53 4 0 0 16 38 58 18 0 0 0 0 0 0 0 0 0 0 0 0 0 0 0 0 0 0 0 0 0 0 7 7 26 0
39 44 39 38 52 50 49 37 57 36 12 58 56 16 15 0 25 56 76 23 0 0 0 0 0 0 0 0 0 21 16 12 14 0 0 0 0 0 0 0 0 0 14 0 0 0 4
41 55 57 57 60 66 49 44 49 65 67 68 17 47 40 33 96 95 63 11 0 0 0 0 0 0 0 1 0 0 4 31 69 6 0 0 0 4 0 0 0 2 5 4 0 3 20
40 59 73 67 62 62 67 62 42 49 86 2 24 35 0 49 159 90 26 15 0 0 0 0 0 0 1 0 0 0 74 29 0 0 0 10 0 0 0 0 14 5 2 0 5 1 2
41 57 74 86 72 52 81 65 51 53 66 16 39 36 135 115 71 41 53 15 2 0 1 0 0 0 0 6 17 1 6 29 0 0 0 10 3 0 0 1 0 12 2 3 5 28 28
50 54 61 75 93 93 73 79 70 66 23 55 51 22 4 179 46 68 25 11 1 16 0 1 3 1 3 9 4 16 4 9 0 0 0 0 0 2 18 14 8 0 0 0 9 12 7
38 30 50 64 82 73 60 62 79 79 42 81 104 65 7 165 49 45 34 23 23 13 9 4 6 6 11 12 8 14 30 16 0 0 0 0 0 9 62 19 0 14 6 0 26 15 20
48 41 43 46 66 78 68 70 70 58 3 90 80 45 20 75 56 29 26 30 42 21 16 15 14 15 17 27 23 27 34 33 20 3 0 1 0 1 0 7 8 2 19 2 3 0 4
35 55 53 37 50 54 58 67 95 75 57 76 98 33 14 9 18 42 40 38 22 32 33 37 44 34 35 37 49 42 35 27 49 21 3 0 14 0 0 0 0 5 0 2 14 23 0
25 45 75 59 56 43 43 67 78 100 96 87 44 29 27 21 8 27 51 32 24 17 5 6 20 60 55 39 69 63 72 53 33 47 33 26 5 2 0 0 0 1 0 0 0 12 13
21 34 43 56 47 47 39 45 72 80 103 64 24 23 78 32 25 41 27 38 38 41 25 15 43 43 89 78 119 138 134 101 54 57 28 8 5 25 24 18 7 0 0 1 2 5 12
42 37 45 45 66 67 42 52 59 66 90 117 69 137 75 55 41 35 25 16 38 49 35 44 21 20 0 135 100 54 71 72 30 5 4 35 11 34 52 23 5 0 1 0 0 0 0
71 41 40 66 57 52 55 56 46 53 76 84 101 162 114 143 17 36 42 29 22 35 36 41 33 24 22 124 93 44 50 28 33 4 1 29 83 61 53 9 5 0 0 23 10 1 40
61 45 47 62 53 50 52 64 50 64 51 85 22 146 99 46 2 46 54 48 47 52 53 94 26 86 119 94 54 51 64 67 59 52 21 40 56 39 46 27 26 5 22 15 51 86 10
52 59 66 61 55 54 59 51 50 61 58 58 36 118 81 63 7 21 46 15 63 74 122 93 86 67 49 33 38 42 125 109 42 33 35 26 41 45 49 28 26 17 6 11 104 42 17
39 51 54 43 42 42 41 42 51 23 15 47 66 75 111 60 6 17 31 29 26 36 51 20 18 18 75 67 85 149 183 307 106 70 103 70 30 39 7 7 56 167 154 55 23 13 6

GFSGBSN_con_sbcape_081.txt.gz
CAPE
8 9 13 12 24 14 14 14 19 36 30 34 31 17 19 18 14 13 24 12 0 0 0 0 2 7 0 0 0 0 0 0 0 0 0 0 0 0 0 0 0 0 0 0 0 0 0
13 26 28 28 19 28 29 6 12 23 27 27 33 34 14 14 7 7 21 1 0 0 0 0 2 11 0 0 0 0 0 0 0 0 0 0 0 0 0 0 0 0 0 0 0 0 0
23 12 18 26 21 19 25 29 20 14 17 22 29 38 16 16 16 10 1 0 0 0 0 0 3 11 2 0 0 0 0 0 0 0 0 0 0 0 0 0 0 0 0 0 0 0 0
18 15 18 26 31 40 44 51 33 18 21 20 17 27 41 37 35 21 0 0 0 0 0 0 6 3 0 0 0 0 0 0 0 0 0 0 0 0 0 0 0 0 0 0 0 0 0
17 14 21 24 26 47 55 62 55 34 19 23 30 38 55 48 31 10 0 0 0 0 0 0 2 0 0 0 0 0 0 0 0 0 0 0 0 0 0 0 0 0 0 0 0 0 0
33 25 16 26 27 25 27 48 57 63 55 57 31 24 48 41 21 0 0 0 0 0 0 0 0 1 0 0 0 0 0 0 0 0 0 0 0 0 0 0 0 0 0 0 0 0 0
13 43 28 24 31 38 38 34 53 51 57 50 37 19 30 41 13 0 0 0 0 0 0 0 0 0 0 0 0 0 0 0 0 0 0 0 0 0 0 0 0 0 0 0 0 0 0
21 36 41 39 40 37 39 29 63 59 57 54 70 38 33 27 3 0 0 0 0 1 0 0 0 0 0 0 0 0 0 0 0 0 0 0 0 0 0 0 0 0 0 0 0 0 0
21 19 23 26 32 33 40 39 43 48 61 44 71 28 31 34 0 0 0 1 6 2 0 0 0 0 0 0 0 0 0 0 0 0 0 0 0 0 0 0 0 0 0 0 0 0 0
13 3 10 19 24 34 35 43 42 36 67 87 68 67 55 44 0 0 0 0 0 4 2 0 0 0 0 0 0 0 0 0 0 0 0 0 0 0 0 0 0 0 0 0 11 3 0
23 11 10 14 21 26 27 27 33 54 62 64 75 83 63 51 0 0 0 0 0 17 0 0 0 0 0 0 0 0 0 0 0 0 0 0 0 0 0 0 0 0 0 0 0 14 8
16 15 18 28 21 18 24 31 22 39 51 41 103 61 55 0 2 0 0 0 4 18 0 0 0 0 0 0 0 0 0 0 0 0 0 0 0 0 0 0 0 10 8 0 0 12 17
22 22 24 27 31 24 29 35 26 23 38 57 59 61 13 1 0 0 0 0 15 1 0 0 0 0 0 0 0 0 0 0 0 0 0 0 0 0 0 0 11 1 23 48 10 9 0
23 29 28 33 31 36 38 42 52 48 60 20 33 65 2 0 0 0 0 25 7 0 3 1 0 0 0 0 0 0 0 0 0 0 0 0 0 0 0 0 8 4 6 24 8 1 0
32 34 30 38 39 42 49 49 53 51 57 40 1 0 0 0 0 0 16 4 0 0 0 0 0 0 0 0 0 0 0 0 0 0 0 0 0 0 0 0 0 0 0 0 0 15 3
27 39 39 44 54 55 54 58 61 60 61 95 10 10 0 0 0 1 9 12 0 0 0 0 0 0 0 0 1 0 0 18 30 0 0 0 0 0 0 0 0 0 0 6 7 13 5
42 47 44 47 53 66 67 68 68 73 91 74 9 44 0 0 28 30 1 3 0 0 0 0 0 0 0 0 0 0 57 13 0 0 0 0 0 0 0 0 1 0 0 12 12 1 64
50 49 46 49 54 65 70 60 81 71 97 48 33 4 5 5 24 29 1 11 0 0 0 0 0 0 0 0 0 0 0 0 0 0 0 0 0 0 0 0 0 2 0 4 29 12 1
51 50 43 34 40 53 63 62 69 82 75 50 33 0 1 1 6 23 16 1 0 0 0 0 0 0 0 0 0 0 0 1 0 0 0 0 0 0 0 13 24 0 1 9 10 8 8
44 53 38 43 48 52 83 83 87 94 56 13 15 0 0 1 7 19 6 3 4 0 0 0 0 0 0 0 0 0 0 9 0 0 0 0 0 0 2 69 5 10 6 2 14 34 0
80 77 45 44 40 45 49 75 76 83 87 5 29 0 10 11 8 12 3 16 12 8 1 0 0 0 0 0 0 0 0 0 29 8 0 0 0 0 0 0 5 18 10 16 22 9 4
52 57 58 38 38 41 43 72 71 83 96 19 30 0 7 2 6 2 2 0 0 0 0 8 27 19 6 0 1 1 18 4 0 32 15 9 0 2 0 0 0 0 0 0 0 8 6
40 58 47 40 46 31 34 47 26 57 44 29 15 0 2 0 3 7 0 9 3 1 0 1 10 9 2 7 1 19 43 23 27 25 19 27 5 2 0 0 9 0 0 0 0 33 8
29 31 33 46 49 27 59 58 35 33 46 0 1 0 5 0 0 0 0 5 4 6 15 12 26 0 7 8 0 31 40 41 42 30 32 10 1 1 0 0 0 0 13 0 0 4 2
37 37 54 46 49 48 61 61 51 21 54 7 0 13 10 1 0 0 0 0 15 15 4 5 47 27 0 2 20 9 1 9 2 28 36 9 2 8 7 14 0 0 0 0 0 0 0
35 47 47 56 68 64 55 63 54 50 53 8 0 0 15 7 0 0 0 6 0 0 0 2 74 8 3 36 17 0 0 0 4 3 2 1 0 2 9 45 15 0 0 0 20 4 0
38 48 49 50 53 62 56 55 51 53 47 13 2 1 26 22 0 0 0 9 14 0 1 19 3 21 29 0 6 0 0 0 3 16 2 0 0 0 0 8 13 18 35 31 35 10 0
76 75 69 61 54 63 55 49 43 51 67 22 3 10 16 20 0 0 0 8 14 5 26 2 1 2 0 9 0 0 0 5 26 26 12 0 4 10 8 18 3 14 30 46 10 0 0
72 61 50 49 49 55 42 44 45 58 58 40 5 0 21 24 0 0 0 0 0 0 13 8 3 8 30 3 0 9 19 6 13 6 14 4 0 0 0 0 59 50 55 2 0 0 0

GFSGBSN_con_sbcape_084.txt.gz
CAPE
9 14 14 21 19 15 23 27 11 24 14 15 11 4 3 0 3 13 21 17 2 0 0 0 2 7 2 0 0 0 0 0 0 0 0 0 0 0 0 0 0 0 0 0 0 0 0
19 17 18 19 23 19 18 17 18 29 35 35 32 30 5 4 7 15 28 16 0 0 0 0 1 14 3 0 0 0 0 0 0 0 0 0 0 0 0 0 0 0 0 0 0 0 0
18 16 14 22 26 25 31 30 32 33 29 39 40 43 25 7 9 9 21 1 1 1 1 0 1 3 1 0 0 0 0 0 0 0 0 0 0 0 0 0 0 0 0 0 0 0 0
20 18 13 18 19 19 17 15 19 21 35 34 16 45 47 38 25 13 2 1 0 0 0 0 2 6 0 0 0 0 0 0 0 0 0 0 0 0 0 0 0 0 0 0 0 0 0
21 26 21 10 13 22 39 40 33 24 22 45 23 60 47 28 18 15 0 0 0 0 0 0 4 5 0 0 0 0 0 0 0 0 0 0 0 0 0 0 0 0 0 0 0 0 0
9 7 27 23 17 16 30 35 60 62 45 42 44 42 46 25 18 10 0 0 0 0 0 0 0 1 0 0 0 0 0 0 0 0 0 0 0 0 0 0 0 0 0 0 0 0 0
20 19 26 32 26 31 31 32 39 57 42 47 48 23 48 34 11 0 0 0 0 0 0 0 0 0 0 0 0 0 0 0 0 0 0 0 0 0 0 0 0 0 0 0 0 0 0
11 18 25 27 27 31 32 31 27 37 33 33 52 33 28 39 6 0 0 0 4 6 0 0 0 0 0 0 0 0 0 0 0 0 0 0 0 0 0 0 0 0 0 0 0 0 0
23 14 10 10 15 20 29 35 33 36 36 39 55 54 49 44 2 0 0 0 0 0 0 0 0 0 0 0 0 0 0 0 0 0 0 0 0 0 0 0 0 0 0 0 0 0 0
18 24 18 16 21 23 29 26 25 27 25 29 53 73 86 57 0 0 0 0 0 1 0 0 0 0 0 0 0 0 0 0 0 0 0 0 0 0 0 0 0 0 0 0 0 0 0
4 12 21 21 25 36 25 28 30 34 33 35 40 45 92 48 1 0 0 0 0 11 0 0 0 0 0 0 0 0 0 0 0 0 0 0 0 0 0 0 0 0 0 0 0 0 5
16 21 22 36 32 40 38 33 32 40 41 33 40 39 80 0 0 0 0 0 1 21 0 0 0 0 0 0 0 0 0 0 0 0 0 0 0 0 0 0 0 0 0 0 2 15 10
22 13 20 29 30 34 34 30 30 41 43 49 53 29 27 6 0 0 0 0 17 6 0 1 0 0 0 0 0 0 0 0 0 0 0 0 0 0 0 0 0 0 1 20 32 38 0
20 19 29 26 21 31 40 40 39 42 51 52 57 28 0 0 0 0 0 34 1 0 1 0 0 0 0 0 0 0 0 0 0 0 0 0 0 0 0 0 0 0 0 33 29 0 1
21 24 18 25 25 26 37 45 44 54 67 69 54 0 0 0 0 0 21 12 0 0 0 0 0 0 0 0 0 0 0 0 0 0 0 0 0 0 0 0 0 0 1 0 35 16 1
20 23 28 29 34 30 33 51 53 54 64 90 0 0 0 0 0 7 20 5 1 0 0 0 0 0 0 0 0 0 26 0 17 0 0 0 0 0 0 0 0 0 0 25 25 0 9
25 27 23 34 35 34 47 54 62 57 68 79 1 13 0 0 1 41 8 4 0 0 0 0 0 0 0 0 0 0 55 3 0 0 0 0 0 0 0 0 0 0 0 8 14 2 11
21 21 34 36 38 29 40 52 66 78 72 2 8 17 0 3 11 34 10 11 1 0 0 0 0 0 0 0 0 0 0 0 0 0 0 0 0 0 0 0 0 0 4 0 43 35 2
28 28 30 30 25 30 48 68 86 78 45 0 46 10 0 58 11 1 6 6 0 0 0 0 0 0 0 0 0 0 0 0 0 0 0 0 0 0 0 0 0 6 5 5 10 5 4
20 36 25 27 19 41 46 66 83 80 44 0 10 20 0 0 3 27 30 2 6 1 0 0 0 0 0 0 0 0 0 1 0 0 0 0 0 0 3 3 3 3 0 8 35 36 0
33 23 37 32 32 34 36 40 62 84 42 0 2 0 0 9 14 16 11 58 11 10 11 4 0 0 0 0 0 0 0 0 10 3 0 0 0 0 0 0 0 0 7 3 8 28 58
40 31 45 16 24 35 31 30 42 90 56 12 0 0 0 0 29 18 9 0 3 1 4 0 0 1 0 0 0 0 0 0 0 4 8 2 2 0 0 0 0 1 0 42 9 3 8
17 36 30 13 13 28 42 38 44 36 21 9 10 3 0 0 0 0 3 2 0 7 6 3 0 8 2 15 2 0 0 0 0 1 1 12 11 0 0 0 0 0 0 7 3 0 1
36 47 20 20 25 43 51 53 59 37 12 0 1 0 1 0 0 0 0 0 0 0 1 0 6 2 2 6 0 0 0 0 0 4 6 12 19 4 0 0 0 0 0 0 7 3 7
52 27 18 22 39 39 48 52 43 53 10 2 0 6 13 5 0 0 0 0 2 0 18 0 0 9 0 0 1 0 0 0 0 0 6 12 6 1 0 5 0 0 0 0 0 5 0
27 22 17 28 45 34 54 52 47 50 40 27 0 0 8 15 0 0 0 0 0 0 0 0 16 0 6 6 0 1 0 0 0 0 0 7 0 0 0 17 7 0 1 4 5 16 0
29 18 18 25 52 53 47 55 55 53 55 20 0 0 2 19 0 0 0 0 0 0 0 0 0 0 0 0 7 1 0 0 0 11 2 0 0 0 0 1 1 0 18 24 3 0 0
21 10 24 41 46 51 59 58 63 68 62 33 1 0 0 3 0 0 0 0 1 5 18 2 0 0 2 1 0 0 0 0 7 9 2 6 2 0 0 15 5 9 71 53 1 0 0
7 21 56 63 62 44 46 56 57 59 47 70 1 1 0 0 0 0 0 0 0 0 0 12 4 13 23 30 0 0 11 0 0 1 26 2 3 0 0 0 3 1 17 0 0 0 0

GFSGBSN_con_sbcape_087.txt.gz
CAPE
12 15 11 9 12 22 20 22 21 24 16 8 1 1 3 5 3 7 28 23 7 0 1 2 1 7 2 0 0 0 0 0 0 0 0 0 0 0 0 0 0 0 0 0 0 0 0
11 11 11 14 18 21 22 21 17 19 29 32 36 29 0 1 3 1 3 3 3 4 0 0 1 10 1 0 0 0 0 0 0 0 0 0 0 0 0 0 0 0 0 0 0 0 0
16 14 12 11 9 14 16 12 12 16 19 28 35 37 15 5 1 0 0 2 3 3 0 0 1 7 7 0 0 0 0 0 0 0 0 0 0 0 0 0 0 0 0 0 0 0 0
23 30 32 17 12 11 17 25 24 30 27 30 27 38 49 35 15 4 1 3 0 0 0 2 3 4 3 0 0 0 0 0 0 0 0 0 0 0 0 0 0 0 0 0 0 0 0
10 7 6 28 18 19 22 23 30 24 15 13 32 36 54 35 20 9 0 0 0 0 0 0 1 9 0 0 0 0 0 0 0 0 0 0 0 0 0 0 0 0 0 0 0 0 0
7 13 14 18 26 24 23 22 27 21 19 28 27 30 49 43 37 5 0 0 0 0 0 0 7 2 0 0 0 0 0 0 0 0 0 0 0 0 0 0 0 0 0 0 0 0 0
12 10 15 19 19 20 18 15 21 20 24 31 26 28 37 59 22 10 0 0 0 0 0 0 0 0 0 0 0 0 0 0 0 0 0 0 0 0 0 0 0 0 0 0 0 0 0
9 12 5 1 2 9 14 23 24 15 14 15 24 33 37 41 29 10 0 0 1 1 4 0 0 0 0 0 0 0 0 0 0 0 0 0 0 0 0 0 0 0 0 0 0 0 0
12 17 25 16 18 16 22 19 8 8 17 16 20 23 26 46 12 0 0 0 0 0 8 0 0 0 0 0 0 0 0 0 0 0 0 0 0 0 0 0 0 0 0 0 0 0 0
6 6 7 13 15 15 19 17 13 15 21 24 27 29 53 57 0 0 0 0 0 0 2 0 0 0 0 0 0 0 0 0 0 0 0 0 0 0 0 0 0 0 0 0 0 0 0
7 3 14 11 15 13 18 24 20 20 20 28 38 40 51 42 0 0 0 0 0 2 0 0 0 0 0 0 0 0 0 0 0 0 0 0 0 0 0 0 0 0 0 0 0 0 0
21 15 7 6 15 18 19 20 15 15 18 33 37 33 51 0 0 0 0 0 0 29 0 0 0 0 0 0 0 0 0 0 0 0 0 0 0 0 0 0 0 0 0 0 0 0 0
20 13 6 16 16 6 9 23 27 30 31 32 44 36 22 9 0 0 0 0 26 13 0 0 0 0 0 0 0 0 0 0 0 0 0 0 0 0 0 0 0 0 0 0 0 4 0
15 15 13 12 12 11 15 18 29 35 26 26 53 59 0 0 0 0 0 55 16 0 0 0 0 0 0 0 0 0 0 0 0 0 0 0 0 0 0 0 0 0 0 0 0 10 5
17 14 9 13 17 23 22 22 27 28 22 25 24 0 0 0 0 0 0 9 0 4 0 0 0 11 0 0 0 0 0 0 0 0 0 0 0 0 0 0 0 0 0 0 0 0 12
10 12 19 20 20 25 24 31 27 30 24 31 0 0 0 0 0 0 1 8 0 0 0 0 0 0 0 0 0 0 2 0 2 0 0 0 0 0 0 0 0 0 0 0 41 3 1
14 22 19 20 26 25 27 23 23 35 26 24 0 1 0 0 0 15 0 20 0 0 0 0 0 0 0 0 0 0 34 0 0 0 0 0 0 0 0 0 0 0 0 0 1 18 39
16 8 13 28 20 25 18 16 26 41 28 0 1 2 5 0 3 9 1 37 23 0 0 0 0 0 0 0 0 0 0 0 0 0 0 0 0 0 0 0 0 0 0 5 11 7 66
27 29 19 34 28 22 21 22 35 45 18 0 8 3 0 3 2 3 5 0 6 0 0 0 0 0 0 0 0 0 0 0 0 0 0 0 0 0 0 0 0 3 15 2 24 13 15
38 18 25 20 16 18 23 13 26 40 25 0 0 3 0 2 11 5 7 2 19 7 2 0 2 0 0 0 0 0 0 0 0 0 0 0 0 0 0 0 3 1 17 7 18 22 19
29 17 28 18 38 24 16 16 19 30 27 0 3 0 0 0 9 2 4 13 11 4 10 3 9 5 0 0 0 0 0 0 0 0 0 0 0 0 0 0 0 0 0 0 1 3 26
18 23 30 17 16 36 26 24 18 23 26 0 0 1 0 0 2 3 10 11 13 9 0 0 0 1 0 0 0 0 0 0 0 0 0 0 0 0 0 0 0 0 0 0 0 3 22
20 17 7 38 8 12 14 22 35 44 13 9 0 0 7 0 0 0 4 0 4 1 5 0 0 0 0 0 0 0 0 0 0 0 0 0 1 0 0 0 0 0 0 0 6 0 0
24 15 32 41 8 18 29 36 37 40 15 3 0 1 2 0 0 0 0 0 0 0 1 0 0 0 0 0 0 0 0 0 0 0 0 0 0 0 1 0 0 0 0 0 0 6 1
23 31 43 11 9 23 37 34 38 45 54 2 2 0 6 5 0 0 0 0 0 0 0 0 0 5 0 0 0 0 0 0 0 0 0 0 0 9 0 0 0 0 0 0 0 0 0
32 48 12 19 17 23 32 31 37 39 48 3 0 0 1 10 0 0 0 0 0 0 0 0 0 0 0 0 0 0 0 0 0 0 0 0 0 4 0 9 0 0 0 1 9 0 0
40 43 20 25 19 22 32 29 31 46 53 15 4 0 0 5 0 0 0 0 0 0 0 0 0 0 0 0 0 0 0 0 0 0 0 0 0 0 0 2 0 0 0 6 9 0 0
49 14 18 17 15 26 36 24 20 38 43 24 1 0 0 0 0 0 0 0 0 0 0 0 0 0 1 0 0 0 0 0 0 0 0 0 0 0 0 0 0 0 7 14 0 0 0
28 20 12 10 29 51 41 20 10 17 43 60 16 0 0 3 0 0 0 0 0 0 0 0 0 0 34 15 0 1 0 0 0 0 0 7 0 9 0 0 3 0 1 0 0 2 3

GFSGBSN_con_sbcape_090.txt.gz
CAPE
11 10 8 8 13 18 16 13 8 7 6 10 14 20 30 17 6 4 13 7 1 0 1 3 6 7 2 0 0 0 0 0 0 0 0 0 0 0 0 0 0 0 0 0 0 0 0
12 7 6 1 1 2 4 4 8 10 15 17 12 10 13 21 15 5 4 2 4 2 0 1 4 14 4 0 0 0 0 0 0 0 0 0 0 0 0 0 0 0 0 0 0 0 0
6 13 16 9 8 9 10 19 23 23 18 11 9 15 28 25 10 2 5 2 1 0 0 0 4 9 3 0 0 0 0 0 0 0 0 0 0 0 0 0 0 0 0 0 0 0 0
6 2 2 20 14 12 13 15 16 15 9 5 14 16 27 32 30 23 18 2 0 0 2 2 4 2 1 0 0 0 0 0 0 0 0 0 0 0 0 0 0 0 0 0 0 0 0
5 7 6 9 17 14 12 12 10 13 13 11 20 16 27 42 41 34 20 0 0 0 0 0 0 1 0 0 0 0 0 0 0 0 0 0 0 0 0 0 0 0 0 0 0 0 0
11 10 11 11 11 12 11 8 9 15 7 3 4 7 13 36 29 21 7 0 0 0 0 0 8 0 0 0 0 0 0 0 0 0 0 0 0 0 0 0 0 0 0 0 0 0 0
7 6 4 2 1 1 3 5 16 8 5 11 15 16 14 10 9 1 0 0 0 0 0 0 0 0 0 0 0 0 0 0 0 0 0 0 0 0 0 0 0 0 0 0 0 0 0
5 18 8 8 10 8 10 12 13 9 14 11 9 15 12 14 3 2 0 0 3 1 5 0 0 0 0 0 0 0 0 0 0 0 0 0 0 0 0 0 0 0 0 0 0 0 0
10 0 0 5 8 13 16 18 20 20 15 8 11 11 8 10 1 0 0 0 0 0 6 0 0 0 0 0 0 0 0 0 0 0 0 0 0 0 0 0 0 0 0 0 0 0 0
1 1 2 6 8 10 10 17 21 14 8 5 7 10 29 38 0 0 0 0 0 0 28 0 0 0 0 0 0 0 0 0 0 0 0 0 0 0 0 0 0 0 0 0 0 0 0
3 1 3 7 8 13 15 18 20 14 9 7 5 12 23 16 4 0 0 0 0 5 4 0 0 0 0 0 0 0 0 0 0 0 0 0 0 0 0 0 0 0 0 0 0 0 0
20 16 9 8 11 13 10 14 16 14 13 9 8 13 15 0 0 0 0 0 1 145 0 0 0 0 0 0 0 0 0 0 0 0 0 0 0 0 0 0 0 0 0 0 0 0 0
15 18 11 10 14 13 15 13 6 7 9 16 10 8 3 0 0 0 0 0 4 15 0 0 0 0 0 0 0 0 0 0 0 0 0 0 0 0 0 0 0 0 0 0 0 0 0
7 10 12 9 9 17 23 11 7 12 16 21 11 2 0 0 0 0 0 0 6 0 0 0 0 0 0 16 0 0 0 0 0 0 0 0 0 0 0 0 0 0 0 0 0 0 0
17 2 2 9 22 20 19 11 15 17 20 18 0 0 0 0 0 0 0 0 2 6 6 3 6 0 5 0 0 0 0 0 0 0 0 0 0 0 0 0 0 0 0 0 0 0 0
13 4 7 19 21 27 21 9 14 22 24 10 0 0 0 0 0 0 0 0 3 8 0 12 21 1 0 0 0 8 31 0 0 0 0 0 0 0 0 0 0 0 0 0 1 12 5
5 18 17 7 23 26 18 2 12 27 29 0 0 0 0 0 2 26 0 0 0 5 13 32 12 14 1 0 0 13 0 0 0 0 0 0 0 0 0 0 0 0 0 0 0 0 15
9 13 11 11 24 25 16 4 23 37 11 0 0 0 0 0 0 1 0 0 4 5 10 2 25 9 10 0 0 0 0 0 0 0 0 0 0 0 0 0 0 0 0 0 0 0 13
7 11 28 12 30 17 4 5 22 40 4 0 0 4 0 3 0 0 0 12 9 0 0 3 23 4 0 1 0 0 0 0 0 0 0 0 0 0 1 0 0 0 2 10 10 3 2
10 25 18 15 23 19 13 8 20 36 12 0 0 0 0 3 7 2 8 0 0 1 0 28 12 3 1 0 0 2 0 0 0 0 0 0 0 0 0 0 0 9 20 16 7 2 7
15 31 12 25 28 24 10 10 24 36 28 0 0 0 0 0 0 1 4 19 13 50 6 0 5 10 5 7 0 0 0 0 0 0 0 0 0 0 0 0 0 0 0 0 2 0 7
25 19 4 17 17 16 22 14 19 44 38 1 0 0 0 0 0 0 0 6 14 3 12 2 0 3 2 4 1 0 0 0 0 0 0 0 0 0 0 0 0 0 0 0 0 0 0
29 31 24 12 3 21 0 1 18 50 12 15 4 4 1 0 0 0 0 0 0 3 1 1 0 0 0 0 0 0 0 0 0 0 0 0 0 0 0 0 0 0 0 0 0 0 1
35 13 18 10 31 28 0 14 43 58 20 0 5 11 3 0 0 0 0 0 0 0 0 0 0 0 0 0 0 0 0 0 0 0 0 0 0 0 0 0 0 0 0 0 0 0 0
28 20 14 20 39 3 0 21 43 43 53 0 4 9 1 0 0 0 0 0 0 0 0 0 0 0 0 0 0 0 0 0 0 0 0 0 0 0 0 0 0 0 0 0 0 0 0
34 20 24 46 10 17 4 23 35 44 56 1 1 4 3 0 0 0 0 0 0 0 0 0 0 0 0 0 0 0 0 0 0 0 0 0 0 0 0 0 0 0 0 0 0 0 0
23 22 27 39 15 22 9 21 35 39 56 14 0 0 4 0 0 0 0 0 0 0 0 0 0 0 0 0 0 0 0 0 0 0 0 0 0 1 0 0 0 0 0 0 0 0 0
26 29 49 20 12 6 4 16 34 31 46 25 3 0 1 0 0 0 0 0 0 0 0 0 0 0 0 0 0 0 0 0 0 0 0 0 0 0 0 1 0 0 0 0 3 1 2
28 50 47 24 12 3 2 26 47 32 31 50 30 0 0 5 0 0 0 0 0 0 0 0 0 0 22 0 0 1 1 0 0 0 0 1 1 9 0 0 5 0 0 0 0 1 1

GFSGBSN_con_sbcape_093.txt.gz
CAPE
2 2 2 1 2 2 3 5 5 9 9 3 4 2 6 12 9 7 8 6 0 0 0 0 3 10 2 0 0 0 0 0 0 0 0 0 0 0 0 0 0 0 0 0 0 0 0
6 0 1 3 0 1 2 8 11 13 10 9 8 12 12 9 6 3 2 6 2 0 0 0 2 9 1 0 0 0 0 0 0 0 0 0 0 0 0 0 0 0 0 0 0 0 0
5 15 17 14 4 3 8 12 12 9 10 8 9 12 8 7 6 4 2 1 1 0 0 0 4 7 1 0 0 0 0 0 0 0 0 0 0 0 0 0 0 0 0 0 0 0 0
2 0 0 0 17 20 11 10 9 11 12 8 5 4 5 5 3 1 0 1 0 0 0 1 2 1 1 0 0 0 0 0 0 0 0 0 0 0 0 0 0 0 0 0 0 0 0
0 2 8 12 9 10 11 6 9 15 10 3 5 7 8 14 9 8 4 1 0 0 0 0 0 3 0 0 0 0 0 0 0 0 0 0 0 0 0 0 0 0 0 0 0 0 0
10 9 10 9 4 3 4 6 12 11 4 9 12 12 13 22 19 9 5 0 0 0 0 0 6 4 0 0 0 0 0 0 0 0 0 0 0 0 0 0 0 0 0 0 0 0 0
11 6 5 2 7 8 5 6 13 8 11 15 13 12 12 14 5 8 0 0 0 0 0 0 0 0 0 0 0 0 0 0 0 0 0 0 0 0 0 0 0 0 0 0 0 0 0
2 14 8 2 7 8 7 9 15 17 17 11 7 7 11 15 1 0 0 0 1 1 9 0 0 0 0 0 0 0 0 0 0 0 0 0 0 0 0 0 0 0 0 0 0 0 0
6 0 0 0 7 8 8 11 14 11 11 11 8 8 13 15 0 0 0 0 0 0 24 0 0 0 0 0 0 0 0 0 0 0 0 0 0 0 0 0 0 0 0 0 0 0 0
1 2 1 4 5 7 11 13 13 15 14 13 10 9 17 29 0 0 0 0 0 0 21 0 0 0 0 0 0 0 0 0 0 0 0 0 0 0 0 0 0 0 0 0 0 0 0
2 0 1 5 1 10 7 5 9 9 11 16 9 9 5 6 0 0 0 0 0 0 1 0 0 0 0 0 0 0 0 0 0 0 0 0 0 0 0 0 0 0 0 0 0 0 0
8 5 10 4 13 9 9 12 6 6 9 12 7 2 4 0 0 0 0 0 0 2 1 0 2 0 1 0 0 0 0 0 0 0 0 0 0 0 0 1 0 0 0 0 0 0 0
3 15 13 2 10 5 13 13 3 10 16 11 2 0 0 0 0 0 0 0 1 3 0 0 1 0 4 0 0 0 0 0 0 0 0 0 0 0 4 6 0 0 0 0 0 0 0
10 2 7 8 4 23 15 9 7 13 12 5 0 0 0 0 0 0 0 0 2 0 0 0 0 0 14 0 0 0 0 0 0 0 0 0 0 0 0 1 0 0 0 0 0 0 0
18 7 3 2 19 14 15 7 5 10 11 3 0 0 0 0 0 0 0 0 0 18 1 6 0 32 20 0 0 0 0 0 0 0 0 0 0 0 0 0 0 0 0 0 0 0 0
14 6 5 3 14 14 16 7 4 8 12 1 0 0 0 0 0 2 0 0 0 0 0 5 34 40 27 0 0 12 24 0 0 0 0 0 0 0 0 0 0 0 0 0 0 0 0
6 7 13 11 3 31 9 7 9 19 2 0 0 0 0 0 1 11 3 0 0 0 3 78 6 6 26 17 0 6 11 2 0 0 0 0 0 0 0 0 0 0 0 0 0 0 0
22 5 8 7 12 24 9 5 14 17 0 0 0 0 0 0 0 3 3 2 0 0 0 15 24 29 27 10 8 4 1 0 0 0 0 0 0 0 0 0 0 0 0 0 0 0 0
32 10 6 26 8 23 5 5 10 19 0 0 0 0 0 5 0 1 0 0 0 0 0 0 0 1 14 23 15 27 2 0 0 0 0 0 0 71 15 0 0 0 0 1 0 1 0
21 3 17 18 15 15 11 11 1 16 3 0 0 0 0 0 5 1 6 0 4 1 0 0 14 4 9 5 40 6 6 0 0 0 0 0 0 0 0 0 0 0 0 0 0 1 0
19 13 22 10 22 24 16 10 5 18 26 0 0 0 0 0 0 0 0 1 7 4 24 42 16 20 22 9 14 7 1 9 0 0 0 0 0 0 0 0 0 0 0 0 0 0 3
30 16 25 4 12 23 14 20 4 9 25 1 0 0 0 2 0 0 0 0 5 0 17 20 1 0 4 3 11 3 0 0 0 0 0 0 0 0 0 0 0 0 0 0 0 0 0
21 33 20 9 24 10 26 2 0 17 9 20 3 4 1 0 0 0 0 0 0 0 0 0 0 0 0 0 1 0 0 0 0 0 0 0 0 0 0 0 0 0 0 0 0 0 1
27 25 22 13 13 19 35 0 4 34 29 3 5 10 3 0 0 0 0 0 0 0 0 0 0 0 0 0 0 0 0 0 0 0 0 0 0 0 0 0 0 0 0 0 0 0 0
28 27 20 12 27 27 1 0 13 37 36 0 2 6 6 0 0 0 0 0 0 0 0 0 0 0 0 0 0 0 0 0 0 0 0 0 0 0 0 0 0 0 0 0 0 0 3
22 26 23 12 10 32 13 1 13 20 36 1 0 3 14 0 0 0 0 0 0 0 0 0 0 0 0 0 0 0 0 0 0 0 0 0 0 0 0 0 0 0 0 0 2 0 3
22 35 28 21 17 39 14 10 15 13 27 10 0 1 7 1 0 0 0 0 0 0 0 0 0 0 0 0 0 2 0 0 0 0 0 0 1 0 0 0 0 0 0 0 0 0 2
28 38 30 15 39 30 6 2 7 10 22 27 3 0 1 0 0 0 0 0 0 0 0 0 0 0 2 1 4 7 1 0 0 0 0 0 0 0 0 2 0 1 0 10 9 8 7
28 32 21 27 30 19 10 1 3 11 24 24 18 1 3 6 0 0 0 0 0 0 0 0 0 0 4 0 0 1 0 0 0 0 0 9 17 4 15 29 21 14 9 8 5 6 7

GFSGBSN_con_sbcape_096.txt.gz
CAPE
4 1 0 0 0 0 1 3 6 5 2 3 4 6 6 5 6 5 4 3 0 0 0 0 1 6 4 0 0 0 0 0 0 0 0 0 0 0 0 0 0 0 0 0 0 0 0
1 0 0 1 0 0 1 3 6 6 5 6 5 4 3 4 5 5 2 1 0 0 0 0 1 6 5 0 0 0 0 0 0 0 0 0 0 0 0 0 0 0 0 0 0 0 0
8 4 14 5 0 3 5 3 6 9 7 4 2 3 3 3 2 2 0 0 0 0 0 0 2 6 6 0 0 0 0 0 0 0 0 0 0 0 0 0 0 0 0 0 0 0 0
0 0 0 0 9 5 4 3 7 6 4 1 3 2 3 2 1 0 1 0 0 0 0 0 0 3 1 0 0 0 0 0 0 0 0 0 0 0 0 0 0 0 0 0 0 0 0
0 0 4 8 5 2 0 1 6 4 0 3 4 5 6 9 10 7 3 0 0 0 0 0 7 11 0 0 0 0 0 0 0 0 0 0 0 0 0 0 0 0 0 0 0 0 0
1 7 10 6 0 0 2 2 4 0 2 6 4 3 4 6 5 5 0 0 0 0 2 0 19 7 0 0 0 0 0 0 0 0 0 0 0 0 0 0 0 0 0 0 0 0 0
9 6 2 0 3 2 2 1 3 4 6 5 4 3 4 3 2 4 0 0 0 0 0 0 0 0 0 0 0 0 0 0 0 0 0 0 0 0 0 0 0 0 0 0 0 0 0
8 15 7 4 2 2 2 1 5 3 3 6 5 3 4 2 0 0 0 0 8 6 5 0 0 0 0 0 0 0 0 0 3 0 0 0 0 0 0 0 0 0 0 0 0 1 0
4 0 0 0 1 2 2 3 4 5 5 3 3 2 4 2 0 0 0 0 3 18 10 0 0 0 0 0 0 0 0 0 0 6 0 0 0 0 0 0 0 1 0 0 0 0 0
4 0 0 0 0 5 0 0 1 3 3 1 0 1 2 0 0 0 0 0 0 15 15 0 0 15 0 7 7 0 0 0 1 0 0 0 0 0 0 0 0 0 0 0 0 0 0
4 2 1 1 0 0 0 1 2 3 1 1 0 1 2 0 2 0 0 0 0 5 3 0 15 31 1 7 14 31 0 0 14 4 22 0 0 0 0 0 0 0 0 0 0 0 0
8 9 6 2 7 0 0 8 1 2 3 0 0 0 1 2 3 0 0 1 21 69 6 0 4 14 9 8 12 15 0 0 0 54 95 54 7 0 0 0 0 0 0 0 1 10 8
5 11 6 2 1 0 0 1 1 3 1 0 0 0 0 0 0 1 2 2 49 32 3 29 20 1 0 4 2 4 0 0 5 56 68 41 16 64 9 17 0 1 31 55 54 36 0
9 3 4 1 0 11 4 4 1 1 0 1 1 0 0 0 1 7 4 18 11 4 44 9 0 0 38 7 108 9 0 3 24 4 35 16 1 106 85 13 7 11 15 62 0 0 1
13 14 2 1 1 7 4 0 0 0 0 2 0 0 0 3 3 11 35 12 7 2 11 0 0 12 1 0 21 6 1 4 8 8 16 5 3 1 92 83 38 43 55 5 0 0 0
22 7 5 1 6 1 12 2 0 2 1 0 0 0 0 4 13 34 23 7 21 26 3 1 29 8 17 4 28 69 25 1 1 0 0 0 24 0 29 99 54 69 23 25 15 11 3
22 3 4 12 3 4 6 0 0 0 0 0 1 0 0 5 18 17 37 17 17 7 10 2 25 29 18 17 31 95 175 44 23 0 0 6 33 11 44 36 52 23 26 23 19 4 5
25 4 11 7 0 4 10 0 0 0 0 0 0 0 0 13 22 17 19 12 7 17 14 1 14 15 22 20 26 31 49 11 1 32 22 83 46 15 42 24 21 20 18 1 13 4 4
15 6 5 7 17 13 3 0 0 1 0 4 4 0 0 19 11 6 3 5 5 9 9 0 0 2 7 18 24 10 36 2 0 5 0 21 83 107 82 75 35 42 28 27 14 0 8
20 21 9 6 15 14 7 4 0 2 0 3 3 5 1 4 10 16 2 2 10 1 11 7 2 33 43 48 33 46 44 8 0 0 2 0 1 27 46 34 27 35 26 23 7 9 13
36 4 8 29 13 25 19 6 2 7 12 11 10 5 2 15 12 11 2 4 7 11 0 18 24 8 43 21 18 27 16 21 0 0 0 1 0 0 0 0 0 0 0 0 0 0 0
34 21 19 27 9 12 11 7 5 3 20 26 35 8 8 6 7 5 0 3 0 0 8 8 14 38 64 33 28 44 25 13 20 10 0 0 0 0 0 0 0 0 0 0 0 0 0
32 19 28 13 5 11 16 19 2 3 26 35 9 4 20 1 3 2 0 0 0 0 0 5 19 8 50 4 0 0 7 13 4 4 3 0 0 0 0 0 0 0 0 0 0 0 1
21 25 24 23 22 15 12 22 0 3 40 46 18 22 25 6 5 1 0 0 0 0 2 1 4 3 0 0 1 0 2 1 0 1 0 0 0 0 0 0 0 0 0 0 1 0 0
18 31 27 22 9 8 38 12 0 16 34 30 9 28 34 21 2 0 0 0 0 0 0 0 0 0 0 0 4 0 0 1 1 0 0 0 0 0 0 0 0 9 0 0 0 3 4
9 22 27 15 6 21 21 0 0 23 33 73 7 14 18 43 4 0 0 2 4 2 0 0 0 0 0 4 2 21 21 4 4 1 0 0 0 0 0 0 0 27 5 0 0 5 7
11 4 7 26 10 17 36 4 0 20 26 54 9 6 18 44 5 0 11 1 1 0 0 0 0 0 0 52 44 33 29 2 19 8 7 6 6 6 0 0 3 13 4 0 10 19 7
11 5 20 17 12 14 23 8 3 15 17 60 21 4 17 16 21 1 0 1 5 9 9 3 18 4 12 30 19 26 32 36 34 39 27 30 28 17 7 5 6 12 2 6 14 11 5
19 6 13 18 9 29 37 11 2 3 16 49 37 11 11 8 7 7 2 0 0 1 10 6 9 5 34 35 19 3 10 4 5 35 24 29 11 25 9 14 24 14 18 13 10 8 17

GFSGBSN_con_sbcape_099.txt.gz
CAPE
12 6 1 0 0 0 1 2 0 0 0 0 0 1 2 3 3 2 0 1 0 0 0 0 0 4 0 0 0 0 0 0 0 0 0 0 0 0 0 0 0 0 0 0 0 0 0
7 2 0 0 0 0 0 1 0 0 0 0 0 2 3 1 1 0 0 0 0 0 0 0 0 4 0 0 0 0 0 0 0 0 0 0 0 0 0 0 0 0 0 0 0 0 0
4 3 5 1 0 1 0 0 0 0 0 0 1 1 1 1 0 0 0 0 0 0 0 0 0 10 0 0 0 0 0 0 0 0 0 0 0 0 0 0 0 0 0 0 0 0 0
16 5 8 10 10 0 0 0 0 0 0 1 2 1 0 0 0 0 0 0 0 0 0 0 0 13 2 0 0 0 0 0 0 0 0 0 0 0 0 0 0 0 0 0 0 0 0
4 0 0 3 0 0 0 0 0 0 0 3 0 0 0 0 0 2 1 0 0 0 0 0 6 14 0 0 0 0 0 0 1 0 0 0 0 0 0 0 3 0 0 0 0 0 0
1 3 11 7 0 0 0 0 0 0 2 0 0 0 0 0 0 0 0 0 0 0 0 0 7 6 0 0 0 0 3 4 11 31 7 0 0 0 0 13 4 0 3 5 1 1 6
6 10 8 0 0 0 0 0 0 0 0 0 0 0 0 0 0 0 0 0 0 0 0 0 0 0 0 0 0 0 0 0 0 55 43 0 0 0 0 0 0 0 0 0 0 0 4
13 8 3 4 0 0 0 0 0 0 0 0 0 0 0 0 0 0 0 0 0 1 2 0 0 0 0 0 0 0 2 0 0 0 83 18 0 0 0 0 6 3 0 1 5 0 15
12 17 11 2 1 0 0 0 0 0 0 0 0 0 0 0 0 0 0 0 0 11 22 0 0 0 36 44 13 7 2 0 0 6 16 77 0 0 0 1 5 20 0 0 1 0 0
5 4 0 2 1 3 0 0 0 0 0 0 0 0 0 0 0 0 0 0 1 29 18 0 1 62 129 73 86 4 43 0 0 24 145 121 0 2 0 2 3 14 15 3 0 6 4
9 0 3 0 1 0 0 0 0 0 0 0 0 0 0 0 0 0 0 0 3 31 4 0 92 215 91 13 19 12 58 45 0 3 8 117 12 24 9 2 2 3 0 0 10 16 12
7 7 9 1 10 1 0 0 0 0 0 0 0 0 0 0 2 0 0 0 20 42 20 0 17 0 0 0 76 58 190 146 1 4 20 39 18 35 0 2 0 0 0 6 12 8 7
13 17 11 4 0 0 0 0 0 0 0 0 0 0 0 0 0 0 4 3 46 25 0 4 12 0 0 19 1 157 130 122 7 1 16 120 87 43 0 18 6 0 4 16 11 23 5
15 17 12 1 0 1 0 0 0 0 0 0 0 0 0 0 1 7 9 64 30 18 32 11 3 0 0 36 6 23 143 72 0 54 116 93 110 15 0 8 2 9 3 45 23 36 17
13 9 5 2 0 5 0 0 0 0 0 0 0 0 1 1 6 7 25 26 6 15 11 5 0 0 10 10 14 20 208 91 0 1 0 173 1 3 39 10 2 9 19 4 6 5 18
19 18 4 1 3 2 3 0 0 0 0 0 0 0 0 1 10 10 49 10 13 11 8 1 13 23 15 7 22 11 21 15 9 8 0 28 7 1 28 87 26 1 0 21 50 23 7
30 18 8 0 10 4 1 0 0 0 0 0 2 0 0 0 13 25 39 9 11 5 5 3 0 1 11 25 16 13 148 15 34 9 13 8 54 0 36 60 36 77 96 63 56 65 69
36 6 14 17 7 0 4 0 0 0 0 0 0 5 0 5 55 23 26 1 2 2 1 0 0 17 12 14 11 20 106 77 99 105 13 29 38 15 5 22 5 52 72 47 62 50 16
39 8 7 7 2 4 1 0 0 0 0 4 7 0 0 2 21 10 2 10 6 3 8 13 3 4 6 33 41 32 9 10 16 87 96 117 78 57 34 53 37 65 28 76 111 39 88
16 15 6 8 24 8 7 0 0 0 0 0 4 16 12 7 14 9 3 4 9 4 4 4 72 33 61 35 26 65 25 14 11 1 32 55 81 45 36 35 25 95 82 76 82 64 56
20 33 12 2 17 9 10 9 0 0 0 7 20 6 1 25 20 6 2 5 7 6 8 22 24 42 36 39 19 25 23 7 2 5 0 15 55 12 27 58 84 101 46 59 62 26 21
28 30 15 23 16 20 15 1 0 0 0 16 2 18 5 5 2 4 4 5 0 0 7 10 16 23 31 29 27 21 18 15 37 5 0 1 2 0 0 2 4 0 0 0 0 0 0
39 22 17 30 11 11 11 13 0 0 0 22 14 10 10 3 2 1 5 0 0 0 0 15 17 15 14 0 0 4 31 32 40 15 1 1 0 0 5 0 0 0 0 0 8 17 17
46 26 24 23 12 9 9 22 0 0 4 41 18 17 4 10 3 0 0 0 0 0 1 8 14 7 0 0 15 31 48 33 36 18 3 5 0 2 0 0 7 11 19 6 37 26 21
32 25 21 21 24 19 11 14 6 0 0 77 41 39 25 13 17 3 0 0 1 1 5 0 0 0 0 4 24 23 59 43 27 4 0 1 5 0 0 7 6 23 27 33 26 11 7
0 17 16 24 19 6 30 19 0 9 5 73 25 30 45 37 38 0 2 4 15 10 3 5 0 0 0 65 46 23 36 29 16 16 4 0 0 5 0 0 10 22 2 16 23 35 9
28 12 11 17 5 12 21 13 0 2 7 66 47 10 65 54 35 5 26 24 29 12 8 6 0 1 7 76 87 31 44 12 38 20 5 5 5 22 5 7 25 8 1 0 22 21 12
4 17 27 20 13 15 18 29 4 0 14 44 39 19 27 37 31 21 38 24 32 40 42 27 31 26 23 50 26 23 31 15 35 23 20 40 32 44 55 15 22 5 0 2 15 18 12
7 36 29 37 17 14 12 13 4 2 16 12 50 26 21 29 17 8 5 12 11 33 53 37 18 32 27 27 32 10 42 9 33 64 15 46 24 22 15 12 13 10 12 11 9 8 24

GFSGBSN_con_sbcape_102.txt.gz
CAPE
21 16 8 7 0 0 0 1 0 0 0 0 0 0 0 0 0 0 0 0 0 0 0 0 0 1 0 0 0 0 0 0 0 0 0 0 0 0 0 0 0 0 0 0 0 0 0
21 16 7 0 0 0 1 0 0 0 0 0 0 0 0 0 0 0 0 0 0 0 0 0 0 0 0 0 0 0 0 0 0 0 0 0 0 0 0 0 0 0 0 0 0 0 0
29 15 5 1 0 1 0 0 0 0 0 0 0 0 0 0 0 0 0 0 0 0 0 0 0 0 0 0 0 0 0 0 0 0 0 0 0 0 0 0 0 0 0 0 1 0 0
25 18 13 6 3 1 0 0 0 0 0 0 0 0 0 0 0 0 0 0 0 0 0 0 0 0 0 0 0 0 0 0 0 0 0 0 0 0 0 0 0 0 0 0 0 0 1
19 25 24 14 10 0 0 0 0 0 0 0 0 0 0 0 0 0 0 0 0 0 0 0 0 0 0 0 0 0 0 0 0 0 0 0 0 0 0 0 0 0 0 0 0 0 0
22 11 17 14 5 0 0 0 0 0 0 0 0 0 0 0 0 0 0 0 0 0 0 0 0 0 0 0 0 0 0 0 11 6 2 23 3 0 0 4 6 0 0 0 0 0 0
34 8 17 20 2 0 0 0 0 0 0 0 0 0 0 0 0 0 0 0 0 0 0 0 0 0 0 0 0 0 0 0 0 0 0 8 84 5 0 0 0 0 0 11 6 1 0
27 24 27 17 2 1 0 1 0 0 0 0 0 0 0 0 0 0 0 0 0 0 0 0 0 0 0 0 0 0 16 11 9 0 0 0 0 13 0 0 0 0 68 98 1 0 22
39 22 29 18 5 3 0 0 0 0 0 0 0 0 0 0 0 0 0 0 0 0 0 0 0 0 23 76 27 5 93 107 63 42 0 0 0 94 0 0 0 2 26 19 6 14 0
29 28 34 18 7 4 4 0 0 0 0 0 0 0 0 0 0 0 0 0 0 0 1 0 10 65 2 4 1 4 27 45 32 24 14 0 0 3 20 0 0 39 49 135 68 0 2
29 42 19 12 5 8 0 0 0 0 0 0 0 0 0 0 0 0 0 0 0 1 2 0 0 8 1 0 0 0 7 0 69 3 2 0 0 3 86 0 0 28 83 92 27 0 0
26 23 16 11 7 4 0 0 0 0 0 0 0 0 0 0 0 0 0 0 3 13 0 0 0 0 0 0 1 10 20 45 70 17 0 0 0 23 116 18 0 41 43 0 0 0 23
22 22 20 11 11 7 0 0 0 0 0 0 0 0 0 0 0 0 0 0 14 5 0 0 0 0 0 1 22 6 8 8 33 5 0 0 0 10 81 24 15 57 34 4 11 11 1
19 23 21 13 10 0 1 0 0 0 0 0 0 0 0 0 0 0 0 4 0 0 0 0 0 0 0 45 1 0 6 123 37 0 0 0 176 14 64 23 2 0 2 19 0 0 0
25 26 16 12 5 1 4 0 0 0 0 0 0 0 0 0 0 0 5 0 0 0 0 0 0 0 0 0 2 10 2 93 0 0 2 123 70 24 13 11 0 0 12 22 143 9 16
26 22 18 9 2 13 7 0 0 0 0 0 0 0 0 0 0 0 10 0 1 0 0 0 0 0 4 9 8 9 9 82 9 21 16 13 40 40 29 3 2 1 3 8 20 63 42
28 21 13 8 5 10 8 0 0 0 0 0 0 0 0 0 0 7 12 1 3 3 0 0 0 5 6 7 14 11 19 137 129 91 7 0 10 20 50 11 1 0 0 14 12 17 4
40 33 15 3 15 10 10 0 0 0 0 0 0 11 0 0 35 26 9 0 7 7 9 23 8 8 14 8 15 32 43 54 4 85 10 24 51 0 0 17 43 16 21 6 27 11 29
38 19 7 14 17 3 17 0 0 0 0 0 2 0 0 0 8 1 1 8 8 3 7 18 23 16 3 11 21 54 25 1 5 65 35 64 26 35 5 1 3 12 4 36 76 1 49
44 21 16 19 16 14 6 0 0 0 0 0 0 12 6 3 2 1 1 6 6 3 0 12 18 27 53 31 5 15 26 6 9 3 3 107 58 8 23 17 9 3 18 34 25 5 2
40 29 19 15 25 11 14 2 0 0 0 1 12 6 0 18 14 1 3 3 4 3 5 20 7 13 9 34 0 0 7 14 1 0 2 11 18 2 5 23 7 1 1 0 33 13 1
30 48 42 16 31 13 13 4 0 0 0 8 0 17 1 0 1 1 1 1 0 0 2 12 16 17 9 0 0 0 9 22 13 0 0 0 18 0 0 22 0 0 0 0 0 5 28
28 43 43 16 29 26 16 0 0 0 0 14 1 2 1 1 2 0 5 0 0 0 0 5 9 17 3 0 0 5 18 3 21 18 1 4 1 8 0 0 0 0 2 8 0 0 2
29 42 19 35 24 20 10 8 0 0 0 37 11 2 4 3 2 1 0 0 0 0 0 0 6 1 0 0 0 42 31 24 29 24 9 1 5 5 0 0 7 1 27 1 1 2 0
45 34 31 34 28 16 7 12 3 0 0 18 43 27 21 13 6 6 0 2 0 4 9 1 3 0 0 0 0 9 18 13 26 18 13 8 12 30 43 4 4 7 0 0 7 14 7
46 37 33 28 26 25 15 8 17 0 0 13 44 32 23 8 32 2 0 24 15 11 1 2 3 0 0 10 13 13 3 2 8 24 7 3 35 72 59 15 15 5 0 0 0 15 13
49 38 35 21 33 13 24 23 1 0 0 19 64 24 32 35 19 20 24 10 19 27 17 30 0 5 0 12 33 21 28 1 10 16 6 14 28 28 54 15 6 3 0 0 5 12 14
20 29 38 34 20 20 34 24 0 0 0 19 67 30 29 24 9 16 12 18 22 21 33 17 13 22 3 23 7 9 7 0 6 13 11 1 8 6 1 7 2 2 0 1 11 17 20
26 34 50 40 25 36 21 18 16 0 6 0 52 34 12 15 5 0 0 0 0 3 30 23 42 34 22 19 12 2 16 51 5 38 1 14 13 7 7 6 10 7 11 23 14 7 26

GFSGBSN_con_sbcape_105.txt.gz
CAPE
28 11 10 8 7 1 0 0 0 0 0 0 0 0 0 0 0 0 0 0 0 0 0 0 0 0 0 0 0 0 0 0 0 0 0 0 0 0 0 0 0 0 0 0 0 0 0
26 23 5 9 5 0 2 3 0 0 0 0 0 0 0 0 0 0 0 0 0 0 0 0 0 1 0 0 0 0 0 0 0 0 0 0 0 0 0 0 0 0 0 0 0 0 0
17 9 2 0 0 0 2 0 0 0 0 0 0 0 0 0 0 0 0 0 0 0 0 0 0 0 0 0 0 0 0 0 0 0 0 0 0 0 0 0 0 0 0 0 0 0 0
27 8 0 1 0 0 1 0 0 0 0 0 0 0 0 0 0 0 0 0 0 0 0 0 0 0 0 0 0 0 0 0 0 0 0 0 0 0 0 0 0 0 0 0 0 0 0
40 18 1 1 0 0 0 0 0 0 0 0 0 0 0 0 0 0 0 0 0 0 0 0 0 0 0 0 0 0 0 0 0 0 0 0 0 0 0 0 0 0 0 0 0 0 0
43 16 5 7 1 0 0 0 0 0 0 0 0 0 0 0 0 0 0 0 0 0 0 0 0 0 0 0 0 0 0 0 0 0 0 0 0 0 0 0 0 0 0 0 0 0 0
58 22 34 17 6 1 0 0 2 0 0 0 0 0 0 0 0 0 0 0 0 0 0 0 0 0 0 0 0 0 0 0 0 0 0 0 0 0 0 0 0 0 0 2 0 0 32
65 51 32 24 9 1 3 3 2 0 0 0 0 0 0 0 0 0 0 0 0 0 0 0 0 0 0 0 0 0 0 0 9 0 6 4 0 0 0 81 1 0 0 0 0 7 97
64 46 39 27 3 4 7 7 0 0 0 0 0 0 0 0 0 0 0 0 0 0 0 0 0 0 0 0 0 0 0 16 0 3 0 28 0 0 0 14 43 1 0 0 0 108 95
59 65 45 28 6 6 8 5 0 0 0 0 0 0 0 0 0 0 0 0 0 0 0 0 0 0 0 0 0 0 0 0 0 0 0 19 0 30 4 38 21 0 0 0 0 160 101
73 78 41 26 6 13 8 5 0 0 0 0 0 0 0 0 0 0 0 0 0 0 0 0 0 0 0 0 0 0 0 0 0 0 20 2 0 0 0 0 19 3 6 5 2 33 17
71 49 33 21 13 14 13 0 0 0 0 0 0 0 0 0 0 0 0 0 0 0 0 0 0 0 0 0 0 0 0 0 0 0 2 0 0 0 21 81 13 68 287 255 37 8 0
59 54 29 13 5 23 6 0 0 0 0 0 0 0 0 0 0 0 0 0 0 0 0 0 0 0 0 0 0 0 0 0 9 1 0 0 0 0 0 0 1 138 124 22 32 0 0
54 40 21 16 19 19 5 8 0 0 0 0 0 0 0 0 0 0 0 0 0 0 0 0 0 0 0 0 0 0 0 0 14 1 0 0 0 0 0 0 6 6 21 2 1 0 0
35 37 26 19 28 19 7 5 0 0 0 0 0 0 0 0 0 0 0 0 0 0 0 0 0 0 0 0 0 0 0 0 26 3 1 11 5 0 15 22 1 1 18 22 11 50 49
36 32 36 30 18 10 16 3 0 0 0 0 0 0 0 0 0 0 0 0 0 0 0 0 0 0 0 0 0 0 0 0 16 1 3 7 1 9 43 3 0 0 3 0 0 21 20
28 47 32 22 12 26 13 7 0 0 0 0 0 0 0 0 0 0 0 0 0 0 0 4 2 12 0 4 0 0 0 0 0 7 0 0 3 10 44 97 1 0 2 13 38 9 11
49 44 20 18 21 18 14 1 0 0 0 0 0 0 0 0 0 0 0 0 0 0 0 0 0 7 0 0 0 0 0 7 1 10 3 0 0 4 0 0 3 17 6 16 17 11 9
40 33 26 24 21 20 16 0 0 0 0 0 0 0 0 0 0 0 0 1 0 0 0 0 1 14 9 2 4 0 0 0 0 1 4 0 19 8 18 1 4 14 3 3 10 6 14
40 40 21 15 32 5 12 0 0 0 0 0 0 0 0 0 0 0 0 0 0 0 0 0 6 3 5 0 0 0 0 0 0 0 0 7 31 18 16 33 18 28 30 14 9 2 4
41 42 30 24 13 11 8 0 0 0 0 0 0 0 0 0 3 0 0 0 0 0 0 0 0 1 1 13 0 0 0 0 0 1 0 0 1 2 8 4 0 7 7 4 1 15 7
36 52 39 29 17 12 14 0 0 0 0 0 0 0 0 0 0 0 0 0 0 0 0 0 0 0 0 0 0 0 0 1 3 0 0 0 3 5 3 1 1 3 0 0 1 19 36
40 28 29 25 26 8 11 0 0 0 0 0 0 0 0 0 0 0 0 0 0 0 0 0 0 0 0 0 0 0 0 0 2 13 0 0 0 0 4 0 7 1 4 3 5 4 2
43 41 19 3 23 22 12 0 0 0 0 0 0 0 0 0 0 0 0 0 0 0 0 0 0 0 0 0 0 0 0 1 4 17 0 0 0 0 0 0 5 7 1 2 6 6 4
45 39 23 23 21 19 11 11 0 0 0 0 0 0 0 0 0 0 0 2 0 0 0 0 0 0 0 0 0 0 0 1 0 2 5 0 0 0 4 1 1 0 0 1 13 17 11
20 24 17 27 37 42 38 20 3 0 0 0 0 0 0 0 0 0 0 0 0 0 0 0 0 0 0 0 0 9 4 1 1 8 4 10 0 0 0 1 1 0 0 0 0 5 16
29 40 47 35 47 37 32 19 14 0 0 0 0 0 0 0 0 0 0 0 0 0 0 0 0 0 0 0 0 1 4 1 0 6 0 0 0 0 0 1 1 2 0 0 0 7 35
51 42 45 44 53 40 36 26 3 0 0 0 12 0 1 2 0 0 0 0 0 0 0 0 0 0 0 0 0 0 0 0 6 9 9 0 0 0 0 0 0 0 0 0 13 19 29
34 43 50 56 34 44 41 29 0 0 0 0 13 2 0 0 0 0 0 0 0 0 0 0 1 7 5 0 0 0 0 0 0 9 0 0 1 0 4 5 9 9 12 15 12 16 22

GFSGBSN_con_sbcape_108.txt.gz
CAPE
18 21 18 11 2 2 0 0 0 0 0 0 0 0 0 0 0 0 0 0 0 0 0 0 0 0 0 0 0 0 0 0 0 0 0 0 0 0 0 0 0 0 0 0 0 0 0
21 23 17 7 3 2 0 0 0 0 0 0 0 0 0 0 0 0 0 0 0 0 0 0 1 0 0 0 0 0 0 0 0 0 0 0 0 0 0 0 0 0 0 0 0 0 0
23 38 22 1 0 3 0 0 0 0 0 0 0 0 0 0 0 0 0 0 0 0 0 0 0 0 0 0 0 0 0 0 0 0 0 0 0 0 0 0 0 0 0 0 0 0 0
26 39 26 5 0 1 1 0 0 0 0 0 0 0 0 0 0 0 0 0 0 0 0 0 0 0 0 0 0 0 0 0 0 0 0 0 0 0 0 0 0 0 0 0 0 0 0
23 36 27 13 0 0 4 0 0 0 0 0 0 0 0 0 0 0 0 0 0 0 0 0 0 0 0 0 0 0 0 0 0 0 0 0 0 0 0 0 0 0 0 0 0 0 0
24 34 24 10 1 10 2 0 0 0 0 0 0 0 0 0 0 0 0 0 0 0 0 0 0 0 0 0 0 0 0 0 0 0 0 0 0 0 0 0 0 0 0 0 0 0 0
33 35 34 20 7 6 4 0 0 0 0 0 0 0 0 0 0 0 0 0 0 0 0 0 0 0 0 0 0 0 0 0 0 0 0 0 0 0 0 0 48 0 0 0 0 0 0
19 33 34 31 37 15 7 0 0 0 0 0 0 0 0 0 0 0 0 0 0 0 0 0 0 0 0 0 0 0 0 0 0 0 0 0 0 0 4 5 0 1 46 0 0 0 0
15 24 41 60 38 17 4 0 0 0 0 0 0 0 0 0 0 0 0 0 0 0 0 0 0 0 0 0 0 0 0 0 0 0 0 0 0 0 11 3 0 0 0 5 0 0 0
14 17 44 75 45 26 4 1 0 0 0 0 0 0 0 0 0 0 0 0 0 0 0 0 0 0 0 0 0 0 0 0 0 0 0 0 0 0 5 0 7 0 1 8 9 0 0
12 21 37 47 33 25 16 5 2 0 0 0 0 0 0 0 0 0 0 0 0 0 0 0 0 0 0 0 0 0 0 0 0 0 0 0 0 0 2 11 21 0 0 0 11 0 2
12 22 32 47 35 24 14 3 2 0 0 0 0 0 0 0 0 0 0 0 0 0 0 0 0 0 0 0 0 0 0 0 0 0 0 0 0 0 0 0 5 16 31 46 20 6 0
16 22 40 51 38 21 12 5 3 0 0 0 0 0 0 0 0 0 0 0 0 0 0 0 0 0 0 0 0 0 0 0 2 5 0 0 0 0 0 0 0 1 22 5 2 15 0
18 30 40 63 42 28 20 7 2 0 0 0 0 0 0 0 0 0 0 0 0 0 0 0 0 0 0 0 0 0 0 0 3 0 0 0 0 0 0 0 0 0 0 1 16 10 0
31 32 55 32 30 41 16 10 1 0 0 0 0 0 0 0 0 0 0 0 0 0 0 0 0 0 0 0 0 0 0 0 5 3 17 2 0 0 0 0 0 0 0 7 48 0 2
37 56 51 47 54 33 14 11 3 0 0 0 0 0 0 0 0 0 0 0 0 0 0 0 0 0 0 0 1 0 0 0 0 0 5 9 0 0 28 0 0 0 1 6 0 8 19
67 69 45 43 60 26 21 14 1 0 0 0 0 0 0 0 0 0 0 0 0 0 0 0 0 1 0 4 4 0 0 0 0 0 1 14 2 4 16 4 3 0 0 29 30 31 4
69 77 70 64 20 32 17 11 0 0 0 0 0 0 0 0 0 0 0 0 0 0 0 0 0 0 13 0 14 0 0 1 0 1 4 4 4 2 1 11 0 12 23 31 6 10 14
77 65 53 30 41 24 33 9 0 0 0 0 0 0 0 0 0 0 0 0 0 0 0 0 0 4 1 3 1 0 0 0 0 0 10 6 7 1 12 0 1 12 17 14 20 2 16
97 42 37 34 32 30 24 1 0 0 0 0 0 0 0 0 0 0 0 0 0 0 0 0 0 0 0 0 0 0 0 0 0 0 11 2 7 6 5 4 0 18 46 16 15 8 6
50 60 42 30 23 18 21 5 0 0 0 0 0 0 0 0 0 0 0 0 0 0 0 0 0 0 0 0 0 0 0 0 0 0 0 1 3 4 19 10 13 14 8 8 13 4 2
75 42 39 33 21 29 14 0 0 0 0 0 0 0 0 0 0 0 0 0 0 0 0 0 0 0 0 0 0 0 0 0 0 0 0 0 1 0 7 15 13 9 5 6 10 12 25
25 24 53 44 35 29 6 0 0 0 0 0 0 0 0 0 0 0 0 0 0 0 0 0 0 0 0 0 0 0 0 0 0 0 0 0 0 4 9 8 3 0 9 6 6 8 7
39 10 16 40 25 20 5 0 0 0 0 0 0 0 0 0 0 0 0 0 0 0 0 0 0 0 0 0 0 0 0 0 0 1 0 1 0 0 0 0 0 11 10 7 7 7 3
25 29 25 40 46 19 2 0 0 0 0 0 0 0 0 0 0 0 0 0 0 0 0 0 0 0 0 0 0 0 0 0 1 0 2 0 0 0 6 2 8 1 0 5 12 15 9
60 51 42 57 51 35 12 0 0 0 0 0 0 0 0 0 0 0 0 0 0 0 0 0 0 0 0 0 0 4 14 0 12 20 8 0 0 3 0 0 1 1 0 0 0 3 16
51 47 47 47 43 37 11 8 0 0 0 0 0 0 0 0 0 0 0 0 0 0 0 0 0 0 0 0 0 0 0 0 6 3 1 0 0 0 0 1 1 3 0 0 0 2 30
63 57 62 54 53 39 14 9 0 0 0 0 0 0 0 0 0 0 0 0 0 0 0 0 0 0 0 0 0 0 0 0 2 10 2 0 1 0 0 0 0 1 0 0 16 22 23
52 48 54 63 59 47 31 2 0 0 0 0 0 0 0 0 0 0 0 0 0 0 0 0 0 0 0 0 0 0 0 0 0 0 0 0 0 0 4 3 8 19 24 28 25 19 11

GFSGBSN_con_sbcape_111.txt.gz
CAPE
5 10 12 10 13 8 3 0 0 0 0 0 0 0 0 0 0 0 0 0 0 0 0 0 1 1 0 0 0 0 0 0 0 0 0 0 0 0 0 0 0 0 0 0 0 0 0
2 4 8 10 11 2 4 1 0 0 0 0 0 0 0 0 0 0 0 0 0 0 0 1 2 0 0 0 0 0 0 0 0 0 0 0 0 0 0 0 0 0 0 0 0 0 0
9 2 8 15 8 4 6 4 0 0 0 0 0 0 0 0 0 0 0 0 0 0 0 1 2 0 0 0 0 0 0 0 0 0 0 0 0 0 0 0 0 0 0 0 0 0 0
10 7 4 15 2 1 2 1 2 0 0 0 0 0 0 0 0 0 0 0 0 0 0 0 1 0 0 0 0 0 0 0 0 0 0 0 0 0 0 0 0 0 0 0 0 0 0
7 9 6 16 6 0 0 0 0 0 0 0 0 0 0 0 0 0 0 0 0 0 0 0 0 0 0 0 0 0 0 0 0 0 0 0 0 0 0 0 0 0 0 0 0 0 0
2 9 9 17 12 4 0 2 0 0 0 0 0 0 0 0 0 0 0 0 0 0 0 0 0 0 0 0 0 0 0 0 0 0 0 0 0 0 0 0 0 0 0 0 0 0 0
2 5 10 18 15 13 1 2 0 0 0 0 0 0 0 0 0 0 0 0 0 0 0 0 0 0 0 0 0 0 0 0 0 0 0 0 0 0 0 0 0 0 0 0 0 0 0
2 4 11 22 17 15 4 10 3 1 0 0 0 0 0 0 0 0 0 0 0 0 0 0 0 0 0 0 0 0 0 0 0 0 0 0 0 0 0 0 0 0 0 0 0 0 0
1 0 8 22 19 15 19 15 11 0 0 0 0 0 0 0 0 0 0 0 0 0 0 0 0 0 0 0 0 0 0 0 0 0 0 0 0 0 0 0 0 0 0 0 0 0 20
24 1 7 17 18 17 23 31 12 9 0 0 0 0 0 0 0 0 0 0 0 0 0 0 0 0 0 0 0 0 0 0 0 0 0 0 0 0 0 0 0 0 0 0 0 0 0
27 0 2 7 13 15 23 39 23 12 0 0 0 0 0 0 0 0 0 0 0 0 0 0 0 0 0 0 0 0 0 0 0 0 0 0 0 0 0 0 0 0 3 0 0 0 0
43 1 2 9 14 25 31 32 25 11 0 0 0 0 0 0 0 0 0 0 0 0 0 0 0 0 0 0 0 0 0 0 0 0 0 0 0 0 0 0 0 0 2 3 0 0 0
22 0 3 11 17 23 36 36 16 4 2 0 0 0 0 0 0 0 0 0 0 0 0 0 0 0 0 0 0 0 0 0 12 1 0 0 0 0 0 0 0 0 3 0 6 1 0
9 0 5 14 16 22 25 33 10 0 0 0 0 0 0 0 0 0 0 0 0 0 0 0 0 0 0 0 0 0 0 0 3 11 1 1 0 0 0 0 0 0 0 0 0 10 0
0 4 10 15 22 22 32 19 4 0 0 0 0 0 0 0 0 0 0 0 0 0 0 0 0 0 0 0 0 0 0 0 1 1 27 6 0 0 0 0 0 0 0 0 2 10 2
0 11 19 22 27 24 33 19 4 1 0 0 0 0 0 0 0 0 0 0 0 0 0 0 0 0 0 0 0 0 0 0 0 0 4 22 4 0 6 0 0 0 0 2 3 0 1
8 22 23 22 26 34 23 23 8 1 0 0 0 0 0 0 0 0 0 0 0 0 0 0 0 0 0 0 1 0 0 0 0 0 0 15 4 0 0 5 0 0 0 1 7 0 4
22 24 26 29 40 31 40 32 5 2 0 0 0 0 0 0 0 0 0 0 0 0 0 0 0 0 0 0 0 0 0 0 0 0 0 5 28 0 0 0 0 0 0 15 0 0 14
36 40 38 50 59 57 50 20 7 1 0 0 0 0 0 0 0 0 0 0 0 0 0 0 0 0 0 0 0 0 0 0 0 0 2 11 15 5 0 0 0 2 0 21 23 4 1
47 52 79 76 67 49 50 18 4 0 0 0 0 0 0 0 0 0 0 0 0 0 0 0 0 0 0 0 0 0 0 0 0 0 3 9 14 11 3 4 19 13 20 11 8 13 0
78 69 66 68 55 49 23 10 3 0 0 0 0 0 0 0 0 0 0 0 0 0 0 0 0 0 0 0 0 0 0 0 0 0 0 2 2 19 21 27 4 10 6 19 6 5 1
57 82 64 66 50 34 15 3 0 0 0 0 0 0 0 0 0 0 0 0 0 0 0 0 0 0 0 0 0 0 0 0 0 0 0 5 0 0 6 0 2 1 3 2 11 8 7
39 55 56 49 52 17 5 2 0 0 0 0 0 0 0 0 0 0 0 0 0 0 0 0 0 0 0 0 0 0 0 0 0 0 0 3 5 4 0 16 8 0 4 2 2 4 7
72 39 35 37 34 15 5 0 0 0 0 0 0 0 0 0 0 0 0 0 0 0 0 0 0 0 0 0 0 0 0 0 0 0 0 0 0 12 1 1 0 8 5 19 2 3 6
69 53 39 55 45 8 0 0 0 0 0 0 0 0 0 0 0 0 0 0 0 0 0 0 0 0 0 0 0 0 0 0 2 1 1 0 0 3 4 0 7 4 3 4 8 8 6
56 63 59 53 31 21 0 0 0 0 0 0 0 0 0 0 0 0 0 0 0 0 0 0 0 0 0 0 0 0 0 0 0 1 0 0 0 5 5 0 0 3 1 0 0 7 7
58 61 48 35 39 28 0 0 0 0 0 0 0 0 0 0 0 0 0 0 0 0 0 0 0 0 0 0 0 0 0 0 6 2 1 0 0 1 4 1 3 3 3 0 1 3 14
57 57 51 42 42 34 4 0 0 0 0 0 0 0 0 0 0 0 0 0 0 0 0 0 0 0 0 0 0 0 0 0 4 4 8 1 3 3 0 0 0 0 0 0 9 22 5
49 44 53 48 52 44 18 0 0 0 0 0 0 0 0 0 0 0 0 0 0 0 0 0 0 0 0 0 0 0 0 0 0 3 0 0 0 0 5 2 14 33 20 13 6 2 23

GFSGBSN_con_sbcape_114.txt.gz
CAPE
2 6 7 0 0 2 4 6 3 0 0 0 0 0 0 0 0 0 0 0 0 0 0 0 1 0 0 0 0 0 0 0 0 0 0 0 0 0 0 0 0 0 0 0 0 0 0
0 1 4 1 0 1 5 6 5 0 0 0 0 0 0 0 0 0 0 0 0 0 0 0 1 0 0 0 0 0 0 0 0 0 0 0 0 0 0 0 0 0 0 0 0 0 0
3 1 1 0 0 3 4 0 1 0 0 0 0 0 0 0 0 0 0 0 0 0 0 0 1 0 0 0 0 0 0 0 0 0 0 0 0 0 0 0 0 0 0 0 0 0 0
2 2 3 1 0 1 1 0 0 0 0 0 0 0 0 0 0 0 0 0 0 0 0 0 1 0 0 0 0 0 0 0 0 0 0 0 0 0 0 0 0 0 0 0 0 0 0
3 3 4 2 0 0 2 1 0 0 0 0 0 0 0 0 0 0 0 0 0 0 0 0 0 0 0 0 0 0 0 0 0 0 0 0 0 0 0 0 0 0 0 0 0 0 0
6 7 1 2 1 1 4 6 0 0 0 0 0 0 0 0 0 0 0 0 0 0 0 0 0 0 0 0 0 0 0 0 0 0 0 0 0 0 0 0 0 0 0 0 0 0 0
27 56 1 2 2 7 10 12 1 0 0 0 0 0 0 0 0 0 0 0 0 0 0 0 0 0 0 0 0 0 0 0 0 0 0 0 0 0 0 0 0 0 0 0 0 0 0
3 11 30 2 3 9 13 14 5 0 0 0 0 0 0 0 0 0 0 0 0 0 0 0 0 0 0 0 0 0 0 0 0 0 0 0 0 0 0 0 0 0 0 0 0 0 0
13 9 29 66 2 8 13 13 9 4 0 0 0 0 0 0 0 0 0 0 0 0 0 0 0 0 0 0 0 0 0 0 0 0 0 0 0 0 0 0 0 0 0 0 0 0 0
10 9 14 41 13 4 11 11 13 7 0 0 0 0 0 0 0 0 0 0 0 0 0 0 0 0 0 0 0 0 0 0 0 0 0 0 0 0 0 0 0 0 0 0 0 0 0
17 9 11 25 23 1 1 8 14 10 2 1 0 0 0 0 0 0 0 0 0 0 0 0 0 0 0 0 0 0 0 0 0 0 0 0 0 0 0 0 0 0 0 0 0 0 0
26 21 14 10 39 0 0 7 10 7 6 0 0 0 0 0 0 0 0 0 0 0 0 0 0 0 0 0 0 0 0 0 0 0 0 0 0 0 0 0 0 0 0 0 0 0 0
23 31 18 26 54 4 0 8 14 13 6 0 0 0 0 0 0 0 0 0 0 0 0 0 0 0 0 0 0 0 0 0 7 2 0 0 0 0 0 0 0 0 0 0 0 0 0
20 25 27 28 56 0 5 13 15 11 6 1 0 0 0 0 0 0 0 0 0 0 0 0 0 0 0 0 0 0 0 0 3 0 3 6 0 0 0 0 0 0 0 0 0 0 16
14 9 23 27 29 2 7 9 18 11 10 2 0 0 0 0 0 0 0 0 0 0 0 0 0 0 0 0 0 0 0 0 0 0 23 7 0 0 0 0 0 0 0 0 6 0 1
0 11 10 17 1 3 8 16 19 21 18 22 0 0 0 0 0 0 0 0 0 0 0 0 0 0 0 0 0 0 0 0 0 0 7 4 13 0 0 0 0 0 0 0 4 0 0
7 10 8 33 0 8 18 18 16 22 16 0 0 0 0 0 0 0 0 0 0 0 0 0 0 0 0 0 0 0 0 0 0 0 0 0 16 0 0 0 0 0 0 0 4 0 0
7 0 5 0 4 19 21 21 31 15 1 0 0 0 0 0 0 0 0 0 0 0 0 0 0 0 0 0 0 0 0 0 0 0 0 0 41 0 0 0 0 1 0 13 24 0 2
0 3 0 7 16 24 23 29 27 5 7 0 0 0 0 0 0 0 0 0 0 0 0 0 0 0 0 0 0 0 0 0 0 0 0 15 5 3 0 0 0 0 2 11 15 12 0
2 3 13 19 28 33 37 35 27 4 0 0 0 0 0 0 0 0 0 0 0 0 0 0 0 0 0 0 0 0 0 0 0 0 0 8 63 40 4 13 22 6 7 13 27 1 1
9 16 24 32 42 39 31 31 29 2 1 0 0 0 0 0 0 0 0 0 0 0 0 0 0 0 0 0 0 0 0 0 0 0 0 14 13 6 2 4 2 5 4 3 1 1 0
34 44 54 58 51 38 42 37 4 2 1 0 0 0 0 0 0 0 0 0 0 0 0 0 0 0 0 0 0 0 0 0 0 0 0 3 0 2 3 10 17 0 2 3 7 5 4
35 39 52 52 48 31 34 18 17 4 0 0 0 0 0 0 0 0 0 0 0 0 0 0 0 0 0 0 0 0 0 0 0 0 0 7 11 4 1 0 0 0 1 1 1 4 6
43 37 36 35 34 27 11 9 2 0 0 0 0 0 0 0 0 0 0 0 0 0 0 0 0 0 0 0 0 0 0 0 0 0 0 2 12 14 4 2 0 0 1 2 1 3 6
61 57 51 51 21 5 9 2 0 0 0 0 0 0 0 0 0 0 0 0 0 0 0 0 0 0 0 0 0 0 0 0 0 0 2 0 8 10 3 1 2 0 0 4 7 4 4
28 37 24 31 28 22 13 0 0 0 0 0 0 0 0 0 0 0 0 0 0 0 0 0 0 0 0 0 0 0 0 0 0 0 0 0 0 7 0 0 0 1 0 2 0 2 2
82 83 67 37 12 10 0 0 0 0 0 0 0 0 0 0 0 0 0 0 0 0 0 0 0 0 0 0 0 0 0 0 0 0 0 0 0 2 3 1 1 2 4 1 1 1 2
78 61 61 37 19 5 0 0 0 0 0 0 0 0 0 0 0 0 0 0 0 0 0 0 0 0 0 0 0 0 0 0 0 4 11 0 1 1 6 0 0 7 2 0 13 4 1
72 63 51 22 13 6 3 0 0 0 0 0 0 0 0 0 0 0 0 0 0 0 0 0 0 0 0 0 0 0 0 0 0 6 0 1 0 3 4 1 12 12 7 3 0 9 2

GFSGBSN_con_sbcape_117.txt.gz
CAPE
0 0 0 3 0 0 0 0 0 0 0 0 0 0 0 0 0 0 0 0 0 0 0 0 0 0 0 0 0 0 0 0 0 0 0 0 0 0 0 0 0 0 0 0 0 0 0
0 0 0 0 0 0 0 0 0 0 0 0 0 0 0 0 0 0 0 0 0 0 0 0 0 0 0 0 0 0 0 0 0 0 0 0 0 0 0 0 0 0 0 0 0 0 0
2 0 0 0 0 0 0 0 0 0 0 0 0 0 0 0 0 0 0 0 0 0 0 0 0 0 0 0 0 0 0 0 0 0 0 0 0 0 0 0 0 0 0 0 0 0 0
2 1 1 0 0 0 0 0 0 0 0 0 0 0 0 0 0 0 0 0 0 0 0 0 0 0 0 0 0 0 0 0 0 0 0 0 0 0 0 0 0 0 0 0 0 0 0
1 8 4 1 0 0 0 0 0 0 0 0 0 0 0 0 0 0 0 0 0 0 0 0 0 0 0 0 0 0 0 0 0 0 0 0 0 0 0 0 0 0 0 0 0 0 0
1 3 15 1 1 0 0 0 0 0 0 0 0 0 0 0 0 0 0 0 0 0 0 0 0 0 0 0 0 0 0 0 0 0 0 0 0 0 0 0 0 0 0 0 0 0 0
4 0 3 5 2 1 2 3 1 0 0 0 0 0 0 0 0 0 0 0 0 0 0 0 0 0 0 0 0 0 0 0 0 0 0 0 0 0 0 0 0 0 0 0 0 0 0
18 4 0 4 9 41 2 3 1 1 1 0 0 0 0 0 0 0 0 0 0 0 0 0 0 0 0 0 0 0 0 0 0 0 0 0 0 0 0 0 0 0 0 0 0 0 0
21 13 4 0 0 1 20 1 0 1 3 3 0 0 0 0 0 0 0 0 0 0 0 0 0 0 0 0 0 0 0 0 0 0 0 0 0 0 0 0 0 0 0 0 0 0 0
34 25 17 8 1 0 6 4 2 2 2 3 0 0 0 0 0 0 0 0 0 0 0 0 0 0 0 0 0 0 0 0 0 0 0 0 0 0 0 0 0 0 0 0 0 0 0
40 27 13 14 13 3 0 29 2 3 5 5 0 0 0 0 0 0 0 0 0 0 0 0 0 0 0 0 0 0 0 0 0 0 0 0 0 0 0 0 0 0 0 0 0 0 2
42 28 28 17 17 17 8 14 9 3 7 5 0 0 0 0 0 0 0 0 0 0 0 0 0 0 0 0 0 0 0 0 0 0 0 0 0 0 0 0 0 0 0 0 0 0 4
36 40 44 32 14 20 20 21 17 0 11 10 0 0 0 0 0 0 0 0 0 0 0 0 0 0 0 0 0 0 0 0 0 0 0 0 0 0 0 0 0 0 0 0 0 2 0
27 25 40 49 34 25 41 30 0 3 15 8 5 0 0 0 0 0 0 0 0 0 0 0 0 0 0 0 0 0 0 0 0 0 0 1 0 0 0 0 0 0 0 0 2 1 2
56 50 44 46 42 30 35 28 8 8 20 14 12 0 0 0 0 0 0 0 0 0 0 0 0 0 0 0 0 0 0 0 0 0 0 1 0 0 0 0 0 0 0 0 9 1 8
47 61 37 18 36 23 19 30 2 15 17 6 0 0 0 0 0 0 0 0 0 0 0 0 0 0 0 0 0 0 0 0 0 0 0 0 14 0 0 0 0 0 0 44 4 21 7
43 48 42 18 13 22 22 20 9 18 1 0 0 1 6 0 0 0 0 0 0 0 0 0 0 0 0 0 0 0 0 0 0 0 0 0 3 0 0 0 4 3 15 31 88 34 47
34 9 2 3 22 25 25 51 16 22 8 0 3 10 2 2 16 1 0 0 0 0 0 0 0 0 0 0 0 0 0 0 0 0 0 0 24 2 0 0 0 0 9 29 21 11 32
2 3 6 3 12 18 44 17 17 19 0 0 0 2 1 5 14 0 0 0 0 0 0 0 0 0 0 0 0 0 0 0 0 0 0 1 11 16 0 0 0 1 9 19 30 42 32
6 2 2 1 0 20 37 10 21 14 0 0 2 14 21 2 0 0 0 0 0 0 0 0 0 0 0 0 0 0 0 0 0 0 0 1 23 6 2 10 31 8 7 8 28 6 3
0 0 0 2 12 49 15 22 18 2 0 0 0 0 6 10 0 0 0 0 0 0 0 0 0 0 0 0 0 0 0 0 0 0 0 0 12 24 14 5 0 9 6 5 1 1 0
0 0 7 46 26 11 23 18 17 0 10 0 0 0 0 0 0 0 0 0 0 0 0 0 0 0 0 0 0 0 0 0 0 0 0 8 1 8 1 17 16 1 3 0 8 3 4
6 3 4 4 13 22 27 22 16 16 1 0 0 0 0 0 0 0 0 0 0 0 0 0 0 0 0 0 0 0 0 0 0 0 0 1 0 6 4 7 1 1 3 5 3 2 3
31 34 27 25 22 29 31 22 31 43 0 0 0 0 0 0 0 0 0 0 0 0 0 0 0 0 0 0 0 0 0 0 0 0 0 2 0 7 13 4 0 5 4 4 1 5 8
11 35 44 69 69 58 36 28 31 13 0 0 0 0 0 0 0 0 0 0 0 0 0 0 0 0 0 0 0 0 0 0 0 0 0 1 7 6 19 2 6 5 2 2 7 5 5
29 18 11 26 40 53 59 35 17 0 0 0 0 0 0 0 0 0 0 0 0 0 0 0 0 0 0 0 0 0 0 0 2 19 2 3 0 3 12 8 2 2 3 2 2 1 3
46 52 52 39 34 40 43 13 1 0 0 0 0 0 0 0 0 0 0 0 0 0 0 0 0 0 0 0 0 0 0 0 2 2 10 0 1 2 2 4 2 2 9 11 4 3 2
27 27 27 66 100 88 90 47 5 0 0 0 0 0 0 0 0 0 0 0 0 0 0 0 0 0 0 0 0 0 0 0 4 3 13 0 2 2 2 3 1 4 11 1 4 8 2
32 57 96 102 82 68 17 0 0 0 0 0 0 0 0 0 0 0 0 0 0 0 0 0 0 0 0 0 0 0 0 0 1 28 0 1 0 1 2 4 8 22 5 4 10 5 5

GFSGBSN_con_sbcape_120.txt.gz
CAPE
0 1 0 0 0 0 0 0 0 0 0 0 0 0 0 0 0 0 0 0 0 0 0 0 0 0 0 0 0 0 0 0 0 0 0 0 0 0 0 0 0 0 0 0 0 0 0
1 0 0 1 0 2 0 0 0 0 0 0 0 0 0 0 0 0 0 0 0 0 0 0 0 0 0 0 0 0 0 0 0 0 0 0 0 0 0 0 0 0 0 0 0 0 0
2 1 1 0 0 0 0 0 0 0 0 0 0 0 0 0 0 0 0 0 0 0 0 0 0 0 0 0 0 0 0 0 0 0 0 0 0 0 0 0 0 0 0 0 0 0 0
0 0 1 0 0 0 0 0 0 0 0 0 0 0 0 0 0 0 0 0 0 0 0 0 0 0 0 0 0 0 0 0 0 0 0 0 0 0 0 0 0 0 0 0 0 0 0
0 0 0 2 0 0 0 0 0 0 0 0 0 0 0 0 0 0 0 0 0 0 0 0 0 0 0 0 0 0 0 0 0 0 0 0 0 0 0 0 0 0 0 0 0 0 0
2 4 3 4 0 1 0 0 0 0 1 0 0 0 0 0 0 0 0 0 0 0 0 0 0 0 0 0 0 0 0 0 0 0 0 0 0 0 0 0 0 0 0 0 0 0 0
5 4 1 0 0 1 1 0 0 0 1 2 0 0 0 0 0 0 0 0 0 0 0 0 0 0 0 0 0 0 0 0 0 0 0 0 0 0 0 0 0 0 0 0 0 0 0
22 15 1 0 0 0 0 8 0 0 1 2 0 0 0 0 0 0 0 0 0 0 0 0 0 0 0 0 0 0 0 0 0 0 0 0 0 0 0 0 0 0 0 0 0 0 0
16 16 25 4 1 0 0 0 2 0 0 1 0 0 0 0 0 0 0 0 0 0 0 0 0 0 0 0 0 0 0 0 0 0 0 0 0 0 0 0 0 0 0 0 0 0 0
27 29 25 31 15 0 0 0 0 4 0 1 2 0 0 0 0 0 0 0 0 0 0 0 0 0 0 0 0 0 0 0 0 0 0 0 0 0 0 0 0 0 0 0 0 0 0
27 32 30 39 25 10 0 0 0 1 0 2 1 0 0 0 0 0 0 0 0 0 0 0 0 0 0 0 0 0 0 0 0 0 0 0 0 0 0 0 0 0 0 0 0 0 5
36 36 31 40 29 17 6 11 9 4 1 4 4 0 0 0 0 0 0 0 0 0 0 0 0 0 0 0 0 0 0 0 0 0 0 0 0 0 0 0 0 0 0 1 2 0 17
43 34 29 26 34 28 11 5 9 8 32 4 6 0 0 0 0 0 0 0 0 0 0 0 0 0 0 0 0 0 0 0 0 0 0 0 0 0 0 0 0 0 25 79 90 186 80
47 43 27 22 21 36 33 17 8 15 28 2 3 0 0 0 0 0 18 0 0 0 0 0 0 0 0 0 0 0 0 0 0 0 0 0 0 0 0 0 0 2 20 49 27 120 86
44 42 31 17 18 42 50 26 22 25 26 6 17 4 12 2 0 8 2 0 0 0 0 0 0 0 0 0 0 0 0 0 0 0 0 0 0 0 0 0 0 6 30 24 26 31 31
52 57 49 37 33 37 55 27 28 24 13 13 0 1 7 0 16 27 19 0 0 0 0 0 0 0 0 0 0 0 0 0 0 0 0 2 8 0 0 0 2 21 7 40 89 55 102
48 57 51 49 42 23 51 33 27 20 18 10 0 0 12 26 70 46 14 0 0 0 0 0 0 0 0 0 0 0 0 0 0 0 0 1 17 0 0 4 11 23 39 39 38 48 74
49 50 48 49 53 50 53 51 43 35 20 0 8 2 4 37 22 22 4 0 0 0 0 0 0 0 0 0 0 19 0 0 0 0 2 5 20 6 0 2 0 0 25 29 70 36 87
47 50 57 62 56 51 42 50 43 59 8 0 0 12 4 45 4 19 1 0 0 0 0 0 0 0 0 1 0 0 0 0 0 0 7 21 18 8 15 24 1 0 2 9 13 58 42
57 64 48 36 39 44 42 44 45 60 13 0 3 10 12 16 21 9 21 0 0 0 0 0 0 0 0 0 0 0 0 0 0 0 0 6 12 17 22 9 13 13 10 7 25 90 12
45 27 20 4 9 14 20 33 44 61 20 0 2 9 4 31 25 15 9 6 1 0 0 0 0 0 0 0 0 0 0 0 0 0 0 13 5 17 14 14 24 10 8 22 6 13 17
25 4 7 5 2 0 0 24 39 46 26 16 0 2 12 2 9 29 24 13 0 0 0 0 0 0 0 0 0 0 0 0 0 0 0 12 20 47 16 31 52 2 5 7 16 15 9
2 6 3 0 0 0 2 14 56 22 40 16 0 0 0 3 13 46 40 5 0 0 0 0 0 0 0 0 0 0 0 0 0 0 0 9 8 9 20 23 13 12 4 9 14 5 17
9 9 0 2 1 1 7 27 23 38 26 0 0 0 10 20 40 20 8 0 0 0 0 0 0 0 0 0 0 0 0 0 0 0 0 6 3 3 36 30 45 20 7 1 2 4 7
8 2 15 22 11 8 7 19 31 11 0 0 0 0 11 16 8 2 1 0 0 0 0 0 0 0 0 0 0 1 13 6 1 0 0 2 2 15 34 66 13 12 6 9 9 5 4
8 9 12 20 24 31 23 15 9 0 0 0 0 0 0 8 21 0 1 0 0 0 0 0 0 0 0 0 0 1 1 1 22 39 14 8 21 27 33 50 30 7 5 7 8 9 5
15 25 39 43 32 35 58 30 2 0 0 0 0 0 2 2 0 1 0 0 0 0 0 0 0 0 0 2 4 2 9 4 24 24 33 38 13 19 37 45 5 5 12 25 10 9 6
30 16 32 47 44 41 46 15 1 0 0 0 1 0 0 0 0 0 0 0 0 0 0 0 0 0 0 2 0 0 8 16 19 15 17 6 10 13 18 33 11 6 21 17 9 9 7
29 27 21 20 28 35 17 1 0 0 0 0 0 0 0 0 0 0 0 0 0 0 0 0 0 0 0 0 0 0 7 23 29 36 8 27 9 4 7 13 18 30 16 25 7 9 7

GFSGBSN_con_sbcape_123.txt.gz
CAPE
1 1 1 0 0 0 5 1 0 0 0 0 0 0 0 0 0 0 0 0 0 0 0 0 0 0 0 0 0 0 0 0 0 0 0 0 0 0 0 0 0 0 0 0 0 0 0
1 0 0 0 0 0 2 5 0 0 0 0 0 0 0 0 0 0 0 0 0 0 0 0 0 0 0 0 0 0 0 0 0 0 0 0 0 0 0 0 0 0 0 0 0 0 0
0 1 0 0 0 0 1 1 0 0 0 0 0 0 0 0 0 0 0 0 0 0 0 0 0 0 0 0 0 0 0 0 0 0 0 0 0 0 0 0 0 0 0 0 0 0 0
0 0 0 1 0 0 0 0 0 0 0 0 0 0 0 0 0 0 0 0 0 0 0 0 0 0 0 0 0 0 0 0 0 0 0 0 0 0 0 0 0 0 0 0 0 0 0
2 0 0 0 0 0 0 0 0 0 0 0 0 0 0 0 0 0 0 0 0 0 0 0 0 0 0 0 0 0 0 0 0 0 0 0 0 0 0 0 0 0 0 0 0 0 0
4 0 1 0 0 0 1 0 0 0 0 1 0 0 0 0 0 0 0 0 0 0 0 0 0 0 0 0 0 0 0 0 0 0 0 0 0 0 0 0 0 0 0 0 0 0 0
10 8 0 0 0 0 0 0 0 0 0 1 1 0 0 0 0 0 0 0 0 0 0 0 0 0 0 0 0 0 0 0 0 0 0 0 0 0 0 0 0 0 0 0 0 0 0
1 0 5 7 0 0 0 0 0 0 0 1 1 1 0 0 0 0 0 0 0 0 0 0 0 0 0 0 0 0 0 0 0 0 0 0 0 0 0 0 0 0 0 0 0 0 0
14 6 0 0 0 1 0 0 0 0 1 0 1 3 0 0 0 0 0 0 0 0 0 0 0 0 0 0 0 0 0 0 0 0 0 0 0 0 0 0 0 0 0 0 0 0 0
22 15 19 7 3 19 13 0 0 0 1 1 1 1 0 0 0 0 0 0 0 0 0 0 0 0 0 0 0 0 0 0 0 0 0 0 0 0 0 0 0 0 0 0 0 0 0
21 24 22 29 26 21 17 3 0 0 0 11 1 1 0 0 0 0 0 0 0 0 3 0 0 0 0 0 0 0 0 0 0 0 0 0 0 0 0 0 0 0 0 0 0 2 28
23 23 24 32 30 32 21 9 0 1 4 0 1 1 0 0 0 0 0 0 0 2 3 0 0 0 0 0 0 0 0 0 0 0 0 0 0 0 0 0 0 0 0 0 46 102 106
29 27 28 29 26 26 38 23 1 0 5 16 2 3 0 0 0 0 0 0 0 3 0 0 0 0 0 0 0 0 0 0 0 0 0 0 0 0 0 0 1 0 10 34 89 130 139
45 40 35 41 36 29 25 35 20 5 6 35 4 7 0 0 0 0 0 1 2 0 1 0 0 0 0 0 0 0 0 0 0 0 0 0 0 0 0 0 0 0 16 76 22 102 77
49 53 44 33 37 29 32 30 40 17 14 36 6 7 7 1 0 5 14 4 0 20 0 0 0 0 0 0 0 0 0 0 0 0 0 0 0 0 0 0 0 18 22 69 140 77 290
51 51 46 41 41 41 36 42 58 31 30 6 2 7 8 1 2 6 15 0 3 0 0 0 0 0 0 0 0 0 0 0 0 0 0 0 0 0 0 0 0 4 26 35 113 115 148
61 62 51 49 41 47 39 46 65 40 45 0 3 3 15 16 0 5 4 5 8 0 0 0 0 0 0 0 0 0 0 0 0 0 0 1 3 1 0 7 10 44 46 41 60 62 119
54 50 52 54 42 58 49 54 54 58 41 4 4 1 35 29 6 20 12 18 0 0 0 0 0 0 0 0 0 87 0 0 0 0 0 7 13 1 4 6 0 0 15 16 59 30 29
65 54 51 41 57 60 56 61 62 57 12 1 2 8 15 9 20 22 0 8 0 0 0 0 0 0 0 2 2 0 0 0 0 0 11 5 15 10 32 14 10 3 0 1 12 18 25
39 63 51 58 65 57 60 64 76 68 13 30 2 4 4 5 21 15 15 22 2 0 0 0 0 0 0 0 0 0 2 0 0 0 0 6 13 8 40 7 0 0 3 4 14 36 107
49 40 22 39 50 61 58 65 73 75 20 33 4 11 3 8 18 16 29 14 11 2 2 0 0 0 0 0 0 0 0 0 0 0 0 18 11 8 12 8 5 4 2 7 1 7 12
56 31 37 39 46 53 55 60 65 80 69 43 8 66 43 16 5 31 31 20 14 19 0 0 0 0 0 0 0 0 0 0 0 1 25 19 26 54 9 12 9 13 3 7 12 10 8
30 39 29 50 45 43 50 62 68 73 81 28 73 67 61 20 15 26 44 17 20 15 1 0 0 1 0 0 0 0 0 0 0 12 9 29 17 17 20 19 16 51 4 4 4 4 13
33 51 53 32 21 14 19 30 41 73 88 94 96 82 92 69 58 17 8 14 10 5 0 0 1 0 0 0 0 0 0 0 0 0 0 6 8 8 21 31 21 7 5 6 4 3 3
48 25 15 4 4 7 5 14 6 35 74 128 54 88 86 100 35 28 12 16 6 6 7 0 0 0 0 0 0 0 0 0 0 0 6 15 10 20 46 47 9 14 3 2 5 3 4
12 17 14 0 1 0 4 20 2 17 62 47 44 69 113 125 50 15 27 21 15 31 17 7 0 0 0 0 0 0 0 0 11 26 24 18 15 35 43 33 55 16 1 5 1 11 2
14 12 3 6 2 0 0 0 0 37 64 14 2 122 136 96 43 21 32 15 3 5 5 2 0 0 0 0 0 0 9 3 21 30 36 37 35 54 58 52 8 3 0 6 12 10 3
26 22 13 13 3 11 16 19 44 37 4 5 2 9 37 25 8 1 0 20 8 23 0 0 0 0 0 2 1 3 6 6 22 24 28 33 53 49 44 43 46 4 27 17 6 7 4
11 27 24 17 18 16 14 12 9 5 0 13 1 0 0 0 17 3 0 0 0 0 0 0 0 0 0 0 0 4 0 20 14 32 4 33 25 46 6 14 5 9 32 16 4 9 6

GFSGBSN_con_sbcape_126.txt.gz
CAPE
2 0 0 0 0 0 2 2 2 0 0 0 0 0 0 0 0 0 0 0 0 0 0 0 0 0 0 0 0 0 0 0 0 0 0 0 0 0 0 0 0 0 0 0 0 0 0
0 2 0 0 0 0 2 1 0 0 0 0 0 0 0 0 0 0 0 0 0 0 0 0 0 0 0 0 0 0 0 0 0 0 0 0 0 0 0 0 0 0 0 0 0 0 0
0 0 0 0 0 0 0 0 0 0 0 0 0 0 0 0 0 0 0 0 0 0 0 0 0 0 0 0 0 0 0 0 0 0 0 0 0 0 0 0 0 0 0 0 0 0 0
0 0 0 0 0 0 0 0 0 0 0 0 0 0 0 0 0 0 0 0 0 0 0 0 0 0 0 0 0 0 0 0 0 0 0 0 0 0 0 0 0 0 0 0 0 0 0
2 0 0 0 0 0 0 0 0 0 1 0 0 0 0 0 0 0 0 0 0 0 0 0 0 0 0 0 0 0 0 0 0 0 0 0 0 0 0 0 0 0 0 0 0 0 0
8 4 0 0 0 0 0 0 0 0 0 0 0 0 0 0 0 0 0 0 0 0 0 0 0 0 0 0 0 0 0 0 0 0 0 0 0 0 0 0 0 0 0 0 0 0 0
3 6 11 2 0 0 0 0 0 0 0 0 0 1 0 0 0 0 0 0 0 0 0 0 0 0 0 0 0 0 0 0 0 0 0 0 0 0 0 0 0 0 0 0 0 0 0
4 2 0 0 2 0 0 0 0 0 0 0 0 1 1 0 0 0 0 0 0 0 0 0 0 0 0 0 0 0 0 0 0 0 0 0 0 0 0 0 0 0 0 0 0 0 0
16 9 0 0 0 0 0 0 0 0 0 1 0 1 2 0 0 0 0 0 0 0 0 0 0 0 0 0 0 0 0 0 0 0 0 0 0 0 0 0 0 0 0 0 0 0 0
14 20 16 2 1 0 2 11 0 0 0 1 0 1 2 0 0 0 0 0 0 0 0 0 0 0 0 0 0 0 0 0 0 0 0 0 0 0 0 0 0 0 0 0 0 0 0
27 25 14 20 22 26 24 27 9 0 0 0 1 2 0 0 0 0 0 0 0 0 21 0 0 0 0 0 0 0 0 0 0 0 0 0 0 0 0 0 0 0 0 0 0 0 0
30 24 24 21 19 24 20 29 15 0 0 1 16 2 0 0 0 0 0 0 0 8 14 0 0 0 0 0 0 0 0 0 0 0 0 0 0 0 0 0 0 0 0 0 0 0 12
31 29 28 25 26 32 33 40 25 4 0 9 7 2 0 0 0 0 0 0 4 3 0 0 0 0 0 0 0 0 0 0 0 0 0 0 0 0 0 0 0 0 0 3 0 12 20
36 45 34 34 31 39 40 42 43 21 6 13 13 0 2 0 0 0 0 2 1 0 2 0 0 0 0 0 0 0 0 0 0 0 0 0 0 0 0 0 0 0 1 1 0 5 2
52 46 38 39 43 44 44 44 39 47 16 39 3 5 1 0 0 0 0 11 0 0 2 66 43 0 0 0 0 0 0 0 0 1 0 0 0 0 0 0 0 1 0 14 24 8 17
43 56 55 47 55 42 49 51 47 50 30 9 2 2 3 2 5 0 2 1 7 0 1 0 5 0 0 0 0 0 0 0 0 0 0 0 0 0 0 0 0 0 0 11 57 23 3
61 60 49 52 45 51 54 68 57 69 54 16 2 7 11 3 1 4 1 2 3 0 11 4 0 0 0 0 0 0 0 0 0 0 0 0 0 0 0 0 0 0 9 23 28 35 30
61 54 54 46 55 60 62 78 68 84 54 12 8 16 18 1 2 13 15 2 2 14 24 17 0 0 0 0 11 0 0 0 0 0 0 0 4 0 0 1 0 0 1 0 6 2 8
55 47 59 67 63 70 72 67 63 81 51 9 16 6 20 8 5 10 1 0 17 22 31 3 0 0 0 4 0 50 5 0 0 0 0 1 0 4 3 6 0 0 0 0 0 0 4
65 51 66 74 74 68 63 67 61 84 63 63 0 3 2 5 8 26 13 23 23 20 25 9 0 5 0 0 0 4 4 0 0 0 0 0 6 5 11 14 1 0 0 0 1 15 13
65 63 71 58 58 60 61 63 63 69 65 42 23 12 1 0 3 11 31 18 14 30 19 33 2 2 0 0 0 0 0 0 0 0 0 2 15 2 8 5 4 2 0 0 0 3 17
72 69 59 64 60 58 67 64 71 64 80 88 0 58 36 2 4 17 16 55 15 20 39 29 2 0 0 0 0 0 0 0 0 0 0 0 27 0 2 0 1 17 0 0 5 0 1
92 83 60 59 74 70 65 62 71 72 93 17 36 41 101 26 31 19 9 7 22 51 41 19 8 4 2 0 0 2 6 1 0 0 0 49 19 26 8 29 5 15 0 0 0 1 1
114 85 73 69 65 64 55 63 71 75 90 67 46 65 84 59 75 27 6 10 61 50 45 0 8 6 0 0 1 0 0 0 0 0 3 29 15 14 24 60 25 0 0 0 1 2 0
104 62 64 51 60 60 42 58 57 62 71 94 66 90 103 76 37 31 26 22 39 90 45 13 1 0 1 5 3 0 0 0 0 0 0 0 20 24 27 36 0 0 0 1 1 0 0
69 39 38 43 34 23 23 32 44 62 64 127 42 84 89 119 40 16 49 21 88 72 1 1 0 12 23 3 3 0 0 0 0 0 0 0 60 54 45 29 8 4 0 0 0 8 0
31 36 49 27 20 20 27 32 42 59 59 73 27 57 157 96 44 134 67 33 86 42 7 3 2 8 35 19 11 1 13 1 7 6 6 30 35 30 53 22 1 0 0 0 7 4 3
54 58 50 58 33 22 11 5 6 31 48 64 26 72 122 65 96 145 29 50 59 35 9 3 0 4 8 22 1 9 64 85 42 21 2 5 20 38 41 37 34 1 3 13 3 3 2
4 10 13 0 1 7 3 6 12 6 35 48 36 34 66 214 2 12 19 76 49 4 2 0 0 0 0 7 24 49 72 88 2 81 8 5 5 11 2 6 1 3 12 8 1 9 3

GFSGBSN_con_sbcape_129.txt.gz
CAPE
0 2 1 0 0 0 0 0 0 0 0 0 0 0 0 0 0 0 0 0 0 0 0 0 0 0 0 0 0 0 0 0 0 0 0 0 0 0 0 0 0 0 0 0 0 0 0
0 0 0 0 0 0 0 0 0 0 0 0 0 0 0 0 0 0 0 0 0 0 0 0 0 0 0 0 0 0 0 0 0 0 0 0 0 0 0 0 0 0 0 0 0 0 0
0 0 0 0 0 0 0 0 0 0 0 0 0 0 0 0 0 0 0 0 0 0 0 0 0 0 0 0 0 0 0 0 0 0 0 0 0 0 0 0 0 0 0 0 0 0 0
0 0 0 0 0 1 0 0 0 0 0 0 0 0 0 0 0 0 0 0 0 0 0 0 0 0 0 0 0 0 0 0 0 0 0 0 0 0 0 0 0 0 0 0 0 0 0
0 0 0 0 0 0 0 0 0 0 0 0 0 0 0 0 0 0 0 0 0 0 0 0 0 0 0 0 0 0 0 0 0 0 0 0 0 0 0 0 0 0 0 0 0 0 0
4 5 1 0 0 0 0 0 0 1 0 0 0 0 0 0 0 0 0 0 0 0 0 0 0 0 0 0 0 0 0 0 0 0 0 0 0 0 0 0 0 0 0 0 0 0 0
9 1 7 7 1 0 0 0 0 0 0 0 0 0 0 0 0 0 0 0 0 0 0 0 0 0 0 0 0 0 0 0 0 0 0 0 0 0 0 0 0 0 0 0 0 0 0
6 2 4 0 0 1 0 0 0 0 0 0 0 0 1 1 0 0 0 0 0 0 0 0 0 0 0 0 0 0 0 0 0 0 0 0 0 0 0 0 0 0 0 0 0 0 0
20 3 10 0 0 0 0 1 0 0 0 0 0 1 3 1 0 0 0 0 0 0 0 0 0 0 0 0 0 0 0 0 0 0 0 0 0 0 0 0 0 0 0 0 0 0 0
15 3 18 12 3 2 0 4 3 0 0 0 0 1 1 0 0 0 0 0 0 0 0 0 0 0 0 0 0 0 0 0 0 0 0 0 0 0 0 0 0 0 0 0 0 0 0
27 26 24 16 21 24 27 15 14 0 0 0 2 2 0 0 0 0 0 0 0 0 0 0 0 0 0 0 0 0 0 0 0 0 0 0 0 0 0 0 0 0 0 0 0 0 0
34 31 25 20 24 21 38 23 25 1 0 0 4 1 0 0 0 0 0 0 0 0 0 0 0 0 0 0 0 0 0 0 0 0 0 0 0 0 0 0 0 0 0 0 0 0 0
39 31 26 28 23 32 45 34 29 13 0 2 14 3 0 0 0 0 0 0 0 8 0 0 0 0 0 0 0 0 0 0 0 0 0 0 0 0 0 0 0 0 0 0 0 0 0
46 42 30 28 27 38 49 45 42 38 14 0 1 1 0 0 0 0 0 0 5 0 0 0 0 0 0 0 0 0 0 0 0 0 0 0 0 0 0 0 0 0 0 0 0 0 0
45 51 51 40 34 42 57 49 38 27 34 29 1 0 0 0 0 0 0 14 0 0 0 0 0 0 0 0 0 0 0 0 0 0 0 0 0 0 0 0 0 0 0 0 7 0 0
45 57 54 59 56 61 59 64 51 37 45 11 0 0 0 0 0 0 0 0 0 0 0 0 2 0 0 0 0 0 0 0 0 0 0 0 0 0 0 0 0 0 0 0 0 0 2
70 63 52 53 53 60 62 54 63 56 37 7 0 6 0 3 0 0 0 0 0 0 0 0 3 0 0 0 0 0 0 0 0 0 0 0 0 0 0 0 0 0 0 9 13 17 10
58 71 58 60 63 60 64 89 80 77 25 12 8 6 1 2 0 0 0 0 0 0 0 0 0 5 0 0 0 0 0 0 0 0 0 0 1 0 0 0 0 0 0 1 0 0 0
70 64 65 65 53 55 63 70 83 81 44 4 12 1 1 1 2 0 0 0 0 0 0 0 0 8 0 0 0 0 0 0 0 0 4 3 0 0 1 2 0 1 0 0 0 0 0
86 80 77 62 81 76 74 76 78 76 68 8 0 0 1 1 1 2 3 1 0 0 0 0 0 5 0 0 0 0 0 0 0 0 0 21 15 4 2 1 3 13 1 0 0 0 0
98 100 81 69 68 78 74 76 78 67 78 1 1 0 0 0 2 20 14 0 0 0 1 0 0 8 1 0 0 0 0 2 1 0 0 1 5 6 0 0 0 0 0 0 0 0 4
111 105 89 81 72 70 79 71 62 62 97 49 0 6 0 0 0 5 1 0 0 4 2 0 0 0 0 0 0 0 0 0 0 0 0 0 13 0 0 0 0 0 0 0 0 0 0
139 133 105 90 90 88 94 68 47 75 106 28 10 1 4 0 0 0 0 4 0 2 0 0 4 16 3 0 0 0 0 0 0 5 0 0 3 6 0 0 0 0 0 0 0 0 0
103 125 124 109 113 113 109 71 57 62 109 16 6 24 14 0 1 0 0 0 0 0 0 9 21 2 0 0 0 0 0 0 13 19 18 23 30 16 1 0 1 0 0 0 0 0 0
150 164 159 138 117 118 119 94 66 56 103 33 7 2 18 8 0 2 2 0 0 0 0 0 39 3 0 0 0 0 0 0 0 0 0 0 33 6 0 0 0 0 0 0 1 0 0
164 170 164 145 134 109 100 104 87 70 85 55 24 5 1 18 3 0 0 0 0 0 0 2 0 0 0 0 0 2 0 0 0 0 0 0 19 0 1 16 3 0 0 0 0 0 0
151 158 159 151 134 112 101 88 86 82 71 55 18 5 37 11 0 16 0 0 10 2 0 0 0 1 0 0 6 0 0 0 5 3 0 0 0 1 1 7 0 0 0 0 0 0 0
119 129 121 106 124 98 79 76 79 78 81 107 8 5 25 24 20 2 0 0 11 0 5 0 0 0 0 0 0 0 8 5 6 45 0 0 4 6 0 1 1 0 0 0 0 0 0
93 93 85 85 51 39 34 62 86 79 77 98 15 6 49 40 20 3 1 0 0 4 0 0 0 0 0 0 0 0 1 38 45 16 1 1 0 0 0 0 0 3 0 0 0 0 0